[[{"header":{"parameterUnit":"m.s-1","parameterCategory":1,"la1":30.6,"la2":29.2853,"lo1":-89.7004,"lo2":-87.6739,"dy":0.0162,"dx":0.0183,"nx":112,"ny":82,"refTime":"2023-06-02T12:00:00:Z","depth":0,"parameterNumber":2,"parameterNumberName":"U-component_of_WINDS"},"data":[0.0,0.0,0.0,0.0,0.0,0.0,0.0,0.0,0.0,0.0,0.0,0.0,0.0,0.0,0.0,0.0,0.0,0.0,0.0,0.0,0.0,0.0,0.0,0.0,0.0,0.0,0.0,0.0,0.0,0.0,0.0,0.0,0.0,0.0,0.0,0.0,0.0,0.0,0.0,0.0,0.0,0.0,0.0,0.0,0.0,0.0,0.0,0.0,0.0,0.0,0.0,0.0,0.0,0.0,0.0,0.0,0.0,0.0,0.0,0.0,0.0,0.0,0.0,0.0,0.0,0.0,0.0,0.0,0.0,0.0,0.0,0.0,0.0,0.0,0.0,0.0,0.0,0.0,0.0,0.0,0.0,0.0,0.0,0.0,0.0,0.0,0.0,0.0,0.0,0.0,2.2775,2.3216,2.383,2.4199,2.4199,2.4383,2.4418,2.4209,0.0,0.0,0.0,0.0,0.0,0.0,0.0,0.0,0.0,0.0,0.0,0.0,0.0,0.0,0.0,0.0,0.0,0.0,0.0,0.0,0.0,0.0,0.0,0.0,0.0,0.0,0.0,0.0,0.0,0.0,0.0,0.0,0.0,0.0,0.0,0.0,0.0,0.0,0.0,0.0,0.0,0.0,0.0,0.0,0.0,0.0,0.0,0.0,0.0,0.0,0.0,0.0,0.0,0.0,0.0,0.0,0.0,0.0,0.0,0.0,0.0,0.0,0.0,0.0,0.0,0.0,0.0,0.0,0.0,0.0,0.0,0.0,0.0,0.0,0.0,0.0,0.0,0.0,0.0,0.0,0.0,0.0,0.0,0.0,0.0,0.0,0.0,0.0,0.0,0.0,0.0,0.0,0.0,0.0,0.0,0.0,0.0,0.0,0.0,0.0,0.0,0.0,0.0,0.0,2.2972,2.3939,2.4133,2.4199,2.4199,2.4383,2.4418,2.4209,0.0,0.0,0.0,0.0,0.0,0.0,0.0,0.0,0.0,0.0,0.0,0.0,0.0,0.0,0.0,0.0,0.0,0.0,0.0,0.0,0.0,0.0,0.0,0.0,0.0,0.0,0.0,0.0,0.0,0.0,0.0,0.0,0.0,0.0,0.0,0.0,0.0,0.0,0.0,0.0,0.0,0.0,0.0,0.0,0.0,0.0,0.0,0.0,0.0,0.0,0.0,0.0,0.0,0.0,0.0,0.0,0.0,0.0,0.0,0.0,0.0,0.0,0.0,0.0,0.0,0.0,0.0,0.0,0.0,0.0,0.0,0.0,0.0,0.0,0.0,0.0,0.0,0.0,0.0,0.0,0.0,0.0,0.0,0.0,0.0,0.0,0.0,0.0,0.0,0.0,0.0,0.0,0.0,0.0,0.0,0.0,0.0,0.0,0.0,0.0,0.0,0.0,0.0,2.2999,2.3446,2.4122,2.4199,2.4238,2.4339,2.4552,2.4584,2.4384,2.4405,0.0,0.0,0.0,0.0,0.0,0.0,0.0,0.0,0.0,0.0,0.0,0.0,0.0,0.0,0.0,0.0,0.0,0.0,0.0,0.0,0.0,0.0,0.0,0.0,0.0,0.0,0.0,0.0,0.0,0.0,0.0,0.0,0.0,0.0,0.0,0.0,0.0,0.0,0.0,0.0,0.0,0.0,0.0,0.0,0.0,0.0,0.0,0.0,0.0,0.0,0.0,0.0,0.0,0.0,0.0,0.0,0.0,0.0,0.0,0.0,0.0,0.0,0.0,0.0,0.0,0.0,0.0,0.0,0.0,0.0,0.0,0.0,0.0,0.0,0.0,0.0,0.0,0.0,0.0,0.0,0.0,0.0,0.0,0.0,0.0,0.0,0.0,0.0,0.0,0.0,0.0,0.0,0.0,0.0,0.0,0.0,0.0,0.0,0.0,0.0,0.0,0.0,2.3723,2.3926,2.417,2.4238,2.433,2.4495,2.4712,2.4741,2.4502,2.4685,0.0,0.0,0.0,0.0,0.0,0.0,0.0,0.0,0.0,0.0,0.0,0.0,0.0,0.0,0.0,0.0,0.0,0.0,0.0,0.0,0.0,0.0,0.0,0.0,0.0,0.0,0.0,0.0,0.0,0.0,0.0,0.0,0.0,0.0,0.0,0.0,0.0,0.0,0.0,0.0,0.0,0.0,0.0,0.0,0.0,0.0,0.0,0.0,0.0,0.0,0.0,0.0,0.0,0.0,0.0,0.0,0.0,0.0,0.0,0.0,0.0,0.0,0.0,0.0,0.0,0.0,0.0,0.0,0.0,0.0,0.0,0.0,0.0,0.0,0.0,0.0,0.0,0.0,0.0,0.0,0.0,0.0,0.0,0.0,0.0,0.0,0.0,0.0,0.0,0.0,0.0,0.0,0.0,0.0,0.0,0.0,0.0,0.0,0.0,0.0,0.0,0.0,2.3774,2.417,2.4199,2.4366,2.4478,2.4495,2.4799,2.4845,2.4519,2.4685,0.0,0.0,0.0,0.0,0.0,0.0,0.0,0.0,0.0,0.0,0.0,0.0,0.0,0.0,0.0,0.0,0.0,0.0,0.0,0.0,0.0,0.0,0.0,0.0,0.0,0.0,0.0,0.0,0.0,0.0,0.0,0.0,0.0,0.0,0.0,0.0,0.0,0.0,0.0,0.0,0.0,0.0,0.0,0.0,0.0,0.0,0.0,0.0,0.0,0.0,0.0,0.0,0.0,0.0,0.0,0.0,0.0,0.0,0.0,0.0,0.0,0.0,0.0,0.0,0.0,0.0,0.0,0.0,0.0,0.0,0.0,0.0,0.0,0.0,0.0,0.0,0.0,0.0,0.0,0.0,0.0,0.0,0.0,0.0,0.0,0.0,0.0,0.0,0.0,0.0,0.0,0.0,0.0,0.0,0.0,0.0,0.0,0.0,0.0,0.0,0.0,0.0,2.3588,2.4018,2.4348,2.4444,2.4572,2.479,2.4927,2.4911,2.4691,0.0,0.0,0.0,0.0,0.0,0.0,0.0,0.0,0.0,0.0,0.0,0.0,0.0,0.0,0.0,0.0,0.0,0.0,0.0,0.0,0.0,0.0,0.0,0.0,0.0,0.0,0.0,0.0,0.0,0.0,0.0,0.0,0.0,0.0,0.0,0.0,0.0,0.0,0.0,0.0,0.0,0.0,0.0,0.0,0.0,0.0,0.0,0.0,0.0,0.0,0.0,0.0,0.0,0.0,0.0,0.0,0.0,0.0,0.0,0.0,0.0,0.0,0.0,0.0,0.0,0.0,0.0,0.0,0.0,0.0,0.0,0.0,0.0,0.0,0.0,0.0,0.0,0.0,0.0,0.0,0.0,0.0,0.0,0.0,0.0,0.0,0.0,0.0,0.0,0.0,0.0,0.0,0.0,0.0,0.0,0.0,0.0,0.0,0.0,0.0,0.0,0.0,2.3165,2.3626,2.4089,2.4452,2.4598,2.4757,2.4977,2.5055,2.5005,2.4809,0.0,0.0,0.0,0.0,0.0,0.0,0.0,0.0,0.0,0.0,0.0,0.0,0.0,0.0,0.0,0.0,0.0,0.0,0.0,0.0,0.0,0.0,0.0,0.0,0.0,0.0,0.0,0.0,0.0,0.0,0.0,0.0,0.0,0.0,0.0,0.0,0.0,0.0,0.0,0.0,0.0,0.0,0.0,0.0,0.0,0.0,0.0,0.0,0.0,0.0,0.0,0.0,0.0,0.0,0.0,0.0,0.0,0.0,0.0,0.0,0.0,0.0,0.0,0.0,0.0,0.0,0.0,0.0,0.0,0.0,0.0,0.0,0.0,0.0,0.0,0.0,0.0,0.0,0.0,0.0,0.0,0.0,0.0,0.0,0.0,0.0,0.0,0.0,0.0,0.0,0.0,0.0,0.0,0.0,0.0,0.0,0.0,0.0,0.0,0.0,0.0,0.0,2.3221,2.3966,2.4495,2.4502,2.4804,2.5001,2.5001,2.5183,2.5158,0.0,0.0,0.0,0.0,0.0,0.0,0.0,0.0,0.0,0.0,0.0,0.0,0.0,0.0,0.0,0.0,0.0,0.0,0.0,0.0,0.0,0.0,0.0,0.0,0.0,0.0,0.0,0.0,0.0,0.0,0.0,0.0,0.0,0.0,0.0,0.0,0.0,0.0,0.0,0.0,0.0,0.0,0.0,0.0,0.0,0.0,0.0,0.0,0.0,0.0,0.0,0.0,0.0,0.0,0.0,0.0,0.0,0.0,0.0,0.0,0.0,0.0,0.0,0.0,0.0,0.0,0.0,0.0,0.0,0.0,0.0,0.0,0.0,0.0,0.0,0.0,0.0,0.0,0.0,0.0,0.0,0.0,0.0,0.0,0.0,0.0,0.0,0.0,0.0,0.0,0.0,0.0,0.0,0.0,0.0,0.0,0.0,0.0,0.0,0.0,0.0,0.0,0.0,2.3522,2.4099,2.4552,2.47,2.4872,2.5055,2.5203,2.5264,2.5192,2.4959,0.0,0.0,0.0,0.0,0.0,0.0,0.0,0.0,0.0,0.0,0.0,0.0,0.0,0.0,0.0,0.0,0.0,0.0,0.0,0.0,0.0,0.0,0.0,0.0,0.0,0.0,0.0,0.0,0.0,0.0,0.0,0.0,0.0,0.0,0.0,0.0,0.0,0.0,0.0,0.0,0.0,0.0,0.0,0.0,0.0,0.0,0.0,0.0,0.0,0.0,0.0,0.0,0.0,0.0,0.0,0.0,0.0,0.0,0.0,0.0,0.0,0.0,0.0,0.0,0.0,0.0,0.0,0.0,0.0,0.0,0.0,0.0,0.0,0.0,0.0,0.0,0.0,0.0,0.0,0.0,0.0,0.0,0.0,0.0,0.0,0.0,0.0,0.0,0.0,0.0,0.0,0.0,0.0,0.0,0.0,0.0,0.0,0.0,0.0,0.0,0.0,0.0,2.3785,2.4342,2.4752,2.4873,2.5018,2.5172,2.5293,2.5293,2.5214,2.5013,0.0,0.0,0.0,0.0,0.0,0.0,0.0,0.0,0.0,0.0,0.0,0.0,0.0,0.0,0.0,0.0,0.0,0.0,0.0,0.0,0.0,0.0,0.0,0.0,0.0,0.0,0.0,0.0,0.0,0.0,0.0,0.0,0.0,0.0,0.0,0.0,0.0,0.0,0.0,0.0,0.0,0.0,0.0,0.0,0.0,0.0,0.0,0.0,0.0,0.0,0.0,0.0,0.0,0.0,0.0,0.0,0.0,0.0,0.0,0.0,0.0,0.0,0.0,0.0,0.0,0.0,0.0,0.0,0.0,0.0,0.0,0.0,0.0,0.0,0.0,0.0,0.0,0.0,0.0,0.0,0.0,0.0,0.0,0.0,0.0,0.0,0.0,0.0,0.0,0.0,0.0,0.0,0.0,0.0,0.0,0.0,0.0,0.0,0.0,0.0,0.0,0.0,2.4035,2.4604,2.5001,2.5001,2.5183,2.5293,2.5293,2.5293,2.5214,2.5044,0.0,0.0,0.0,0.0,0.0,0.0,0.0,0.0,0.0,0.0,0.0,0.0,0.0,0.0,0.0,0.0,0.0,0.0,0.0,0.0,0.0,0.0,0.0,0.0,0.0,0.0,0.0,0.0,0.0,0.0,0.0,0.0,0.0,0.0,0.0,0.0,0.0,0.0,0.0,0.0,0.0,0.0,0.0,0.0,0.0,0.0,0.0,0.0,0.0,0.0,0.0,0.0,0.0,0.0,0.0,0.0,0.0,0.0,0.0,0.0,2.0807,2.0253,0.0,0.0,0.0,0.0,0.0,0.0,0.0,0.0,0.0,0.0,0.0,0.0,0.0,0.0,0.0,0.0,0.0,0.0,0.0,0.0,0.0,0.0,0.0,0.0,0.0,0.0,0.0,0.0,0.0,0.0,0.0,0.0,0.0,0.0,0.0,0.0,0.0,0.0,0.0,0.0,2.4363,2.4743,2.5001,2.5001,2.5183,2.5293,2.5293,2.5293,2.5293,2.5311,2.5168,0.0,0.0,0.0,0.0,0.0,0.0,0.0,0.0,0.0,0.0,0.0,0.0,0.0,0.0,0.0,0.0,0.0,0.0,0.0,0.0,0.0,0.0,0.0,0.0,0.0,0.0,0.0,0.0,0.0,0.0,0.0,0.0,0.0,0.0,0.0,0.0,0.0,0.0,0.0,0.0,0.0,0.0,0.0,0.0,0.0,0.0,0.0,0.0,0.0,0.0,0.0,0.0,0.0,0.0,0.0,0.0,0.0,0.0,0.0,2.2018,2.1238,0.0,0.0,0.0,0.0,0.0,0.0,0.0,0.0,0.0,0.0,0.0,0.0,0.0,0.0,0.0,0.0,0.0,0.0,0.0,0.0,0.0,0.0,0.0,0.0,0.0,0.0,0.0,0.0,0.0,0.0,0.0,0.0,0.0,0.0,0.0,0.0,0.0,0.0,0.0,0.0,2.4713,2.4981,2.5142,2.5142,2.5234,2.5293,2.5293,2.5293,2.5322,2.5399,2.5297,0.0,0.0,0.0,0.0,0.0,0.0,0.0,0.0,0.0,0.0,0.0,0.0,0.0,0.0,0.0,0.0,0.0,0.0,0.0,0.0,0.0,0.0,0.0,0.0,0.0,0.0,0.0,0.0,0.0,0.0,0.0,0.0,0.0,0.0,0.0,0.0,0.0,0.0,0.0,0.0,0.0,0.0,0.0,0.0,0.0,0.0,0.0,0.0,0.0,0.0,0.0,0.0,0.0,2.2581,2.3187,2.3981,2.4182,2.4623,2.5173,2.3418,2.2453,2.2076,2.1641,0.0,0.0,0.0,0.0,0.0,0.0,0.0,0.0,0.0,0.0,0.0,0.0,0.0,0.0,0.0,0.0,0.0,0.0,0.0,0.0,0.0,0.0,2.384,2.4004,2.4091,2.4063,2.3798,0.0,0.0,0.0,0.0,0.0,0.0,0.0,0.0,0.0,0.0,0.0,2.4996,2.5183,2.5293,2.5293,2.5303,2.5303,2.5293,2.5303,2.5341,2.5409,2.5418,2.5447,0.0,0.0,0.0,0.0,0.0,0.0,0.0,0.0,0.0,0.0,0.0,0.0,0.0,0.0,0.0,0.0,0.0,0.0,0.0,0.0,0.0,0.0,0.0,0.0,0.0,0.0,0.0,0.0,0.0,0.0,0.0,0.0,2.1109,2.0934,0.0,0.0,0.0,0.0,0.0,0.0,0.0,0.0,0.0,0.0,0.0,0.0,0.0,2.2505,2.3201,2.3253,2.3653,2.4407,2.5298,2.5799,2.5968,2.6907,2.7266,2.7114,2.6669,0.0,2.3676,2.3445,0.0,0.0,0.0,0.0,0.0,0.0,0.0,0.0,0.0,0.0,0.0,0.0,0.0,0.0,0.0,0.0,0.0,0.0,0.0,0.0,0.0,0.0,2.4142,2.4171,2.4433,2.4678,2.4638,2.4419,2.4307,2.4579,2.4629,2.4567,0.0,0.0,0.0,0.0,0.0,0.0,2.5072,2.5183,2.5293,2.5293,2.5341,2.5361,2.5293,2.5341,2.5418,2.5486,2.5488,2.552,2.5584,2.5591,0.0,0.0,0.0,0.0,0.0,0.0,0.0,0.0,0.0,0.0,0.0,0.0,0.0,0.0,0.0,0.0,0.0,0.0,0.0,0.0,0.0,0.0,0.0,0.0,0.0,0.0,0.0,0.0,0.0,2.1477,2.1614,2.1487,2.1505,2.1398,0.0,0.0,0.0,0.0,0.0,0.0,0.0,0.0,0.0,2.3003,2.368,2.4325,2.4898,2.5131,2.5482,2.5993,2.6423,2.6704,2.682,2.7286,2.7433,2.7311,2.7118,2.6487,2.5578,2.491,2.4111,2.3268,0.0,0.0,0.0,0.0,2.2522,2.2694,2.2615,2.2733,2.2919,2.2779,0.0,0.0,0.0,0.0,0.0,0.0,0.0,2.3513,2.3662,2.3946,2.4228,2.4348,2.4584,2.4823,2.4891,2.4892,2.4876,2.4907,2.522,2.5412,2.5218,2.5192,0.0,0.0,0.0,2.6281,2.6588,2.6714,2.6765,2.6765,2.6823,2.664,2.6082,2.6092,2.5948,2.5534,2.5499,2.5548,2.5654,2.5615,2.5481,0.0,0.0,0.0,0.0,0.0,0.0,0.0,0.0,0.0,0.0,0.0,0.0,0.0,0.0,0.0,0.0,0.0,0.0,0.0,0.0,0.0,0.0,0.0,0.0,0.0,0.0,0.0,0.0,2.2453,2.2492,2.2358,2.2453,2.2369,0.0,0.0,0.0,0.0,0.0,0.0,2.2504,2.3408,2.4045,2.4347,2.5335,2.6004,2.6299,2.6544,2.6751,2.6898,2.7112,2.7298,2.7447,2.7714,2.78,2.7741,2.7587,2.739,2.7062,2.6097,2.5166,2.4319,2.4319,2.4113,2.3797,2.3555,2.368,2.3957,2.3987,2.4023,2.4045,2.3863,2.3386,2.2838,2.2649,0.0,0.0,0.0,0.0,2.3925,2.4094,2.4472,2.4854,2.5066,2.5274,2.5452,2.5631,2.5943,2.6036,2.5511,2.5806,2.6166,2.6181,2.5982,0.0,2.7155,2.7101,2.7169,2.7822,2.79,2.7909,2.792,2.7987,2.7739,2.7044,2.7046,2.6834,2.6227,2.5977,2.5915,2.6025,2.5771,2.5547,2.5381,0.0,0.0,0.0,0.0,0.0,0.0,0.0,0.0,0.0,0.0,0.0,0.0,0.0,0.0,0.0,0.0,0.0,0.0,0.0,0.0,0.0,0.0,0.0,0.0,0.0,0.0,0.0,0.0,0.0,2.4396,2.4639,0.0,0.0,0.0,0.0,2.4604,2.446,2.4444,2.4634,2.5239,2.5671,2.5887,2.6679,2.713,2.7147,2.6971,2.6898,2.6907,2.7671,2.8035,2.8091,2.9109,2.9467,2.9282,2.9282,2.8702,2.769,2.6878,2.6324,2.5986,2.5986,2.5769,2.5529,2.5817,2.5939,2.5995,2.631,2.6432,2.6319,2.5604,2.4484,2.3363,2.3342,2.2852,0.0,0.0,2.3729,2.4516,2.5147,2.5897,2.6519,2.673,2.6934,2.7153,2.7416,2.8082,2.8208,2.679,2.6552,2.6768,2.7399,0.0,2.8369,2.7681,2.8202,2.8498,2.7964,2.79,2.792,2.7988,2.8045,2.8077,2.8028,2.8096,2.8106,2.8068,2.7287,2.6857,2.6933,2.6143,2.5664,2.5586,2.558,0.0,0.0,0.0,0.0,0.0,0.0,0.0,0.0,0.0,0.0,0.0,0.0,0.0,0.0,0.0,0.0,0.0,0.0,0.0,0.0,0.0,0.0,0.0,0.0,0.0,0.0,0.0,0.0,2.4721,2.4872,0.0,2.4706,2.4846,2.5109,2.5545,2.5743,2.6069,2.6582,2.6629,2.6758,2.6963,2.7371,2.766,2.7774,2.8098,2.8516,2.9033,2.9322,2.9719,3.0236,3.0626,3.0752,3.0697,3.0697,3.0461,3.0044,2.9255,2.7922,2.6416,2.6416,2.6353,2.6245,2.6385,2.6416,2.6438,2.6551,2.6469,2.6168,2.5464,2.4891,2.4454,2.4177,2.4248,2.4356,2.4356,2.5064,2.5796,2.5787,2.6197,2.6615,2.6691,2.6961,2.723,2.7331,2.7805,2.8217,2.8206,2.8099,2.8087,2.833,2.8285,2.8463,2.9165,2.9151,2.9198,2.9581,2.964,2.965,2.9671,2.9738,2.9554,2.8979,2.8996,2.8802,2.8242,2.7914,2.7769,2.7832,2.7539,2.7363,2.7344,2.7341,2.7252,0.0,0.0,0.0,0.0,0.0,0.0,0.0,0.0,0.0,0.0,0.0,0.0,0.0,0.0,0.0,0.0,0.0,0.0,0.0,0.0,0.0,0.0,0.0,0.0,0.0,2.4831,2.5054,2.5187,2.5409,2.5585,2.5735,2.5885,2.6163,2.6601,2.684,2.7125,2.758,2.7612,2.7661,2.7698,2.8118,2.8476,2.8799,2.9195,2.9815,3.0595,3.0595,3.0879,3.1393,3.1393,3.1393,3.1393,3.1393,3.1393,3.1357,3.0815,2.9659,2.8172,2.7622,2.742,2.742,2.742,2.742,2.742,2.742,2.7173,2.6801,2.6357,2.5982,2.5614,2.5366,2.5396,2.5508,2.5403,2.6077,2.6808,2.6645,2.7066,2.7562,2.7636,2.791,2.8171,2.8265,2.8527,2.89,2.9438,2.9193,2.8992,2.9298,2.9013,2.9094,3.0109,2.9912,2.9862,3.0487,3.0595,3.0616,3.0633,3.0669,3.0482,2.9955,2.9952,2.9734,2.9146,2.8832,2.8688,2.8737,2.8429,2.8137,2.7871,2.7841,2.7917,2.8098,0.0,0.0,0.0,0.0,0.0,0.0,0.0,0.0,0.0,0.0,0.0,0.0,0.0,0.0,0.0,0.0,0.0,0.0,0.0,0.0,0.0,0.0,0.0,2.4823,2.4958,2.5292,2.5981,2.6405,2.6894,2.7545,2.7783,2.7909,2.7938,2.7754,2.7656,2.7685,2.8268,2.8467,2.8213,2.9041,2.9734,3.0243,3.0261,3.0641,3.143,3.143,3.1439,3.1458,3.1458,3.1458,3.1458,3.1458,3.1458,3.1458,3.1439,3.143,3.1274,2.9696,2.9058,2.9058,2.9039,2.9012,2.8994,2.8994,2.874,2.842,2.8411,2.7709,2.6854,2.6827,2.6313,2.5741,2.6072,2.6751,2.7444,2.7761,2.8611,2.9454,2.9643,2.9861,3.0075,3.0333,3.0388,3.0398,3.0398,2.9717,2.941,3.0256,3.0398,3.0398,3.0408,3.0467,0.0,3.051,3.057,3.0627,3.0685,3.0698,3.0748,3.0877,3.0889,3.0898,3.0898,3.0097,2.9634,2.9638,2.8754,2.7908,2.7129,2.705,2.7398,2.8174,0.0,0.0,0.0,0.0,0.0,0.0,0.0,0.0,0.0,0.0,0.0,0.0,0.0,0.0,0.0,0.0,0.0,0.0,0.0,0.0,0.0,2.4904,2.585,2.5878,2.6046,2.648,2.7359,2.7502,2.7628,2.7871,2.7907,2.814,2.8727,2.8712,2.8958,2.9601,3.0209,3.0494,3.0411,3.1071,3.1408,3.1364,3.1364,3.1663,3.2274,3.2274,3.2577,3.3137,3.3137,3.3137,3.3137,3.3137,3.3137,3.3091,3.2513,3.2274,3.2173,3.1136,3.0733,3.0668,3.009,2.9512,2.8994,2.8994,2.8929,2.8782,2.8496,2.8189,2.7914,2.7662,2.7602,2.76,2.7433,2.8088,2.8772,2.8594,2.9072,2.9634,2.9696,2.9861,3.0013,3.0089,3.0267,3.0398,3.0398,3.0217,3.0121,3.035,3.0448,3.0496,3.0544,3.0602,3.0685,3.0777,3.0811,3.0788,3.0707,3.0698,3.0709,3.075,3.0752,3.0799,3.0889,3.0584,3.0399,3.0399,3.0104,2.984,2.9614,2.9541,2.9615,0.0,0.0,0.0,0.0,0.0,0.0,0.0,0.0,0.0,0.0,0.0,0.0,0.0,0.0,0.0,0.0,0.0,0.0,0.0,0.0,0.0,0.0,2.5588,2.6673,2.7371,2.7278,2.7476,2.8382,2.8468,2.8611,2.9052,2.9042,2.9217,2.9688,2.9698,3.0073,3.0936,3.128,3.158,3.184,3.2177,3.2401,3.2458,3.2359,3.2641,3.3269,3.3152,3.3357,3.3798,3.3798,3.3798,3.3798,3.3798,3.3798,3.3761,3.3302,3.3109,3.299,0.0,0.0,0.0,0.0,3.0411,3.0017,3.0017,3.0017,2.9943,2.946,2.9253,2.9091,2.8755,2.8735,2.8804,2.8693,2.9074,2.9466,2.9232,2.9504,2.9838,2.9838,3.0003,3.0173,3.0173,3.0289,3.0408,3.0448,3.0448,0.0,3.0487,3.0496,3.0512,3.0588,3.0662,3.0723,3.0812,3.0874,3.0868,3.0792,3.0782,3.0781,3.0784,3.0776,0.0,0.0,0.0,3.0671,3.0614,3.0264,0.0,0.0,0.0,3.0142,3.0499,3.0456,0.0,0.0,2.9131,2.9142,0.0,0.0,0.0,0.0,0.0,0.0,0.0,0.0,0.0,0.0,0.0,0.0,0.0,0.0,0.0,0.0,2.6344,2.74,2.8881,2.8573,2.8477,2.9276,2.9356,2.9687,3.0538,3.0603,3.0638,3.0746,3.0698,3.1041,3.191,3.1987,0.0,0.0,0.0,3.313,3.3583,3.336,3.356,3.4209,3.3961,3.3815,3.3798,3.3798,3.3798,3.3798,3.3798,3.3798,3.3798,3.3798,3.3798,3.366,3.2219,3.1614,3.1531,3.1531,3.1467,3.1393,3.1393,0.0,0.0,3.0834,3.0521,3.0258,2.9907,2.9683,2.9555,2.9681,2.9713,2.9738,2.9738,2.9893,3.0052,3.0052,3.0232,3.0398,3.0398,3.0408,3.0427,3.0496,3.051,3.0531,3.0592,3.0564,3.0547,3.0603,3.0673,3.0721,3.0721,3.0832,3.0889,3.0868,3.087,0.0,3.0867,3.085,3.0807,3.0698,3.0683,3.0617,3.0492,2.9805,2.9757,3.0473,2.9728,2.9723,3.0496,3.0496,3.0496,3.0489,3.0501,3.0509,0.0,0.0,0.0,0.0,0.0,0.0,0.0,0.0,0.0,0.0,0.0,0.0,0.0,0.0,0.0,2.6403,2.7718,2.8727,2.9044,2.9621,3.0083,3.0304,3.0325,3.0417,3.066,3.0633,3.0884,3.1601,3.164,3.2014,3.2887,3.3484,3.384,3.3967,3.461,3.4893,3.4777,3.4724,3.4525,3.4209,3.4147,0.0,3.3798,3.3798,3.3798,3.3798,3.3798,3.3798,3.3798,3.3798,3.3798,3.377,3.3458,3.2944,3.2375,3.2375,3.1962,3.1393,3.1393,3.1393,3.1381,3.1274,3.1204,3.1081,3.0571,3.0393,0.0,2.984,2.9822,2.993,2.993,3.0122,3.0323,3.0323,3.0367,3.0398,3.0398,3.0448,3.0487,3.0506,3.0539,3.0599,3.0677,3.0669,3.0673,3.0681,3.0781,3.086,3.086,3.0876,3.0845,3.0676,3.0664,3.064,3.0581,3.0575,3.0589,3.062,3.0569,3.0502,3.0413,3.0271,3.026,3.0423,3.0252,3.0254,3.0417,3.0417,3.0417,3.0419,3.053,3.0583,0.0,0.0,0.0,0.0,0.0,0.0,0.0,0.0,0.0,0.0,0.0,2.4093,2.5064,0.0,2.6484,2.7488,2.8469,2.9246,2.9688,3.0208,3.0563,3.0597,3.0634,3.0688,3.079,3.0771,3.1113,3.1984,3.1994,3.252,3.3831,3.4219,3.4571,3.4991,3.5363,3.548,3.5352,3.5174,3.4953,3.4656,3.451,3.4366,3.4246,3.4246,3.4246,3.4246,3.4077,3.4102,3.4232,3.4077,3.4102,3.4223,3.4077,3.3679,3.3201,3.3201,3.2953,3.2596,3.2596,3.2596,3.2557,3.2284,3.2106,3.1909,3.1467,3.1079,3.0725,3.0555,3.0361,3.0196,3.0196,3.0299,3.0408,3.0448,3.0458,3.0467,3.0496,3.0535,3.0564,3.0592,3.0636,3.0668,3.069,3.0703,3.0703,3.0703,3.0762,3.0789,3.0746,3.0752,3.0716,3.0611,3.0603,3.0589,3.0545,3.0518,3.051,3.0547,3.0488,3.0427,3.0398,3.0398,3.0398,3.0398,3.0398,3.0398,3.0398,3.0398,3.0398,3.0398,3.0477,3.0527,0.0,0.0,0.0,0.0,0.0,0.0,0.0,0.0,2.3435,2.4584,2.4855,2.5211,2.6295,2.6875,2.7539,2.8619,2.9119,2.9621,3.0323,3.0535,3.0617,3.0599,3.068,3.0778,3.0887,3.0898,3.126,3.2129,3.2236,3.2959,3.4541,3.4719,3.5071,3.5723,3.5654,3.5621,3.5622,3.5337,3.5181,3.5117,3.4889,3.4744,3.4703,3.4703,3.4703,3.4674,3.4401,3.4455,3.4674,3.4401,3.4455,3.4674,3.4401,3.4165,3.3954,3.3902,3.3833,3.3798,3.3859,3.3885,3.3827,3.3455,3.3194,3.2941,3.2559,3.1977,3.1445,3.1384,3.1023,3.0621,3.0456,3.0417,3.0448,3.0506,3.0523,3.0527,3.0595,3.0607,3.0617,3.0666,3.0682,3.0681,3.068,3.0687,3.0683,3.0681,3.0675,3.0663,3.061,3.0603,3.0603,3.0583,3.0588,3.0583,3.0564,3.0516,3.0487,3.0487,3.0427,3.0398,3.0398,3.0398,3.0398,3.0398,3.0398,3.0398,3.0398,3.0398,3.0398,3.0398,3.0398,3.0427,1.9795,2.0569,2.1831,2.3232,2.336,2.3492,0.0,0.0,2.4983,2.6124,2.6506,2.6878,2.7714,2.827,2.8851,2.9708,3.0123,3.0381,3.0487,3.0602,3.0674,3.0606,3.0758,3.0875,3.0898,3.0898,3.126,3.2129,3.2851,3.3672,3.4639,3.5361,3.5779,3.5872,3.5752,3.5689,3.569,3.5585,3.5417,3.5196,3.5104,3.4926,3.4703,3.4703,3.4703,3.4703,3.4653,3.4674,3.4703,3.4653,3.4674,3.4703,3.4653,3.4632,3.456,3.4265,3.3993,3.3842,3.4059,3.4171,3.42,3.4426,3.4501,3.4352,3.3785,3.3556,3.3217,3.1993,3.1619,3.1391,3.0669,3.0496,3.0516,3.0573,3.0587,3.0584,3.0594,3.0595,3.0599,3.0609,3.0608,3.0604,3.0607,3.0617,3.0614,3.0613,3.0608,3.0614,3.06,3.06,3.0581,3.0523,3.0508,3.0496,3.0427,3.0417,3.0408,3.0408,3.0398,3.0398,3.0398,3.0398,3.0398,3.0398,3.0398,3.0398,3.0398,3.0398,3.0398,3.0398,3.0398,3.0398,2.0594,2.1116,2.187,0.0,2.3716,2.3884,2.4938,2.5065,2.5269,2.641,2.7,2.7555,2.8347,2.9049,2.9603,2.9942,3.0279,3.0506,3.0506,3.0621,3.0682,3.0613,3.0704,3.0784,3.0781,3.0747,3.1141,3.2129,3.2871,3.3697,3.4648,3.5459,3.5918,3.5957,3.5868,3.5818,3.5819,3.5713,3.5577,3.5426,3.5403,3.5302,3.5174,3.5174,3.5088,3.4944,3.5105,3.5088,3.4917,3.4917,3.5016,3.5148,3.4999,3.4917,3.4898,3.4593,3.442,3.4339,3.4455,3.4498,3.4498,3.4644,3.4703,3.4648,3.4387,3.4087,3.37,3.3121,3.2387,3.1698,3.1383,3.0936,3.0577,3.0648,3.0632,3.0611,3.0655,3.063,3.0597,3.0601,3.06,3.0588,3.0549,3.0536,3.0479,3.0282,3.0423,3.0535,3.0496,3.0487,3.0477,3.0448,3.0448,3.0427,3.0398,3.0398,3.0398,3.0398,3.0398,3.0398,3.0398,3.0398,3.0398,3.0398,3.0398,3.0398,3.0398,3.0398,3.0398,3.0398,3.0398,3.0398,2.1405,2.1793,0.0,2.3912,2.4337,2.4537,2.5294,2.546,2.5762,2.6832,2.7562,2.8194,2.8771,2.9556,3.0122,3.0132,3.0353,3.0535,3.0554,3.0587,3.0593,3.053,3.0482,3.0454,3.0453,3.054,3.0915,3.1702,3.243,3.3256,3.423,3.5082,3.5674,3.5957,3.5937,3.5928,3.5928,3.5809,3.5727,3.568,3.5651,3.5603,3.5565,3.5565,3.5441,3.528,3.5465,3.5441,3.5264,3.5264,3.5377,3.5541,3.5337,3.5264,3.5238,3.5056,3.4869,3.4736,3.481,3.4838,3.4885,3.4955,3.4983,3.4983,3.4983,3.467,3.4289,3.4101,3.3321,3.2449,3.2025,3.1458,3.091,3.074,3.0653,3.0612,3.0664,3.0617,3.0573,3.0571,3.0564,3.0513,3.0388,3.0356,3.0253,2.9964,3.0118,3.0286,3.0286,3.0345,3.0398,3.0398,3.0398,3.0398,3.0398,3.0398,3.0398,3.0398,3.0398,3.0398,3.0398,3.0398,3.0398,3.0398,3.0398,3.0398,3.0398,3.0398,3.0398,3.0398,3.0398,3.0398,2.2053,2.2557,2.304,2.4986,2.5438,2.5667,2.6461,2.6638,2.6886,2.7711,2.8485,2.9057,2.9085,2.9798,3.0408,3.0465,3.0554,3.0621,3.0679,3.0527,3.0386,3.0316,3.001,2.983,2.9829,3.0298,3.061,3.0648,3.1449,3.232,3.3202,3.4126,3.5029,3.5879,3.5957,3.5996,3.5996,3.5928,3.589,3.5882,3.5757,3.5699,3.569,3.569,3.569,3.5676,3.569,3.569,3.5676,3.5676,3.5699,3.569,3.5676,3.5676,3.5676,3.5676,3.5291,3.4833,3.5097,3.5221,3.5324,3.5597,3.5676,3.5676,3.5676,3.5657,3.5483,3.4697,3.4447,3.4039,3.2421,3.1935,3.1661,3.0888,3.065,3.06,3.0603,3.0544,3.0508,3.0506,3.0458,3.0321,3.0061,3.0023,2.9949,2.9738,2.9713,2.9789,2.9984,3.0232,3.0398,3.0398,3.0398,3.0398,3.0398,3.0398,3.0398,3.0398,3.0398,3.0398,3.0398,3.0398,3.0398,3.0398,3.0398,3.0398,3.0398,3.0398,3.0398,3.0398,3.0398,3.0398,2.1796,2.2843,2.3807,2.5209,2.5575,2.5772,2.6519,2.6682,2.6782,2.7063,2.7637,2.8198,2.8439,2.9247,2.9965,3.0247,3.0516,3.0669,3.0698,3.0301,2.9976,2.9913,2.9397,2.9035,2.9005,2.9604,3.0047,3.0123,3.0979,3.192,3.2885,3.3866,3.4824,3.5739,3.5792,3.5841,3.5928,3.5908,3.5901,3.5904,3.5764,3.5707,3.5707,3.5707,3.5707,3.5707,3.5707,3.5707,3.5707,3.5707,3.5707,3.5707,3.5707,3.5707,3.5707,3.5707,3.563,3.5529,3.5538,3.5549,3.5577,3.567,3.5707,3.5707,3.5707,3.5707,3.5636,3.5373,3.4914,3.4236,3.3085,3.2352,3.1685,3.0837,3.0482,3.0337,3.0333,3.0146,2.9965,2.9965,2.9946,2.9905,2.9822,2.9796,2.9738,2.9523,2.9616,2.9721,2.9796,2.988,2.9937,2.9937,3.0056,3.0127,3.0127,3.0299,3.0398,3.0398,3.0232,3.0127,3.0127,3.0013,2.9937,2.9937,2.9937,2.9937,2.9937,2.9937,2.9998,3.0127,3.0127,3.0232,2.2532,2.3694,2.4564,2.5705,2.5989,2.6116,2.6581,2.6691,2.6623,2.6361,2.6996,2.7645,2.7783,2.8778,2.969,3.0008,3.042,3.0588,3.0279,2.9901,2.9378,2.8667,2.812,2.7573,2.7151,2.7546,2.832,2.9514,3.0165,3.1118,3.2512,3.323,3.4135,3.5346,3.54,3.5465,3.5536,3.5542,3.5614,3.5762,3.5717,3.574,3.5816,3.5786,3.5786,3.5816,3.5816,3.5816,3.5816,3.5816,3.5794,3.5771,3.5771,3.5741,3.5703,3.5703,3.5746,3.5827,3.5734,3.5728,3.5761,3.5717,3.5703,3.5703,3.5703,3.5703,3.5698,3.5696,3.533,3.4635,3.3374,3.2619,3.1873,3.0613,3.0158,3.0025,3.0025,2.9848,2.9696,2.9696,2.9696,2.9678,2.9607,2.938,2.9159,2.8888,2.8977,2.9182,2.9542,2.9652,2.9696,2.9696,2.9822,2.9883,2.9883,3.0052,3.0151,3.0151,2.9988,2.9883,2.9883,2.9772,2.9696,2.9696,2.9696,2.9696,2.9696,2.9696,2.9772,2.9883,2.9883,3.0018,2.4067,2.5034,2.5328,2.6404,2.6657,2.6657,2.6615,2.6624,2.6404,2.5711,2.6567,2.7351,0.0,0.0,2.9501,2.9691,3.0163,3.0228,2.944,2.9195,2.8421,0.0,0.0,0.0,0.0,0.0,2.5464,2.8478,2.888,2.9824,3.1815,3.2043,3.2901,3.4595,3.4725,3.4794,3.4892,3.4897,3.5088,3.5466,3.5597,3.5758,3.5944,3.5877,3.5877,3.5936,3.5936,3.5936,3.5936,3.5956,3.5928,3.5871,3.5886,3.581,3.5699,3.5699,3.5699,3.5697,3.5698,3.5775,3.5868,3.5743,3.5699,3.5699,3.5699,3.5692,3.5675,3.5682,3.5667,3.5215,3.3275,3.2724,3.2198,3.0255,2.9748,2.9678,2.9669,2.9642,2.9624,2.9597,2.9606,2.9542,2.9364,2.879,2.8264,2.7954,2.7897,2.8246,2.9209,2.9495,2.9624,2.9624,2.9669,2.9669,2.9669,2.9687,2.9696,2.9696,2.9696,2.9669,2.9669,2.9678,2.9651,2.9651,2.9651,2.9651,2.9651,2.9651,2.9678,2.9669,2.9669,2.9796,2.4327,2.5355,2.581,2.6106,2.6191,2.6068,2.5672,2.5436,2.5218,2.5036,2.5147,2.5347,2.5566,2.649,0.0,2.8526,2.8169,0.0,2.8375,2.6339,0.0,2.4126,0.0,2.2257,2.1975,2.1931,0.0,2.3502,2.5803,2.7469,2.8215,2.9194,3.0657,3.2651,3.2718,3.3423,3.4805,3.488,3.4956,3.5051,3.5098,3.5123,3.5191,3.5154,3.5156,3.5175,3.5175,3.5175,3.5204,3.5405,3.5473,3.5474,3.5678,3.5724,3.5703,3.5703,3.5703,3.5685,3.5648,3.5676,3.5751,3.5707,3.5703,3.5703,3.5703,3.5561,3.5394,3.5337,3.5169,3.461,3.2827,3.2335,3.19,3.014,2.9589,2.9387,2.9089,2.8869,2.8664,2.8408,2.8357,2.834,2.8298,2.8148,2.8001,2.7926,2.7897,2.7992,2.8255,2.856,2.8735,2.8735,2.9184,2.9484,2.9484,2.9616,2.9696,2.9696,2.9561,2.9484,2.9484,2.9282,2.9194,2.9194,2.9194,2.9194,2.9194,2.9194,2.9282,2.9484,2.9484,2.9589,2.446,2.5342,2.5652,2.5652,2.5652,2.5488,2.4912,2.4628,2.4346,2.3746,2.3761,2.3962,2.4037,2.5192,2.6251,0.0,0.0,0.0,2.6317,2.4492,2.2463,0.0,1.9311,0.0,1.7945,1.7906,1.8519,2.0105,2.3314,2.5509,2.6228,2.7474,2.8901,3.0438,3.0464,3.0975,3.2009,3.2193,3.267,3.3478,3.3371,3.3874,3.4885,3.4661,3.4679,3.4907,3.4907,3.4907,3.4908,3.5062,3.5105,3.5104,3.525,3.5159,3.4952,3.4952,3.4813,3.4633,3.4595,3.4614,3.469,3.5021,3.4913,3.4642,3.4642,3.4683,3.4708,3.4681,3.4555,3.4115,3.2664,3.1883,3.1149,2.9729,2.9053,2.8667,2.8449,2.8112,2.769,2.7274,2.7578,2.771,2.708,2.7348,2.75,2.7126,2.7238,2.7378,2.7378,2.7842,2.8237,2.8385,2.8742,2.9025,2.9203,2.9344,2.9318,2.9128,2.9014,2.8893,2.8757,2.8746,2.8749,2.8749,2.8896,2.8994,2.8994,2.8994,2.9076,2.9225,2.9225,2.9353,2.4626,2.5136,2.5097,2.5097,2.5034,2.4756,2.3953,2.3668,2.3222,2.2001,2.228,2.2645,2.2503,2.4107,2.5055,2.3776,0.0,2.4872,2.2718,2.1776,1.985,1.6041,1.4923,1.4079,1.3102,1.2997,1.4073,1.6677,1.9888,2.2566,2.4522,2.5951,2.7139,2.8105,2.8259,2.8391,2.8518,2.8721,2.9644,3.1263,3.1029,3.2009,3.402,3.3567,3.3605,3.4047,3.4047,3.4047,3.4047,3.4087,3.4182,3.4286,3.4325,3.4167,3.392,3.392,3.3642,3.3275,3.3085,3.2976,3.3049,3.396,3.3771,3.3194,3.3194,3.3372,3.3623,3.3623,3.3582,3.3315,3.2274,3.1164,3.0078,2.9115,2.8256,2.7692,2.771,2.7265,2.6715,2.6244,2.6926,2.716,2.5938,2.6438,2.679,2.6104,2.634,2.6624,2.6691,2.7356,2.7936,2.8219,2.8298,2.848,2.8815,2.8848,2.87,2.8368,2.8333,2.8201,2.7926,2.8228,2.8385,2.8385,2.8806,2.8994,2.8994,2.8994,2.8994,2.8994,2.8994,2.9125,2.4855,2.4863,2.4552,2.4552,2.4123,2.3309,2.1813,2.0932,0.0,2.0099,2.0003,2.0266,2.1127,2.2685,2.2814,1.9768,1.9325,1.8277,1.5106,1.2737,1.0986,0.0,0.9529,0.8991,0.8795,0.873,0.0,0.9496,1.105,1.4585,2.0376,2.2545,2.4413,2.6199,2.7016,2.7795,2.8467,2.8557,2.8725,2.9042,2.9009,2.9214,2.96,2.9499,2.9508,2.9608,2.9592,2.96,2.9625,2.9866,3.0582,3.1612,3.1826,3.2535,3.3425,3.3425,3.3364,3.3131,3.2038,3.1254,3.1046,3.2885,3.3076,3.2569,3.2569,3.2116,3.1604,3.1604,3.1437,3.1086,3.0201,2.9453,2.8767,2.8362,2.7407,2.6608,2.6719,2.6104,2.5496,2.5422,2.5541,2.5587,2.5341,2.5454,2.5656,2.5969,2.6077,2.6262,2.6657,2.7115,2.7418,2.7491,2.7794,2.8001,2.8093,2.8093,2.8056,2.8001,2.8001,2.7973,2.7888,2.8228,2.8385,2.8385,2.8806,2.8994,2.8994,2.8994,2.8994,2.8994,2.8994,2.903,2.4233,2.4191,2.3922,2.3587,2.2791,2.185,2.0988,0.0,0.0,1.9602,1.9574,1.9856,2.0928,2.2147,2.2481,2.0813,1.9004,1.7032,1.493,1.1253,0.0,0.5692,0.5618,0.5359,0.4418,0.5157,0.6342,0.7925,0.863,1.1024,1.5775,1.8663,2.0572,2.1524,2.2024,2.2689,2.3632,2.3687,2.4343,2.5761,2.5988,2.6714,2.7819,2.8039,2.8265,2.8494,2.8518,2.8518,2.851,2.8658,2.8796,2.9008,2.9123,2.9406,2.9724,2.9287,2.9574,2.9962,2.8862,2.8552,2.8798,2.9784,3.0187,3.0319,3.0704,3.0679,3.0448,3.0055,2.9872,2.9584,2.8832,2.769,2.6749,2.6623,2.5893,2.5227,2.5386,2.5279,2.502,2.4471,2.4537,2.4498,2.3971,2.4069,2.4211,2.4178,2.4689,2.5239,2.5765,2.6283,2.6798,2.7264,2.747,2.7678,2.7869,2.7897,2.7803,2.7598,2.7598,2.75,2.7295,2.7833,2.8129,2.8129,2.87,2.8994,2.8994,2.8994,2.8994,2.8994,2.8994,2.8994,2.34,2.3234,2.2913,2.2426,2.119,2.0106,2.0016,1.9157,0.0,1.9116,1.9434,2.0012,2.1084,2.2267,2.2423,2.0579,1.8294,1.5828,1.3264,0.9432,0.5476,0.0,0.2001,0.0,0.0,0.1108,0.2928,0.528,0.6054,0.81,1.197,1.4525,1.5989,1.6369,1.6649,1.724,1.8202,1.8674,1.9929,2.202,2.2412,2.3494,2.52,2.5495,2.5856,2.6202,2.6202,2.6202,2.6202,2.6202,2.6102,2.593,2.593,2.6014,2.6035,2.5365,2.5756,2.6535,2.5726,2.594,2.6484,2.6542,2.7153,2.7959,2.8561,2.8869,2.8907,2.8311,2.814,2.8031,2.7438,2.6083,2.479,2.4503,2.4125,2.3815,2.3823,2.4164,2.4197,2.3376,2.346,2.34,2.2606,2.276,2.2842,2.253,2.3363,2.4227,2.4759,2.5414,2.6079,2.6773,2.6952,2.7104,2.7287,2.7317,2.7243,2.7025,2.7025,2.6913,2.6725,2.747,2.7869,2.7774,2.8507,2.8872,2.8872,2.8791,2.8791,2.8872,2.8791,2.8791,2.2798,2.1974,2.114,2.1084,1.931,1.7618,1.7609,0.0,1.6759,1.7443,1.8624,1.9957,2.1393,2.2964,2.1515,1.3711,1.2954,1.0572,0.26,0.1075,0.0065,-0.1912,0.0,0.0,-0.4534,-0.4571,-0.4371,-0.4038,-0.1706,0.2899,1.0115,1.003,1.0509,1.2103,1.3229,1.423,1.5125,1.6914,1.7962,1.8243,1.8268,1.8365,1.8544,1.863,1.863,1.8669,1.8669,1.8669,1.8669,1.8669,1.9894,2.1736,2.1736,2.2985,2.4743,2.4676,2.4764,2.478,2.4247,2.4116,2.4219,2.451,2.5452,2.6504,2.6556,2.6239,2.5821,2.5767,2.5713,2.572,2.5658,2.4664,2.348,2.231,2.2349,2.2507,2.2044,2.2011,2.2004,2.1885,2.1918,2.1918,2.1798,2.1824,2.2023,2.241,2.3127,2.375,2.4219,2.4862,2.5289,2.5387,2.5827,2.5944,2.5499,2.5454,2.5656,2.6104,2.6104,2.6289,2.6691,2.747,2.7716,2.7356,2.8084,2.8455,2.8446,2.8165,2.8165,2.8446,2.8138,2.8156,2.1932,2.1244,2.0271,1.9865,1.8502,1.7327,1.7365,0.0,1.7551,1.9556,1.8321,1.8133,2.2415,2.164,1.943,1.6627,1.2108,0.7802,0.4335,0.0252,-0.2815,-0.4084,-0.422,0.0,0.0,-0.4686,-0.377,-0.3826,-0.2782,-0.0897,0.2109,0.4833,0.6943,0.8318,0.8813,0.9477,1.0437,1.1188,1.1911,1.2455,1.2965,1.3218,1.3292,1.5104,1.5909,1.5913,1.6554,1.711,1.7643,1.6414,1.648,1.7324,1.6722,1.7805,1.9577,1.9078,2.0313,2.2067,2.1375,2.1484,2.1945,2.2041,2.2426,2.3242,2.5163,2.5577,2.5287,2.4844,2.4738,2.4496,2.3532,2.2452,2.1492,2.1239,2.1321,2.1533,2.1649,2.1697,2.1697,2.1697,2.139,2.1161,2.1161,2.0812,2.0644,2.0844,2.1431,2.2076,2.2568,2.3198,2.3563,2.3563,2.4745,2.5411,2.5221,2.5221,2.5297,2.5494,2.5815,2.6077,2.6254,2.7089,2.747,2.7295,2.7823,2.8102,2.8102,2.7982,2.7982,2.8111,2.7973,2.7973,2.0687,2.0318,1.96,1.9127,1.7993,1.7086,0.0,0.0,1.8252,2.1382,1.9666,1.8567,2.1546,1.9988,1.7639,1.579,1.0387,0.5943,0.4681,-0.0125,-0.3969,0.0,0.0,-0.6112,-0.7263,-0.5506,-0.4348,-0.4484,-0.4322,-0.406,-0.4001,-0.023,0.2375,0.3383,0.4305,0.5135,0.579,0.671,0.7528,0.8159,0.8831,0.9093,0.9163,1.1249,1.2181,1.2251,1.3237,1.3874,1.4219,1.3347,1.2998,1.3064,1.2657,1.356,1.5024,1.4407,1.6051,1.8486,1.8101,1.8588,1.9401,1.9657,1.9722,2.0142,2.2418,2.3508,2.3846,2.3348,2.3374,2.3185,2.1534,2.0671,2.0193,1.9907,2.001,2.0314,2.0716,2.0962,2.1135,2.1135,2.0769,2.0503,2.0503,2.0099,1.9805,1.9805,2.0352,2.0917,2.1322,2.1895,2.2257,2.2257,2.3566,2.448,2.448,2.4609,2.4784,2.4942,2.5335,2.5615,2.577,2.6489,2.6812,2.669,2.7225,2.7477,2.7477,2.7521,2.7598,2.7716,2.7598,2.7598,1.9037,1.9037,1.8989,1.8982,1.7653,1.6489,0.0,1.7409,1.8429,2.1958,2.3186,2.2293,1.7969,1.8329,1.6496,0.7914,0.647,0.4937,0.0673,-0.1468,-0.329,0.0,0.0,-0.7268,-0.9069,-0.8484,-0.8053,-0.834,-0.7532,-0.6715,-0.5973,-0.5073,-0.4137,-0.3044,-0.0077,0.1541,0.1541,0.4689,0.623,0.623,0.6228,0.6228,0.6228,0.6304,0.6303,0.6372,0.7202,0.7123,0.6434,0.8177,0.8919,0.9082,1.014,1.1095,1.1954,1.2089,1.2794,1.3825,1.4668,1.5596,1.6569,1.7466,1.772,1.772,1.7782,1.9131,2.0655,2.0655,2.1233,2.151,1.9627,1.9779,1.992,1.8085,1.8172,1.8715,1.8709,1.9307,1.9798,1.9798,1.9798,1.9798,1.9798,1.9805,1.9805,1.9805,2.0352,2.0802,2.0802,2.1342,2.1697,2.1697,2.23,2.2747,2.2747,2.3282,2.3837,2.4382,2.443,2.4664,2.5182,2.5611,2.564,2.5213,2.6069,2.6497,2.6497,2.6665,2.6906,2.7303,2.6906,2.6939,1.687,1.7148,1.7148,1.7148,1.7117,1.713,1.7365,1.9291,2.1488,2.3038,2.4266,2.3723,1.9402,1.6591,1.3032,0.7311,0.3955,0.1145,-0.1394,0.0,0.0,-0.7775,-0.8188,-0.7911,-0.6728,-0.6406,-0.6281,-0.6456,-0.6248,-0.5996,-0.5849,-0.5615,-0.4751,-0.312,-0.2178,-0.1631,-0.1631,0.0,0.0854,0.0854,0.1633,0.1946,0.2022,0.3428,0.4074,0.4144,0.5072,0.5806,0.6149,0.5273,0.5681,0.6871,0.6514,0.7814,0.995,0.9955,1.1096,1.2714,1.3648,1.4238,1.4616,1.5638,1.6005,1.6005,1.6005,1.7687,1.9782,2.044,2.0398,2.0055,1.9649,1.905,1.8534,1.8185,1.7991,1.8064,1.8608,1.888,1.9202,1.9689,1.9805,1.9805,1.9805,1.9805,1.9805,1.9805,2.0003,2.0105,2.0105,2.0283,2.0421,2.0421,2.1022,2.1752,2.2649,2.3238,2.3673,2.3837,2.4191,2.4471,2.4664,2.5142,2.5333,2.5221,2.5839,2.6169,2.6169,2.653,2.6758,2.6873,2.675,2.6783,0.0,1.6258,1.7149,1.7,1.7603,1.7946,1.6809,1.9558,2.213,2.1364,2.1854,2.0809,1.5418,1.2255,0.9036,0.4704,0.1287,-0.1135,-0.1907,0.0,0.0,-0.8587,0.0,-0.7993,-0.6073,-0.5622,-0.5403,-0.5496,-0.5557,-0.5628,-0.5716,-0.5772,-0.5296,-0.4172,-0.3832,-0.3636,-0.367,-0.227,-0.1802,-0.2192,-0.1097,-0.0625,-0.0541,0.0757,0.1568,0.1996,0.2951,0.3552,0.0,0.3529,0.3936,0.4766,0.4905,0.6031,0.7762,0.7836,0.89,1.0484,1.1184,1.1892,1.2639,1.3328,1.3784,1.4163,1.4522,1.63,1.8332,1.89,1.9206,1.9259,1.8908,1.8385,1.7803,1.7503,1.7323,1.7302,1.7792,1.8286,1.8827,1.9313,1.9585,1.9805,1.9805,1.9805,1.9805,1.9805,1.9805,1.9805,1.9805,1.9805,1.9805,1.9805,2.0403,2.1133,2.1941,2.2529,2.2883,2.2883,2.3448,2.3756,2.3756,2.43,2.4592,2.4592,2.5136,2.5494,2.5689,2.6358,2.6615,2.6444,2.6624,2.6691,0.0,1.6184,1.8479,1.804,1.8805,1.8962,1.6185,1.8822,0.0,1.7805,1.7209,1.5027,0.7725,0.6407,0.4996,0.0673,-0.1223,-0.1964,-0.14,-0.4296,0.0,0.0,-0.8153,-0.776,-0.6785,-0.5945,-0.5493,-0.5428,-0.5493,-0.5574,-0.5574,-0.57,-0.5774,-0.5786,-0.503,-0.4623,-0.474,-0.2802,-0.2258,-0.3186,-0.2102,-0.1618,-0.1657,-0.1579,-0.0965,-0.0073,0.0846,0.0768,0.021,0.2709,0.3347,0.2885,0.4685,0.5508,0.5623,0.5898,0.6596,0.7446,0.7698,0.9047,1.0637,1.0783,1.1468,1.2445,1.3313,1.4887,1.6385,1.6502,1.7726,1.8737,1.7642,1.7584,1.7554,1.6389,1.63,1.6472,1.6498,1.7633,1.8661,1.8715,1.9313,1.9805,1.9805,1.9805,1.9805,1.9805,1.9805,1.9805,1.9805,1.9805,1.9805,1.9805,2.0352,2.0746,2.0746,2.1342,2.1697,2.1697,2.2346,2.2701,2.2701,2.3282,2.3602,2.3602,2.4116,2.4664,2.5221,2.6123,2.6367,2.5961,2.6401,2.6581,1.4175,0.0,1.7378,1.728,1.8493,1.9721,0.0,2.1555,2.2172,1.8408,1.8247,1.6254,0.7927,0.6407,0.4996,0.0673,-0.1223,-0.2408,-0.3067,0.0,0.0,-0.9876,-0.9917,-0.9087,-0.6911,-0.6527,-0.6139,-0.5427,-0.5461,-0.5416,-0.5416,-0.5445,-0.5518,-0.5635,-0.546,-0.5399,-0.5536,-0.421,-0.3696,-0.3915,-0.2219,-0.177,-0.2416,-0.1008,-0.0569,-0.0916,-0.0069,0.0204,0.0068,0.0675,0.161,0.2746,0.3236,0.4315,0.5599,0.5667,0.5978,0.6476,0.7253,0.7955,0.8761,1.0335,1.1468,1.2375,1.2592,1.3455,1.453,1.5301,1.586,1.6253,1.6665,1.6606,1.6388,1.6539,1.6353,1.6222,1.6452,1.7196,1.801,1.8608,1.9313,1.9805,1.9805,1.9805,1.9805,1.9805,1.9805,1.9805,1.9805,1.9805,1.9805,1.9805,1.9952,2.0055,2.0055,2.1044,2.1697,2.1697,2.2346,2.2701,2.2701,2.3282,2.3602,2.3602,2.4116,2.4664,2.5221,2.5441,2.5486,2.5373,2.5478,2.5553,1.517,1.5976,1.7034,1.7733,1.8912,1.9891,1.9686,2.0346,1.9395,0.0,0.0,1.1069,0.3398,0.1994,0.1105,-0.1546,-0.3771,-0.5259,0.0,0.0,-0.9395,-0.9367,-0.9351,-0.8974,-0.7957,-0.7177,-0.6525,-0.6011,-0.5622,-0.5428,-0.5428,-0.5428,-0.5399,-0.5482,-0.5484,-0.5586,-0.58,-0.4716,-0.4428,-0.4934,-0.3337,-0.2885,-0.335,-0.197,-0.132,-0.1233,-0.0406,0.0,0.0,0.0404,0.1141,0.2076,0.2543,0.3581,0.4872,0.4934,0.5332,0.5918,0.6565,0.7248,0.8069,0.954,1.0392,1.0815,1.0692,1.1075,1.1877,1.3811,1.464,1.5083,1.5457,1.5464,1.5514,1.5834,1.5835,1.5817,1.5972,1.6585,1.7196,1.7627,1.828,1.8768,1.8768,1.8768,1.8933,1.9254,1.9313,1.9423,1.9747,1.9805,1.9805,1.9805,1.9805,1.9805,1.9805,2.0421,2.0848,2.0848,2.1452,2.1846,2.1846,2.243,2.2741,2.2741,2.3251,2.3681,2.4062,2.4522,2.4768,2.4824,2.5105,2.5221,1.6444,1.6354,1.658,1.8466,1.9476,1.9599,1.7973,0.0,0.0,0.0,0.0,0.0,-0.2022,-0.301,0.0,-0.4154,-0.6382,-0.8029,-0.8291,-0.8323,-0.8346,-0.842,-0.8415,-0.8611,-0.9271,-0.7962,-0.7046,-0.6913,-0.6075,-0.5622,-0.5622,-0.5493,-0.5428,-0.5428,-0.5428,-0.5481,-0.573,-0.4805,-0.4805,-0.5733,-0.466,-0.4254,-0.4369,-0.3329,-0.2397,-0.1474,-0.0605,-0.0135,0.0067,0.0806,0.1207,0.1407,0.2142,0.3078,0.4027,0.4125,0.4799,0.5628,0.5901,0.6746,0.7817,0.8604,0.8904,0.9013,0.8884,0.8824,0.9346,1.1992,1.3332,1.3978,1.4094,1.4311,1.4631,1.4822,1.5042,1.519,1.5366,1.5853,1.6358,1.6487,1.709,1.7578,1.7578,1.7578,1.7792,1.8442,1.8549,1.8768,1.9365,1.9469,1.9469,1.9469,1.9579,1.9637,1.9637,1.9753,1.9805,1.9805,2.0446,2.0845,2.093,2.1431,2.1697,2.1697,2.214,2.2429,2.2543,2.3531,2.4043,2.4135,2.4697,2.495,1.7782,1.571,1.4365,1.7745,1.8931,1.8824,1.709,0.0,0.0,0.0,0.0,0.0,0.0,-0.2207,-0.205,0.0,0.0,-0.6069,-0.9045,-0.8958,-0.898,-1.01,-1.0171,-0.9974,-0.9335,-0.9075,-0.8613,-0.7829,-0.6981,-0.6525,-0.6525,-0.5817,-0.5428,-0.5428,-0.5428,-0.5449,-0.5428,-0.5292,-0.5292,-0.5428,-0.4474,-0.4466,-0.5192,-0.3502,-0.2621,-0.241,-0.1474,-0.0672,0.0,0.0135,0.0605,0.1341,0.1474,0.2543,0.4018,0.4034,0.472,0.5613,0.5778,0.6491,0.7364,0.7548,0.8172,0.8871,0.8837,0.8824,0.9002,0.9947,1.0529,1.1175,1.271,1.3134,1.3479,1.4635,1.4382,1.418,1.5185,1.5414,1.5673,1.6363,1.709,1.7578,1.7578,1.7578,1.7627,1.7737,1.7792,1.7792,1.7901,1.7955,1.7955,1.7955,1.8501,1.888,1.888,1.9423,1.9805,1.9805,2.0446,2.1028,2.152,2.1656,2.1697,2.1697,2.1777,2.1824,2.1852,2.2599,2.2935,2.3002,2.3572,2.3837,1.8121,1.6894,1.5812,1.6061,1.4383,1.2176,1.0285,0.0,0.0,0.0,0.0,0.0,0.0,0.0,-0.4368,-0.7352,-0.7186,-0.7397,-0.9266,-0.9237,-0.927,-0.9844,-0.9916,-0.9916,-0.998,-0.9591,-0.8941,-0.8089,-0.7177,-0.6525,-0.6009,-0.5622,-0.5428,-0.5428,-0.5428,-0.5428,-0.5428,-0.5428,-0.5428,-0.5428,-0.4956,-0.4957,-0.536,-0.4015,-0.3413,-0.3346,-0.1942,-0.1073,-0.0672,-0.0202,0.0269,0.0605,0.0605,0.1409,0.2677,0.3613,0.4703,0.5599,0.5664,0.6017,0.6493,0.6407,0.6724,0.7051,0.7014,0.6982,0.7234,0.8411,0.9287,1.0135,1.1317,1.1988,1.2447,1.3098,1.3244,1.3449,1.4005,1.4063,1.4287,1.5075,1.553,1.5871,1.6353,1.641,1.6523,1.6922,1.7034,1.7141,1.7523,1.7578,1.7737,1.8172,1.8501,1.8874,1.9254,1.9585,1.9805,1.9805,2.0099,2.039,2.0657,2.0657,2.0657,2.0657,2.0657,2.0855,2.1203,2.15,2.2035,2.2701,2.2965,2.329,1.8422,1.7523,1.6199,1.4009,0.0,0.0,0.0,0.0,0.0,0.0,0.0,0.0,0.0,-0.5657,0.0,-0.9161,-0.8936,-0.8629,-0.9141,-0.934,-0.9504,-0.9591,-0.9402,-0.953,-1.0238,-0.9524,-0.8745,-0.8027,-0.7177,-0.6396,-0.5752,-0.5493,-0.5428,-0.5428,-0.5428,-0.5428,-0.5428,-0.5428,-0.5428,-0.5428,-0.5428,-0.5428,-0.536,-0.4686,-0.4217,-0.3882,-0.2343,-0.1474,-0.1207,-0.0336,0.0,0.0,0.0,0.0672,0.1808,0.3412,0.4684,0.5537,0.5537,0.5608,0.5679,0.5572,0.5537,0.5515,0.5463,0.5428,0.5752,0.7507,0.8614,0.9512,1.0356,1.1045,1.1593,1.1772,1.2147,1.252,1.2948,1.2822,1.3,1.4025,1.4209,1.4451,1.523,1.541,1.558,1.6151,1.626,1.6425,1.7018,1.7074,1.7291,1.789,1.8058,1.8495,1.9202,1.9254,1.9254,1.9254,1.9585,1.9805,1.9805,1.9805,1.9805,1.9805,1.9805,2.0048,2.0553,2.0703,2.1321,2.2275,2.2406,2.2823,1.9189,1.5931,1.245,1.1773,1.1897,0.0,0.4407,0.2931,0.0,-0.2357,0.0,0.0,0.0,-0.6503,-0.7121,-0.607,-0.6948,-0.7954,-0.8591,-0.9259,-0.9897,-1.0425,-0.9789,-0.9335,-0.9399,-0.8616,-0.8091,-0.8027,-0.7177,-0.6654,-0.659,-0.5815,-0.5428,-0.5428,-0.5428,-0.5428,-0.5428,-0.5428,-0.5428,-0.5428,-0.5428,-0.5428,-0.5428,-0.5359,-0.4821,-0.3947,-0.3011,-0.2076,-0.1207,-0.0336,0.0,0.0,0.0,0.1075,0.2744,0.3681,0.4626,0.5444,0.5444,0.5451,0.5458,0.5447,0.5444,0.5442,0.5432,0.5428,0.5752,0.7507,0.8037,0.8503,1.0171,1.0621,1.0863,1.1652,1.1288,1.1174,1.2704,1.2385,1.2381,1.3906,1.4209,1.4451,1.523,1.541,1.541,1.5463,1.5468,1.5526,1.5522,1.558,1.558,1.5633,1.6255,1.6984,1.7688,1.7737,1.7737,1.7737,1.9038,1.9805,1.9805,1.9805,1.9805,1.9805,1.9805,1.9798,1.985,2.0503,2.0845,2.0944,2.1534,2.2146,1.7954,1.5155,1.2195,1.0251,0.8303,0.0,0.0,-0.0727,-0.2015,-0.3624,-0.3766,-0.3821,-0.4632,0.0,-0.6786,-0.6253,-0.6637,-0.7403,-0.8477,-0.8847,-0.9414,-1.0488,-0.9853,-0.9274,-0.9274,-0.8484,-0.7765,-0.7242,-0.6915,-0.6459,-0.5945,-0.5556,-0.5428,-0.5428,-0.5428,-0.5428,-0.5428,-0.5428,-0.5428,-0.5428,-0.5428,-0.5428,-0.5428,-0.5428,-0.4889,-0.3947,-0.3078,-0.2142,-0.1207,-0.0336,0.0,0.0,0.0,0.1075,0.2744,0.3078,0.415,0.5428,0.5428,0.5428,0.5428,0.5428,0.5428,0.5428,0.5428,0.5428,0.5752,0.7507,0.8027,0.8415,1.0168,1.0624,1.0684,1.0986,1.0804,1.0744,1.1358,1.1655,1.2139,1.3243,1.385,1.4451,1.523,1.541,1.541,1.541,1.541,1.541,1.541,1.541,1.5584,1.6036,1.6754,1.7307,1.7578,1.7578,1.7578,1.7578,1.8118,1.8661,1.9097,1.9097,1.9313,1.9805,1.9805,1.9805,1.9805,2.0048,2.0403,2.0802,2.1022,2.1493,1.6209,1.3754,1.0962,0.8338,0.0,0.0,-0.0704,-0.2617,-0.384,-0.4576,-0.4599,-0.4436,-0.4436,-0.5429,-0.6202,-0.5989,-0.6315,-0.6884,-0.767,-0.8022,-0.8585,-0.959,-0.8951,-0.8484,-0.8484,-0.7705,-0.6922,-0.6334,-0.6268,-0.6011,-0.5427,-0.5428,-0.5428,-0.5428,-0.5428,-0.5428,-0.5428,-0.5428,-0.5428,-0.5428,-0.5428,-0.5428,-0.5428,-0.5428,-0.5025,-0.4417,-0.348,-0.2611,-0.1675,-0.0806,-0.0269,0.0,0.0,0.1075,0.2678,0.2678,0.3816,0.5428,0.5428,0.5428,0.5428,0.5428,0.5428,0.5428,0.5428,0.5428,0.5752,0.7507,0.8027,0.8415,1.0168,1.0624,1.0624,1.0624,1.0624,1.0624,1.0624,1.1045,1.1652,1.2451,1.3057,1.3721,1.4506,1.4869,1.4991,1.4991,1.523,1.541,1.541,1.541,1.558,1.6093,1.658,1.6912,1.6912,1.6912,1.6912,1.6912,1.7135,1.7688,1.8661,1.8715,1.9044,1.9805,1.9805,1.9805,1.9805,1.9805,2.0055,2.0497,2.0497,2.0832,1.413,1.1492,0.8206,0.5898,0.0,0.0,-0.0392,-0.1791,-0.2838,-0.5042,-0.4948,-0.4517,-0.4517,-0.5058,-0.5271,-0.4625,-0.5662,-0.6447,-0.6041,-0.6747,-0.7368,-0.7647,-0.7111,-0.6717,-0.6717,-0.5879,-0.5428,-0.5428,-0.5428,-0.5428,-0.5428,-0.5428,-0.5428,-0.5428,-0.5428,-0.5428,-0.5428,-0.5428,-0.5428,-0.5428,-0.5428,-0.5428,-0.5428,-0.5428,-0.5428,-0.536,-0.4418,-0.348,-0.2611,-0.1674,-0.0806,0.0,0.0,0.1075,0.2678,0.2678,0.3816,0.536,0.5428,0.5428,0.5428,0.5428,0.5428,0.5428,0.5428,0.5428,0.5752,0.7507,0.8027,0.8415,1.0168,1.0624,1.0624,1.0624,1.0624,1.0624,1.0624,1.0624,1.0867,1.1652,1.1834,1.2077,1.2883,1.367,1.4213,1.4213,1.4869,1.541,1.541,1.541,1.541,1.541,1.541,1.541,1.541,1.541,1.541,1.541,1.6093,1.7141,1.8608,1.8715,1.9044,1.9805,1.9805,1.9805,1.9805,1.9805,1.9805,1.9805,1.9805,2.015,1.3245,0.9894,0.0,0.5529,0.0,0.0,0.0,-0.1411,0.0,-0.433,-0.4625,-0.4517,-0.4517,-0.4679,-0.4734,-0.4517,-0.4846,-0.5341,-0.5912,-0.6211,-0.6672,-0.7488,-0.6908,-0.6466,-0.6466,-0.5814,-0.5428,-0.5428,-0.5428,-0.5428,-0.5428,-0.5428,-0.5428,-0.5428,-0.5428,-0.5428,-0.5428,-0.5428,-0.5428,-0.5428,-0.5428,-0.5428,-0.5428,-0.5428,-0.5024,-0.4417,-0.415,-0.348,-0.2611,-0.1674,-0.0806,0.0,0.0,0.0672,0.1808,0.2477,0.3412,0.4485,0.516,0.5428,0.5428,0.5428,0.5428,0.5428,0.5428,0.5428,0.5752,0.7507,0.8027,0.8415,1.0168,1.0624,1.0624,1.0624,1.0624,1.0624,1.0624,1.1045,1.1527,1.1768,1.2266,1.27,1.2948,1.3187,1.3368,1.3368,1.403,1.4751,1.5352,1.541,1.541,1.541,1.541,1.541,1.541,1.541,1.541,1.541,1.5584,1.6415,1.7852,1.8442,1.9044,1.9805,1.9805,1.9805,1.9805,1.9805,1.9805,1.9805,1.9805,1.9901,0.9788,0.6828,0.0,0.2744,0.0744,-0.1157,-0.2372,0.0,0.0,0.0,-0.4517,-0.4517,-0.4517,-0.4517,-0.4517,-0.4517,-0.4517,-0.4712,-0.5305,-0.5437,-0.5696,-0.6334,-0.6044,-0.5814,-0.5878,-0.5533,-0.5296,-0.5423,-0.5428,-0.5428,-0.5428,-0.5428,-0.5428,-0.5428,-0.5428,-0.5428,-0.5428,-0.5428,-0.5428,-0.5428,-0.5428,-0.5428,-0.5428,-0.5428,-0.509,-0.4485,-0.3814,-0.3211,-0.2611,-0.1342,-0.0471,0.0,0.0,0.0538,0.1341,0.1942,0.2945,0.4082,0.4619,0.509,0.5428,0.5428,0.5428,0.5428,0.5428,0.5428,0.5752,0.7507,0.8027,0.8415,1.0168,1.0364,1.0171,1.0498,1.0624,1.0624,1.0624,1.0986,1.1351,1.1351,1.1721,1.2031,1.2031,1.2332,1.2512,1.2512,1.3481,1.4506,1.5294,1.541,1.541,1.541,1.541,1.541,1.541,1.541,1.541,1.541,1.5695,1.6255,1.7141,1.7846,1.8608,1.9365,1.9637,1.9805,1.9805,1.9805,1.9805,1.9805,1.9805,1.9805,0.5435,0.3289,0.1197,-0.1067,-0.1221,0.0,-0.3941,-0.4517,-0.4517,-0.4517,-0.4517,-0.4517,-0.4517,-0.4517,-0.4517,-0.4517,-0.4517,-0.4517,-0.4517,-0.4582,-0.467,-0.467,-0.4804,-0.4953,-0.5098,-0.5123,-0.5194,-0.5415,-0.5428,-0.5428,-0.5428,-0.5428,-0.5428,-0.5428,-0.5428,-0.5428,-0.5428,-0.5428,-0.5428,-0.5428,-0.5428,-0.5428,-0.5428,-0.5428,-0.5428,-0.5294,-0.3548,-0.2744,-0.2543,-0.0807,-0.0067,0.0,0.0,0.0471,0.1207,0.1341,0.2476,0.3882,0.4083,0.4687,0.5428,0.5428,0.5428,0.5428,0.5428,0.5428,0.5754,0.744,0.7959,0.835,0.997,0.9849,0.953,1.0301,1.0495,1.0495,1.0561,1.0624,1.0624,1.0624,1.0624,1.0624,1.0624,1.123,1.1772,1.1892,1.317,1.4392,1.5294,1.541,1.541,1.541,1.541,1.541,1.541,1.541,1.541,1.541,1.6036,1.6374,1.6374,1.7196,1.7901,1.8608,1.9254,1.9585,1.9585,1.9585,1.9637,1.9689,1.9689,1.9753,0.754,0.4091,0.0,0.0,-0.1831,-0.3467,-0.4336,-0.4517,-0.4517,-0.4517,-0.4517,-0.4517,-0.4517,-0.4517,-0.4517,-0.4517,-0.4517,-0.4517,-0.4517,-0.4546,-0.4567,-0.4567,-0.4646,-0.4799,-0.4948,-0.5065,-0.5194,-0.5415,-0.5428,-0.5428,-0.5428,-0.5428,-0.5428,-0.5428,-0.5428,-0.5428,-0.5428,-0.5428,-0.5428,-0.5428,-0.5428,-0.5428,-0.5428,-0.5428,-0.5428,-0.536,-0.4217,-0.3346,-0.2611,-0.1474,-0.0605,0.0,0.0,0.0135,0.0471,0.1876,0.2677,0.3211,0.4621,0.5226,0.5428,0.5428,0.5428,0.5428,0.5428,0.5428,0.5624,0.6656,0.7502,0.8091,0.8479,0.8941,0.9338,0.953,0.9594,0.9789,1.0431,1.0624,1.0624,1.0624,1.0624,1.0624,1.0624,1.0744,1.1292,1.2573,1.3065,1.379,1.523,1.541,1.541,1.541,1.541,1.541,1.541,1.541,1.541,1.541,1.5526,1.5637,1.5637,1.6912,1.7682,1.7846,1.8004,1.8064,1.8064,1.8064,1.8388,1.8933,1.8933,1.9254,0.5914,0.0,0.0,-0.116,0.0,-0.4187,-0.4411,-0.4517,-0.4517,-0.4517,-0.4517,-0.4517,-0.4517,-0.4517,-0.4517,-0.4517,-0.4517,-0.4517,-0.4517,-0.4517,-0.4517,-0.4517,-0.4589,-0.4641,-0.4794,-0.4942,-0.5091,-0.5238,-0.532,-0.5428,-0.5428,-0.5428,-0.5428,-0.5428,-0.5428,-0.5428,-0.5428,-0.5428,-0.5428,-0.5428,-0.5428,-0.5428,-0.5428,-0.5428,-0.5428,-0.536,-0.4418,-0.348,-0.2608,-0.1718,-0.0791,0.0,0.0,0.0,0.013,0.1048,0.197,0.2826,0.3797,0.4687,0.5428,0.5428,0.5428,0.5428,0.5428,0.5428,0.5556,0.6461,0.7044,0.7502,0.7897,0.8024,0.8156,0.8552,0.9008,0.953,1.0431,1.0624,1.0624,1.0624,1.0624,1.0624,1.0624,1.0624,1.1052,1.227,1.2451,1.2875,1.4085,1.4268,1.4268,1.4268,1.4268,1.4392,1.4805,1.4815,1.4991,1.5352,1.541,1.541,1.541,1.6135,1.6687,1.709,1.7413,1.7578,1.7578,1.7578,1.7797,1.8172,1.8172,1.8555,0.392,0.0,-0.0686,-0.2762,-0.3723,0.0,-0.4429,-0.4517,-0.4517,-0.4517,-0.4517,-0.4517,-0.4517,-0.4517,-0.4517,-0.4517,-0.4517,-0.4517,-0.4517,-0.4517,-0.4517,-0.4517,-0.4517,-0.4579,-0.4677,-0.483,-0.4977,-0.512,-0.5274,-0.5428,-0.5428,-0.5428,-0.5428,-0.5428,-0.5428,-0.5428,-0.5428,-0.5428,-0.5428,-0.5428,-0.5226,-0.5226,-0.536,-0.509,-0.5092,-0.536,-0.4418,-0.3604,-0.2785,-0.1754,-0.0835,-0.0192,-0.0062,0.0,0.0,0.019,0.1277,0.2685,0.2698,0.3788,0.5124,0.4948,0.5024,0.5158,0.5158,0.5292,0.5556,0.6266,0.659,0.685,0.7374,0.7114,0.685,0.7632,0.842,0.9332,1.0171,1.0495,1.0624,1.0624,1.0624,1.0624,1.0624,1.0624,1.0863,1.171,1.183,1.2077,1.2883,1.3009,1.3009,1.3009,1.3009,1.3252,1.397,1.4149,1.451,1.5167,1.5294,1.541,1.541,1.541,1.5695,1.6322,1.6917,1.7241,1.7241,1.7241,1.7302,1.7413,1.7413,1.7841,0.6064,0.0,-0.142,0.0,-0.4032,-0.4232,0.0,0.0,-0.4517,-0.4517,-0.4517,-0.4517,-0.4517,-0.4517,-0.4517,-0.4517,-0.4517,-0.4517,-0.4517,-0.4517,-0.4517,-0.4517,-0.4517,-0.4579,-0.4677,-0.483,-0.4977,-0.512,-0.5274,-0.5428,-0.5428,-0.5428,-0.5428,-0.5428,-0.5428,-0.5428,-0.5428,-0.5428,-0.5428,-0.5362,-0.4553,-0.4621,-0.536,-0.3748,-0.3949,-0.536,-0.4418,-0.3893,-0.3543,-0.1931,-0.1142,-0.0867,-0.0247,0.0,0.0062,0.0867,0.1732,0.2546,0.2682,0.3287,0.3883,0.3253,0.3547,0.4216,0.4216,0.4755,0.5427,0.5557,0.6139,0.6525,0.5881,0.6203,0.6717,0.685,0.757,0.8417,0.9268,1.0044,1.0624,1.0624,1.0624,1.0624,1.0624,1.0624,1.0863,1.171,1.183,1.2077,1.2883,1.3009,1.3009,1.3009,1.3009,1.307,1.3126,1.379,1.4273,1.4328,1.4986,1.541,1.541,1.541,1.5468,1.5522,1.5633,1.569,1.569,1.569,1.6031,1.6652,1.6652,1.7274,0.3482,0.0699,-0.1673,0.0,-0.426,-0.4385,-0.4503,-0.4517,-0.4517,-0.4517,-0.4517,-0.4517,-0.4517,-0.4517,-0.4517,-0.4517,-0.4517,-0.4517,-0.4517,-0.4517,-0.4517,-0.4517,-0.4517,-0.4544,-0.4555,-0.4701,-0.4852,-0.4999,-0.5148,-0.5269,-0.5423,-0.5428,-0.5428,-0.5428,-0.4889,-0.4621,-0.4621,-0.415,-0.3881,-0.3881,-0.3479,-0.348,-0.3881,-0.3078,-0.3413,-0.4548,-0.3685,-0.292,-0.237,-0.1613,-0.0972,-0.048,-0.0118,0.0,0.0059,0.0418,0.108,0.1866,0.1923,0.2443,0.3146,0.2785,0.3267,0.3998,0.3996,0.4686,0.5428,0.5428,0.5688,0.5881,0.5491,0.5686,0.5943,0.5943,0.6658,0.7502,0.8353,0.9652,1.0624,1.0624,1.0624,1.0624,1.0624,1.0624,1.0744,1.1045,1.1108,1.123,1.1604,1.1666,1.1666,1.1666,1.1666,1.1849,1.2266,1.2626,1.3235,1.4149,1.4506,1.4932,1.5352,1.541,1.541,1.541,1.541,1.541,1.541,1.541,1.558,1.5864,1.5864,1.6487,0.0,0.0,-0.1261,-0.3147,-0.3915,-0.4237,0.0,-0.4517,-0.4517,-0.4517,-0.4517,-0.4517,-0.4517,-0.4517,-0.4517,-0.4517,-0.4517,-0.4517,-0.4517,-0.4517,-0.4517,-0.4517,-0.4517,-0.4517,-0.4517,-0.4601,-0.4753,-0.4906,-0.5052,-0.5198,-0.5418,-0.516,-0.5025,-0.5025,-0.415,-0.3681,-0.3681,-0.3012,-0.2678,-0.2678,-0.2477,-0.2477,-0.2677,-0.2211,-0.2469,-0.3309,-0.2848,-0.2292,-0.1567,-0.1377,-0.0877,-0.0232,-0.0057,0.0,0.0,0.0,0.0523,0.1224,0.1024,0.1581,0.2259,0.2075,0.2614,0.3349,0.3618,0.4326,0.509,0.5359,0.5428,0.5428,0.5428,0.5428,0.5428,0.5428,0.6207,0.7242,0.8159,0.9521,1.0624,1.0624,1.0624,1.0624,1.0624,1.0624,1.0624,1.0624,1.0624,1.0624,1.0624,1.0624,1.0624,1.0624,1.0624,1.0867,1.1469,1.171,1.2381,1.3786,1.4089,1.4569,1.5357,1.541,1.541,1.541,1.541,1.541,1.541,1.541,1.541,1.541,1.541,1.5811,0.0,0.126,0.0,-0.1671,-0.2765,-0.3566,0.0,-0.4517,-0.4517,-0.4517,-0.4517,-0.4517,-0.4517,-0.4517,-0.4517,-0.4517,-0.4517,-0.4517,-0.4517,-0.4517,-0.4517,-0.4517,-0.4517,-0.4517,-0.4517,-0.4601,-0.4753,-0.4906,-0.5052,-0.5198,-0.5418,-0.4553,-0.4082,-0.4082,-0.3212,-0.2744,-0.2744,-0.2744,-0.2678,-0.2678,-0.1808,-0.1808,-0.2611,-0.0941,-0.0597,-0.1484,-0.2312,-0.2609,-0.2357,-0.1587,-0.1211,-0.0952,-0.028,0.0,0.0,0.0,0.0449,0.1014,0.0292,0.0531,0.1065,0.0367,0.0756,0.1609,0.2506,0.3405,0.4283,0.5158,0.5428,0.5428,0.5428,0.5428,0.5428,0.5428,0.673,0.8156,0.9075,0.998,1.0624,1.0624,1.0624,1.0624,1.0624,1.0624,1.0624,1.0624,1.0624,1.0624,1.0624,1.0624,1.0624,1.0624,1.0624,1.0621,1.0684,1.1347,1.2139,1.3005,1.379,1.4569,1.5357,1.541,1.541,1.541,1.541,1.541,1.541,1.541,1.541,1.541,1.541,1.5428,0.0,0.0,0.0,-0.1073,-0.2423,-0.3456,-0.3678,-0.4125,-0.4517,-0.4517,-0.4517,-0.4517,-0.4517,-0.4517,-0.4517,-0.4517,-0.4517,-0.4517,-0.4517,-0.4517,-0.4517,-0.4517,-0.4517,-0.4517,-0.4517,-0.4115,-0.4125,-0.484,-0.397,-0.3759,-0.4473,-0.3681,-0.3145,-0.3145,-0.2276,-0.1542,-0.0941,-0.0941,-0.0941,-0.0941,-0.0605,-0.0673,-0.0941,-0.0269,-0.0197,-0.0501,-0.0814,-0.0917,-0.088,-0.0575,-0.0453,-0.0392,-0.0112,0.0,0.0,0.0,0.0168,0.0337,0.0114,0.0171,0.0344,0.0059,0.0964,0.214,0.26,0.3616,0.4773,0.5266,0.5428,0.5428,0.5428,0.5428,0.5557,0.6073,0.7116,0.8221,0.9139,0.998,1.0624,1.0624,1.0624,1.0624,1.0624,1.0624,1.0624,1.0624,1.0624,1.0624,1.0624,1.0624,1.0624,1.0624,1.0624,1.0624,1.0624,1.0867,1.1347,1.2201,1.2996,1.3786,1.4628,1.5113,1.541,1.541,1.541,1.541,1.541,1.541,1.541,1.541,1.541,1.5371,0.3947,0.0,0.0,0.0,-0.1332,-0.2449,-0.3176,-0.3735,-0.4182,-0.446,-0.4517,-0.4517,-0.4517,-0.4517,-0.4517,-0.4517,-0.4517,-0.4517,-0.4517,-0.4517,-0.4517,-0.4517,-0.4237,-0.4181,-0.4462,-0.3568,-0.3424,-0.44,-0.3237,-0.2825,-0.3554,-0.273,-0.2076,-0.181,-0.1208,-0.0605,0.0,0.0,0.0,0.0,0.0,0.0,0.0,0.0,0.0,0.0,0.0,0.0,0.0,0.0,0.0,0.0,0.0,0.0,0.0,0.0,0.0,0.0,0.0,0.0,0.0,0.0,0.0757,0.1774,0.2461,0.3408,0.444,0.5122,0.5321,0.5428,0.5428,0.5428,0.5688,0.6852,0.757,0.8221,0.9139,0.998,1.0624,1.0624,1.0624,1.0624,1.0624,1.0624,1.0624,1.0624,1.0624,1.0624,1.0624,1.0624,1.0624,1.0624,1.0624,1.0624,1.0624,1.0624,1.0926,1.1772,1.2577,1.3368,1.4149,1.4986,1.541,1.541,1.541,1.541,1.541,1.541,1.541,1.541,1.541,1.541,0.0,0.0,0.0,0.0,0.0611,-0.0556,-0.2784,-0.3288,-0.351,-0.4294,-0.4462,-0.4517,-0.4517,-0.4517,-0.4517,-0.4517,-0.4517,-0.4517,-0.4517,-0.4517,-0.4517,-0.4517,-0.379,-0.3623,-0.4406,-0.3121,-0.2601,-0.3508,-0.2897,-0.249,-0.2624,-0.1781,-0.0873,0.0,0.0,0.0,0.0,0.0,0.0,0.0,0.0,0.0,0.0,0.0,0.0,0.0,0.0,0.0,0.0,0.0,0.0,0.0,0.0,0.0,0.0,0.0,0.0,0.0,0.0,0.0,0.0,0.0,0.0,0.0353,0.1994,0.2627,0.3069,0.4677,0.5238,0.5423,0.5427,0.5428,0.5818,0.7572,0.7962,0.8221,0.9075,0.9913,1.0495,1.0495,1.0495,1.0558,1.0558,1.0558,1.0561,1.0624,1.0624,1.0624,1.0624,1.0624,1.0624,1.0624,1.0624,1.0624,1.0624,1.0624,1.0923,1.171,1.2512,1.3308,1.4089,1.4869,1.5352,1.5352,1.5352,1.5352,1.5352,1.5415,1.541,1.541,1.541,1.541,0.5894,0.0,0.0,0.0,0.0,0.0,-0.0667,-0.1776,-0.272,-0.3453,-0.4068,-0.4517,-0.4517,-0.4517,-0.4517,-0.4517,-0.4517,-0.4517,-0.4517,-0.4517,-0.4517,-0.4517,-0.4294,-0.4237,-0.4462,-0.3121,-0.2601,-0.3508,-0.1813,-0.0999,-0.1669,-0.086,-0.0269,0.0,0.0,0.0,0.0,0.0,0.0,0.0,0.0,0.0,0.0,0.0,0.0,0.0,0.0,0.0,0.0,0.0,0.0,0.0,0.0,0.0,0.0,0.0,0.0,0.0,0.0,0.0,0.0,0.0,0.0338,0.1025,0.2154,0.2907,0.3579,0.4752,0.516,0.522,0.5333,0.5428,0.5688,0.6787,0.7046,0.7307,0.8156,0.8546,0.874,0.874,0.874,0.8935,0.9527,0.9658,0.9849,1.0495,1.0624,1.0624,1.0624,1.0624,1.0624,1.0624,1.0624,1.0624,1.0624,1.0624,1.0681,1.0926,1.1717,1.2258,1.2439,1.3239,1.367,1.367,1.367,1.3965,1.4506,1.5113,1.541,1.541,1.541,1.541,0.0,0.0,0.0,0.3492,0.0,0.0,-0.0056,-0.1109,-0.2106,-0.3508,-0.4182,-0.4517,-0.4517,-0.4517,-0.4517,-0.4517,-0.4517,-0.4517,-0.4517,-0.4517,-0.4517,-0.4517,-0.4181,-0.4013,-0.4015,-0.262,-0.1969,-0.2523,-0.0961,-0.0251,-0.0721,-0.0267,0.0,0.0,0.0,0.0,0.0,0.0,0.0,0.0,0.0,0.0,0.0,0.0,0.0,0.0,0.0,0.0,0.0,0.0,0.0,0.0,0.0,0.0,0.0,0.0,0.0,0.0,0.0,0.0,0.0,0.0,0.028,0.0842,0.1999,0.2725,0.3366,0.4591,0.5035,0.5165,0.5321,0.5428,0.5622,0.6525,0.6719,0.685,0.7372,0.744,0.7567,0.7962,0.8288,0.8681,0.9207,0.9594,0.998,1.0495,1.0624,1.0624,1.0624,1.0624,1.0624,1.0624,1.0624,1.0624,1.0624,1.0624,1.0624,1.0624,1.1347,1.183,1.183,1.2573,1.3009,1.3009,1.3009,1.3247,1.373,1.451,1.505,1.541,1.541,1.541,0.6437,0.5891,0.0,0.3785,0.3456,0.0,0.0,-0.0665,-0.133,-0.356,-0.4067,-0.4122,-0.4237,-0.4237,-0.4237,-0.4237,-0.4294,-0.4406,-0.4462,-0.4517,-0.4517,-0.4517,-0.3846,-0.3456,-0.3512,-0.212,-0.1231,-0.1236,-0.0479,0.0,0.0,0.0,0.0,0.0,0.0,0.0,0.0,0.0,0.0,0.0,0.0,0.0,0.0,0.0,0.0,0.0,0.0,0.0,0.0,0.0,0.0,0.0,0.0,0.0,0.0,0.0,0.0,0.0,0.0,0.0,0.0,0.0,0.0056,0.0392,0.1786,0.2393,0.2917,0.4333,0.4902,0.5162,0.5299,0.5415,0.5622,0.6398,0.6525,0.6525,0.6525,0.6525,0.6787,0.757,0.8355,0.8944,0.9139,0.9786,1.0364,1.0561,1.0624,1.0624,1.0624,1.0624,1.0624,1.0624,1.0624,1.0624,1.0624,1.0624,1.0624,1.0624,1.1288,1.1652,1.1652,1.2332,1.27,1.27,1.2826,1.2887,1.2883,1.3821,1.4675,1.5381,1.5381,1.543,0.6574,0.6061,0.538,0.4512,0.4293,0.0,0.2725,0.1996,0.1107,-0.0555,-0.1332,-0.1944,-0.2562,-0.2675,-0.2675,-0.2675,-0.3122,-0.3734,-0.4406,-0.4517,-0.4517,-0.4517,-0.4349,-0.4293,-0.4294,-0.2899,-0.1975,-0.197,-0.0741,0.0,0.0,0.0,0.0,0.0,0.0,0.0,0.0,0.0,0.0,0.0,0.0,0.0,0.0,0.0,0.0,0.0,0.0,0.0,0.0,0.0,0.0,0.0,0.0,0.0,0.0,0.0,0.0,0.0,0.0,0.0,0.0,0.0,0.0392,0.1062,0.1953,0.2689,0.3453,0.4423,0.4902,0.5137,0.5167,0.5267,0.5427,0.5622,0.5686,0.5686,0.5686,0.5686,0.5686,0.5883,0.6015,0.6601,0.8029,0.8417,0.9,1.0364,1.0624,1.0624,1.0624,1.0624,1.0624,1.0624,1.0624,1.0624,1.0624,1.0624,1.0624,1.0624,1.0744,1.08,1.08,1.0989,1.1055,1.1055,1.1717,1.2016,1.2016,1.4157,1.5278,1.5383,1.5383,1.5429,0.0,0.5817,0.5382,0.468,0.4517,0.0,0.0,0.2438,0.177,0.0277,-0.0277,-0.0664,-0.1053,-0.1109,-0.1221,-0.1612,-0.2277,-0.289,-0.3288,-0.4013,-0.4517,-0.4517,-0.4517,-0.4182,-0.3456,-0.2675,-0.1881,-0.1138,-0.044,0.0,0.0,0.0,0.0,0.0,0.0,0.0,0.0,0.0,0.0,0.0,0.0,0.0,0.0,0.0,0.0,0.0,0.0,0.0,0.0,0.0,0.0,0.0,0.0,0.0,0.0,0.0,0.0,0.0,0.0,0.0,0.0,0.0,0.0504,0.1229,0.1953,0.301,0.4042,0.453,0.4797,0.4945,0.5091,0.5187,0.5265,0.5343,0.5428,0.5428,0.5428,0.5428,0.5428,0.5428,0.5428,0.5817,0.7114,0.8091,0.8941,0.9849,1.0304,1.0624,1.0624,1.0624,1.0624,1.0624,1.0624,1.0624,1.0624,1.0624,1.0624,1.0624,1.0624,1.0624,1.0624,1.0624,1.0624,1.0624,1.0986,1.123,1.123,1.2406,1.3428,1.4215,1.5055,1.541,0.0,0.0,0.5326,0.4679,0.0,0.4177,0.0,0.0,0.0,0.0939,0.0663,0.0608,0.0442,0.0442,0.0221,-0.0385,-0.1214,-0.1715,-0.16,-0.2995,-0.4125,-0.4237,-0.4406,-0.3958,-0.2564,-0.2188,-0.1445,-0.0123,0.0,0.0,0.0,0.0,0.0,0.0,0.0,0.0,0.0,0.0,0.0,0.0,0.0,0.0,0.0,0.0,0.0,0.0,0.0,0.0,0.0,0.0,0.0,0.0,0.0,0.0,0.0,0.0,0.0,0.0,0.0,0.0,0.0,0.0168,0.0839,0.1675,0.2398,0.3512,0.4544,0.4611,0.4668,0.4752,0.502,0.5109,0.5169,0.5325,0.5428,0.5428,0.5428,0.5428,0.5428,0.5428,0.5428,0.5752,0.6787,0.8091,0.9139,0.953,1.0174,1.0624,1.0624,1.0624,1.0624,1.0624,1.0624,1.0624,1.0624,1.0624,1.0624,1.0624,1.0624,1.0624,1.0624,1.0624,1.0624,1.0624,1.0624,1.0624,1.0624,1.0624,1.1285,1.2541,1.3852,1.4486,0.0,0.0,0.0,0.0,0.4517,0.4462,0.4291,0.0,0.401,0.3116,0.0,0.2727,0.2061,0.0,0.0,0.1662,0.0601,-0.0055,0.048,-0.1201,-0.2676,-0.3345,-0.407,-0.4182,-0.3343,-0.2006,-0.089,-0.0062,0.0,0.0,0.0,0.0,0.0,0.0,0.0,0.0,0.0,0.0,0.0,0.0,0.0,0.0,0.0,0.0,0.0,0.0,0.0,0.0,0.0,0.0,0.0,0.0,0.0,0.0,0.0,0.0,0.0,0.0,0.0,0.0,0.0112,0.0783,0.1953,0.3289,0.4013,0.4349,0.452,0.4539,0.4585,0.473,0.4899,0.5036,0.5169,0.5325,0.5428,0.5428,0.5428,0.5428,0.5428,0.5428,0.5428,0.5949,0.757,0.8027,0.8675,1.0234,1.0561,1.0624,1.0624,1.0624,1.0624,1.0624,1.0624,1.0624,1.0624,1.0624,1.0624,1.0624,1.0624,1.0624,1.0624,1.0624,1.0624,1.0624,1.0624,1.0624,1.0624,1.0624,1.0686,1.0881,1.1049,1.118,0.0,0.0,0.484,0.4572,0.4517,0.4517,0.4517,0.4517,0.4406,0.407,0.0,0.0,0.0,0.0,0.0,0.0,0.1927,0.138,0.1638,0.1652,0.0941,-0.1162,-0.2445,-0.2865,-0.2121,-0.1107,-0.036,0.0,0.0,0.0,0.0,0.0,0.0,0.0,0.0,0.0,0.0,0.0,0.0,0.0,0.0,0.0,0.0,0.0,0.0,0.0,0.0,0.0,0.0,0.0,0.0,0.0,0.0,0.0,0.0,0.0,0.0,0.0,0.0,0.0,0.0168,0.1341,0.2175,0.2954,0.4125,0.4517,0.4517,0.4517,0.4563,0.4613,0.4855,0.4964,0.5067,0.5304,0.5428,0.5428,0.5428,0.5428,0.5428,0.5428,0.5428,0.582,0.7253,0.7772,0.8218,0.9,0.997,1.0624,1.0624,1.0624,1.0624,1.0624,1.0624,1.0624,1.0624,1.0624,1.0624,1.0624,1.0624,1.0624,1.0624,1.0624,1.0624,1.0624,1.0624,1.0624,1.0624,1.0624,1.0594,1.0603,1.0618,1.1589,0.4851,0.4803,0.4642,0.492,0.481,0.4699,0.492,0.4777,0.4582,0.4582,0.4548,0.0,0.0,0.0,0.4281,0.3635,0.0,0.2601,0.2752,0.3381,0.3,0.0608,-0.0665,-0.1068,-0.0576,0.0,0.0298,0.0317,0.0128,0.0,0.0,0.0,0.0,0.0,0.0,0.0,0.0,0.0,0.0,0.0,0.0,0.0,0.0,0.0,0.0,0.0,0.0,0.0,0.0,0.0,0.0,0.0,0.0,0.0,0.0,0.0,0.0,0.0,0.0,0.0112,0.056,0.2008,0.2509,0.2788,0.4127,0.4517,0.4517,0.4517,0.4548,0.4585,0.485,0.4947,0.5043,0.5299,0.5428,0.5428,0.5428,0.5428,0.5428,0.5428,0.5428,0.569,0.6476,0.7256,0.7969,0.8635,0.981,1.0585,1.0628,1.0624,1.0624,1.0624,1.0624,1.0624,1.0624,1.0624,1.0624,1.0624,1.0624,1.0624,1.0624,1.0624,1.0624,1.0624,1.0624,1.0624,1.0624,1.0624,1.0624,1.0624,1.0588,1.1858,0.3674,0.4287,0.5081,0.5908,0.5495,0.5081,0.5967,0.5367,0.4684,0.4684,0.4565,0.4517,0.4517,0.4517,0.4418,0.4224,0.3714,0.0,0.0,0.306,0.1949,0.1165,0.0998,0.0999,0.1,0.1061,0.1093,0.1043,0.0432,0.0,0.0,0.0,0.0,0.0,0.0,0.0,0.0,0.0,0.0,0.0,0.0,0.0,0.0,0.0,0.0,0.0,0.0,0.0,0.0,0.0,0.0,0.0,0.0,0.0,0.0,0.0,0.0,0.0,0.0,0.0448,0.1285,0.2788,0.3288,0.3512,0.4293,0.4517,0.4517,0.4517,0.457,0.4721,0.4879,0.5021,0.5164,0.5325,0.5428,0.5428,0.5428,0.5428,0.5428,0.5428,0.5428,0.5428,0.5428,0.6412,0.7929,1.0149,1.0557,1.0591,1.0571,1.0624,1.0624,1.0624,1.0624,1.0624,1.0624,1.0624,1.0624,1.0624,1.0624,1.0624,1.0624,1.0624,1.0624,1.0624,1.0624,1.0624,1.0624,1.0624,1.0624,1.0621,1.0618,1.0633,0.3241,0.3246,0.3314,0.4227,0.4232,0.4417,0.586,0.5468,0.5018,0.56,0.5207,0.4765,0.4765,0.4682,0.4597,0.455,0.4327,0.4166,0.0,0.3987,0.362,0.3392,0.2891,0.2188,0.1207,0.1096,0.0891,0.038,0.0127,0.0,0.0,0.0,0.0,0.0,0.0,0.0,0.0,0.0,0.0,0.0,0.0,0.0,0.0,0.0,0.0,0.0,0.0,0.0,0.0,0.0,0.0,0.0,0.0,0.0,0.0,0.0,0.0,0.0,0.0,0.0504,0.1285,0.2231,0.2954,0.3512,0.4293,0.4589,0.4613,0.4613,0.4724,0.4875,0.5021,0.5094,0.5169,0.5325,0.5428,0.5428,0.5428,0.5428,0.5428,0.5428,0.5428,0.5428,0.5428,0.569,0.6262,0.7055,0.9154,1.0594,1.0571,1.0624,1.0624,1.0624,1.0624,1.0624,1.0624,1.0624,1.0624,1.0624,1.0624,1.0624,1.0624,1.0624,1.0624,1.0624,1.0624,1.0624,1.0624,1.0624,1.0624,1.0624,1.0577,1.0603,0.2462,0.2466,0.2597,0.3542,0.3481,0.3733,0.5481,0.5138,0.4674,0.5216,0.5127,0.4732,0.4054,0.4412,0.4652,0.4352,0.4511,0.4606,0.0,0.4553,0.4539,0.4538,0.4044,0.3276,0.2045,0.1642,0.1206,0.0449,0.0129,0.0,0.0,0.0,0.0,0.0,0.0,0.0,0.0,0.0,0.0,0.0,0.0,0.0,0.0,0.0,0.0,0.0,0.0,0.0,0.0,0.0,0.0,0.0,0.0,0.0,0.0,0.0,0.0,0.0056,0.028,0.0727,0.1285,0.2286,0.2954,0.352,0.43,0.4611,0.4701,0.4757,0.4879,0.5016,0.5108,0.517,0.5237,0.5338,0.5428,0.5428,0.5428,0.5428,0.5428,0.5428,0.5428,0.5428,0.5428,0.5428,0.5401,0.5383,0.8347,1.0617,1.0575,1.0624,1.0624,1.0624,1.0624,1.0575,1.0601,1.0605,1.0605,1.0605,1.0605,1.0591,1.0624,1.0624,1.0601,1.0631,1.0608,1.0605,1.057,1.0605,1.0624,1.0624,1.0624,1.0624]},{"header":{"parameterUnit":"m.s-1","parameterCategory":1,"la1":30.6,"la2":29.2853,"lo1":-89.7004,"lo2":-87.6739,"dy":0.0162,"dx":0.0183,"nx":112,"ny":82,"refTime":"2023-06-02T12:00:00:Z","depth":0,"parameterNumber":3,"parameterNumberName":"V-component_of_WINDS"},"data":[0.0,0.0,0.0,0.0,0.0,0.0,0.0,0.0,0.0,0.0,0.0,0.0,0.0,0.0,0.0,0.0,0.0,0.0,0.0,0.0,0.0,0.0,0.0,0.0,0.0,0.0,0.0,0.0,0.0,0.0,0.0,0.0,0.0,0.0,0.0,0.0,0.0,0.0,0.0,0.0,0.0,0.0,0.0,0.0,0.0,0.0,0.0,0.0,0.0,0.0,0.0,0.0,0.0,0.0,0.0,0.0,0.0,0.0,0.0,0.0,0.0,0.0,0.0,0.0,0.0,0.0,0.0,0.0,0.0,0.0,0.0,0.0,0.0,0.0,0.0,0.0,0.0,0.0,0.0,0.0,0.0,0.0,0.0,0.0,0.0,0.0,0.0,0.0,0.0,0.0,-1.1355,-1.0519,-0.9447,-0.8808,-0.8808,-0.8099,-0.7993,-0.8752,0.0,0.0,0.0,0.0,0.0,0.0,0.0,0.0,0.0,0.0,0.0,0.0,0.0,0.0,0.0,0.0,0.0,0.0,0.0,0.0,0.0,0.0,0.0,0.0,0.0,0.0,0.0,0.0,0.0,0.0,0.0,0.0,0.0,0.0,0.0,0.0,0.0,0.0,0.0,0.0,0.0,0.0,0.0,0.0,0.0,0.0,0.0,0.0,0.0,0.0,0.0,0.0,0.0,0.0,0.0,0.0,0.0,0.0,0.0,0.0,0.0,0.0,0.0,0.0,0.0,0.0,0.0,0.0,0.0,0.0,0.0,0.0,0.0,0.0,0.0,0.0,0.0,0.0,0.0,0.0,0.0,0.0,0.0,0.0,0.0,0.0,0.0,0.0,0.0,0.0,0.0,0.0,0.0,0.0,0.0,0.0,0.0,0.0,0.0,0.0,0.0,0.0,0.0,0.0,-1.1019,-0.9249,-0.8903,-0.8808,-0.8808,-0.8099,-0.7993,-0.8752,0.0,0.0,0.0,0.0,0.0,0.0,0.0,0.0,0.0,0.0,0.0,0.0,0.0,0.0,0.0,0.0,0.0,0.0,0.0,0.0,0.0,0.0,0.0,0.0,0.0,0.0,0.0,0.0,0.0,0.0,0.0,0.0,0.0,0.0,0.0,0.0,0.0,0.0,0.0,0.0,0.0,0.0,0.0,0.0,0.0,0.0,0.0,0.0,0.0,0.0,0.0,0.0,0.0,0.0,0.0,0.0,0.0,0.0,0.0,0.0,0.0,0.0,0.0,0.0,0.0,0.0,0.0,0.0,0.0,0.0,0.0,0.0,0.0,0.0,0.0,0.0,0.0,0.0,0.0,0.0,0.0,0.0,0.0,0.0,0.0,0.0,0.0,0.0,0.0,0.0,0.0,0.0,0.0,0.0,0.0,0.0,0.0,0.0,0.0,0.0,0.0,0.0,0.0,-1.1032,-1.0195,-0.8959,-0.8808,-0.8643,-0.8262,-0.7506,-0.7399,-0.8159,-0.7812,0.0,0.0,0.0,0.0,0.0,0.0,0.0,0.0,0.0,0.0,0.0,0.0,0.0,0.0,0.0,0.0,0.0,0.0,0.0,0.0,0.0,0.0,0.0,0.0,0.0,0.0,0.0,0.0,0.0,0.0,0.0,0.0,0.0,0.0,0.0,0.0,0.0,0.0,0.0,0.0,0.0,0.0,0.0,0.0,0.0,0.0,0.0,0.0,0.0,0.0,0.0,0.0,0.0,0.0,0.0,0.0,0.0,0.0,0.0,0.0,0.0,0.0,0.0,0.0,0.0,0.0,0.0,0.0,0.0,0.0,0.0,0.0,0.0,0.0,0.0,0.0,0.0,0.0,0.0,0.0,0.0,0.0,0.0,0.0,0.0,0.0,0.0,0.0,0.0,0.0,0.0,0.0,0.0,0.0,0.0,0.0,0.0,0.0,0.0,0.0,0.0,0.0,-0.9766,-0.9364,-0.8857,-0.8643,-0.8318,-0.7723,-0.6853,-0.6745,-0.7667,-0.702,0.0,0.0,0.0,0.0,0.0,0.0,0.0,0.0,0.0,0.0,0.0,0.0,0.0,0.0,0.0,0.0,0.0,0.0,0.0,0.0,0.0,0.0,0.0,0.0,0.0,0.0,0.0,0.0,0.0,0.0,0.0,0.0,0.0,0.0,0.0,0.0,0.0,0.0,0.0,0.0,0.0,0.0,0.0,0.0,0.0,0.0,0.0,0.0,0.0,0.0,0.0,0.0,0.0,0.0,0.0,0.0,0.0,0.0,0.0,0.0,0.0,0.0,0.0,0.0,0.0,0.0,0.0,0.0,0.0,0.0,0.0,0.0,0.0,0.0,0.0,0.0,0.0,0.0,0.0,0.0,0.0,0.0,0.0,0.0,0.0,0.0,0.0,0.0,0.0,0.0,0.0,0.0,0.0,0.0,0.0,0.0,0.0,0.0,0.0,0.0,0.0,0.0,-0.9666,-0.8857,-0.8808,-0.8212,-0.7777,-0.7723,-0.6414,-0.6195,-0.7613,-0.702,0.0,0.0,0.0,0.0,0.0,0.0,0.0,0.0,0.0,0.0,0.0,0.0,0.0,0.0,0.0,0.0,0.0,0.0,0.0,0.0,0.0,0.0,0.0,0.0,0.0,0.0,0.0,0.0,0.0,0.0,0.0,0.0,0.0,0.0,0.0,0.0,0.0,0.0,0.0,0.0,0.0,0.0,0.0,0.0,0.0,0.0,0.0,0.0,0.0,0.0,0.0,0.0,0.0,0.0,0.0,0.0,0.0,0.0,0.0,0.0,0.0,0.0,0.0,0.0,0.0,0.0,0.0,0.0,0.0,0.0,0.0,0.0,0.0,0.0,0.0,0.0,0.0,0.0,0.0,0.0,0.0,0.0,0.0,0.0,0.0,0.0,0.0,0.0,0.0,0.0,0.0,0.0,0.0,0.0,0.0,0.0,0.0,0.0,0.0,0.0,0.0,0.0,-1.0012,-0.9099,-0.8206,-0.7883,-0.7337,-0.6411,-0.5812,-0.5923,-0.6964,0.0,0.0,0.0,0.0,0.0,0.0,0.0,0.0,0.0,0.0,0.0,0.0,0.0,0.0,0.0,0.0,0.0,0.0,0.0,0.0,0.0,0.0,0.0,0.0,0.0,0.0,0.0,0.0,0.0,0.0,0.0,0.0,0.0,0.0,0.0,0.0,0.0,0.0,0.0,0.0,0.0,0.0,0.0,0.0,0.0,0.0,0.0,0.0,0.0,0.0,0.0,0.0,0.0,0.0,0.0,0.0,0.0,0.0,0.0,0.0,0.0,0.0,0.0,0.0,0.0,0.0,0.0,0.0,0.0,0.0,0.0,0.0,0.0,0.0,0.0,0.0,0.0,0.0,0.0,0.0,0.0,0.0,0.0,0.0,0.0,0.0,0.0,0.0,0.0,0.0,0.0,0.0,0.0,0.0,0.0,0.0,0.0,0.0,0.0,0.0,0.0,0.0,-1.0864,-0.9847,-0.8768,-0.7827,-0.7286,-0.6576,-0.5594,-0.5326,-0.5601,-0.6532,0.0,0.0,0.0,0.0,0.0,0.0,0.0,0.0,0.0,0.0,0.0,0.0,0.0,0.0,0.0,0.0,0.0,0.0,0.0,0.0,0.0,0.0,0.0,0.0,0.0,0.0,0.0,0.0,0.0,0.0,0.0,0.0,0.0,0.0,0.0,0.0,0.0,0.0,0.0,0.0,0.0,0.0,0.0,0.0,0.0,0.0,0.0,0.0,0.0,0.0,0.0,0.0,0.0,0.0,0.0,0.0,0.0,0.0,0.0,0.0,0.0,0.0,0.0,0.0,0.0,0.0,0.0,0.0,0.0,0.0,0.0,0.0,0.0,0.0,0.0,0.0,0.0,0.0,0.0,0.0,0.0,0.0,0.0,0.0,0.0,0.0,0.0,0.0,0.0,0.0,0.0,0.0,0.0,0.0,0.0,0.0,0.0,0.0,0.0,0.0,0.0,0.0,-1.0767,-0.896,-0.7723,-0.7667,-0.6357,-0.5485,-0.5485,-0.4895,-0.5119,0.0,0.0,0.0,0.0,0.0,0.0,0.0,0.0,0.0,0.0,0.0,0.0,0.0,0.0,0.0,0.0,0.0,0.0,0.0,0.0,0.0,0.0,0.0,0.0,0.0,0.0,0.0,0.0,0.0,0.0,0.0,0.0,0.0,0.0,0.0,0.0,0.0,0.0,0.0,0.0,0.0,0.0,0.0,0.0,0.0,0.0,0.0,0.0,0.0,0.0,0.0,0.0,0.0,0.0,0.0,0.0,0.0,0.0,0.0,0.0,0.0,0.0,0.0,0.0,0.0,0.0,0.0,0.0,0.0,0.0,0.0,0.0,0.0,0.0,0.0,0.0,0.0,0.0,0.0,0.0,0.0,0.0,0.0,0.0,0.0,0.0,0.0,0.0,0.0,0.0,0.0,0.0,0.0,0.0,0.0,0.0,0.0,0.0,0.0,0.0,0.0,0.0,0.0,-1.0167,-0.8712,-0.7506,-0.6966,-0.6086,-0.5326,-0.4842,-0.4625,-0.4897,-0.5762,0.0,0.0,0.0,0.0,0.0,0.0,0.0,0.0,0.0,0.0,0.0,0.0,0.0,0.0,0.0,0.0,0.0,0.0,0.0,0.0,0.0,0.0,0.0,0.0,0.0,0.0,0.0,0.0,0.0,0.0,0.0,0.0,0.0,0.0,0.0,0.0,0.0,0.0,0.0,0.0,0.0,0.0,0.0,0.0,0.0,0.0,0.0,0.0,0.0,0.0,0.0,0.0,0.0,0.0,0.0,0.0,0.0,0.0,0.0,0.0,0.0,0.0,0.0,0.0,0.0,0.0,0.0,0.0,0.0,0.0,0.0,0.0,0.0,0.0,0.0,0.0,0.0,0.0,0.0,0.0,0.0,0.0,0.0,0.0,0.0,0.0,0.0,0.0,0.0,0.0,0.0,0.0,0.0,0.0,0.0,0.0,0.0,0.0,0.0,0.0,0.0,0.0,-0.9429,-0.785,-0.6632,-0.6202,-0.5546,-0.495,-0.4517,-0.4517,-0.4787,-0.5431,0.0,0.0,0.0,0.0,0.0,0.0,0.0,0.0,0.0,0.0,0.0,0.0,0.0,0.0,0.0,0.0,0.0,0.0,0.0,0.0,0.0,0.0,0.0,0.0,0.0,0.0,0.0,0.0,0.0,0.0,0.0,0.0,0.0,0.0,0.0,0.0,0.0,0.0,0.0,0.0,0.0,0.0,0.0,0.0,0.0,0.0,0.0,0.0,0.0,0.0,0.0,0.0,0.0,0.0,0.0,0.0,0.0,0.0,0.0,0.0,0.0,0.0,0.0,0.0,0.0,0.0,0.0,0.0,0.0,0.0,0.0,0.0,0.0,0.0,0.0,0.0,0.0,0.0,0.0,0.0,0.0,0.0,0.0,0.0,0.0,0.0,0.0,0.0,0.0,0.0,0.0,0.0,0.0,0.0,0.0,0.0,0.0,0.0,0.0,0.0,0.0,0.0,-0.8629,-0.6766,-0.5485,-0.5485,-0.4895,-0.4517,-0.4517,-0.4517,-0.4787,-0.538,0.0,0.0,0.0,0.0,0.0,0.0,0.0,0.0,0.0,0.0,0.0,0.0,0.0,0.0,0.0,0.0,0.0,0.0,0.0,0.0,0.0,0.0,0.0,0.0,0.0,0.0,0.0,0.0,0.0,0.0,0.0,0.0,0.0,0.0,0.0,0.0,0.0,0.0,0.0,0.0,0.0,0.0,0.0,0.0,0.0,0.0,0.0,0.0,0.0,0.0,0.0,0.0,0.0,0.0,0.0,0.0,0.0,0.0,0.0,0.0,-0.8354,-0.9823,0.0,0.0,0.0,0.0,0.0,0.0,0.0,0.0,0.0,0.0,0.0,0.0,0.0,0.0,0.0,0.0,0.0,0.0,0.0,0.0,0.0,0.0,0.0,0.0,0.0,0.0,0.0,0.0,0.0,0.0,0.0,0.0,0.0,0.0,0.0,0.0,0.0,0.0,0.0,0.0,-0.7975,-0.6514,-0.5485,-0.5485,-0.4895,-0.4517,-0.4517,-0.4517,-0.4574,-0.4691,-0.5407,0.0,0.0,0.0,0.0,0.0,0.0,0.0,0.0,0.0,0.0,0.0,0.0,0.0,0.0,0.0,0.0,0.0,0.0,0.0,0.0,0.0,0.0,0.0,0.0,0.0,0.0,0.0,0.0,0.0,0.0,0.0,0.0,0.0,0.0,0.0,0.0,0.0,0.0,0.0,0.0,0.0,0.0,0.0,0.0,0.0,0.0,0.0,0.0,0.0,0.0,0.0,0.0,0.0,0.0,0.0,0.0,0.0,0.0,0.0,-0.7743,-0.8797,0.0,0.0,0.0,0.0,0.0,0.0,0.0,0.0,0.0,0.0,0.0,0.0,0.0,0.0,0.0,0.0,0.0,0.0,0.0,0.0,0.0,0.0,0.0,0.0,0.0,0.0,0.0,0.0,0.0,0.0,0.0,0.0,0.0,0.0,0.0,0.0,0.0,0.0,0.0,0.0,-0.6738,-0.571,-0.5001,-0.5001,-0.4734,-0.4517,-0.4517,-0.4517,-0.4522,-0.4479,-0.4974,0.0,0.0,0.0,0.0,0.0,0.0,0.0,0.0,0.0,0.0,0.0,0.0,0.0,0.0,0.0,0.0,0.0,0.0,0.0,0.0,0.0,0.0,0.0,0.0,0.0,0.0,0.0,0.0,0.0,0.0,0.0,0.0,0.0,0.0,0.0,0.0,0.0,0.0,0.0,0.0,0.0,0.0,0.0,0.0,0.0,0.0,0.0,0.0,0.0,0.0,0.0,0.0,0.0,-0.6904,-0.643,-0.6146,-0.6029,-0.6196,-0.6569,-0.7272,-0.7622,-0.7872,-0.9075,0.0,0.0,0.0,0.0,0.0,0.0,0.0,0.0,0.0,0.0,0.0,0.0,0.0,0.0,0.0,0.0,0.0,0.0,0.0,0.0,0.0,0.0,-0.9451,-0.8856,-0.8531,-0.8462,-0.9016,0.0,0.0,0.0,0.0,0.0,0.0,0.0,0.0,0.0,0.0,0.0,-0.5599,-0.4895,-0.4517,-0.4517,-0.4519,-0.4519,-0.4517,-0.4519,-0.4525,-0.448,-0.4254,-0.3407,0.0,0.0,0.0,0.0,0.0,0.0,0.0,0.0,0.0,0.0,0.0,0.0,0.0,0.0,0.0,0.0,0.0,0.0,0.0,0.0,0.0,0.0,0.0,0.0,0.0,0.0,0.0,0.0,0.0,0.0,0.0,0.0,-0.7788,-0.8458,0.0,0.0,0.0,0.0,0.0,0.0,0.0,0.0,0.0,0.0,0.0,0.0,0.0,-0.6294,-0.6489,-0.6449,-0.6504,-0.6711,-0.619,-0.5897,-0.5816,-0.5291,-0.5485,-0.6322,-0.7021,0.0,-0.8617,-0.9413,0.0,0.0,0.0,0.0,0.0,0.0,0.0,0.0,0.0,0.0,0.0,0.0,0.0,0.0,0.0,0.0,0.0,0.0,0.0,0.0,0.0,0.0,-0.8906,-0.8798,-0.7821,-0.6902,-0.7007,-0.7407,-0.7606,-0.7106,-0.7004,-0.7219,0.0,0.0,0.0,0.0,0.0,0.0,-0.5616,-0.4895,-0.4517,-0.4517,-0.4525,-0.4472,-0.4517,-0.4525,-0.4482,-0.4494,-0.3242,-0.184,-0.0335,-0.0503,0.0,0.0,0.0,0.0,0.0,0.0,0.0,0.0,0.0,0.0,0.0,0.0,0.0,0.0,0.0,0.0,0.0,0.0,0.0,0.0,0.0,0.0,0.0,0.0,0.0,0.0,0.0,0.0,0.0,-0.7976,-0.7654,-0.8087,-0.804,-0.8375,0.0,0.0,0.0,0.0,0.0,0.0,0.0,0.0,0.0,-0.5789,-0.7014,-0.7379,-0.673,-0.7683,-0.8034,-0.7699,-0.7514,-0.7155,-0.6749,-0.6488,-0.6586,-0.6999,-0.7712,-0.8288,-0.8683,-0.9251,-0.9926,-1.0665,0.0,0.0,0.0,0.0,-1.1975,-1.1688,-1.1585,-1.1396,-1.124,-1.1544,0.0,0.0,0.0,0.0,0.0,0.0,0.0,-1.0163,-0.9862,-0.9312,-0.8699,-0.8265,-0.7399,-0.6477,-0.6091,-0.5919,-0.5858,-0.598,-0.6464,-0.7107,-0.7831,-0.7582,0.0,0.0,0.0,-0.6068,-0.5289,-0.4891,-0.4719,-0.4719,-0.4669,-0.4638,-0.4599,-0.4542,-0.4517,-0.4502,-0.3074,-0.1563,-0.0056,0.0,-0.0612,0.0,0.0,0.0,0.0,0.0,0.0,0.0,0.0,0.0,0.0,0.0,0.0,0.0,0.0,0.0,0.0,0.0,0.0,0.0,0.0,0.0,0.0,0.0,0.0,0.0,0.0,0.0,0.0,-0.7404,-0.7254,-0.7808,-0.7404,-0.7593,0.0,0.0,0.0,0.0,0.0,0.0,-0.7312,-0.7437,-0.6951,-0.5677,-0.7685,-0.8262,-0.7232,-0.8689,-0.9146,-0.861,-0.8613,-0.8346,-0.7805,-0.7686,-0.7775,-0.802,-0.8566,-0.8834,-0.8989,-0.9242,-0.9597,-1.0011,-1.0011,-1.0422,-1.1034,-1.1362,-1.1168,-1.0729,-1.0492,-1.0508,-1.058,-1.0938,-1.1596,-1.2336,-1.2879,0.0,0.0,0.0,0.0,-1.0094,-0.9735,-0.9333,-0.8862,-0.8084,-0.7307,-0.6582,-0.58,-0.5278,-0.5061,-0.5248,-0.5958,-0.6706,-0.7507,-0.7023,0.0,-0.6897,-0.6381,-0.5713,-0.4968,-0.4919,-0.4921,-0.486,-0.4872,-0.4642,-0.4102,-0.4344,-0.449,-0.4507,-0.342,-0.1926,-0.0057,0.0,0.0,0.0,0.0,0.0,0.0,0.0,0.0,0.0,0.0,0.0,0.0,0.0,0.0,0.0,0.0,0.0,0.0,0.0,0.0,0.0,0.0,0.0,0.0,0.0,0.0,0.0,0.0,0.0,0.0,0.0,0.0,-0.7517,-0.6487,0.0,0.0,0.0,0.0,-0.6766,-0.7304,-0.7357,-0.6658,-0.7596,-0.7787,-0.6997,-0.7399,-0.7524,-0.7465,-0.8246,-0.861,-0.8613,-0.8725,-0.8772,-0.8722,-0.8209,-0.8449,-0.9233,-0.9233,-0.9534,-1.001,-0.9783,-1.0039,-1.0631,-1.0631,-1.1071,-1.1567,-1.0959,-1.0744,-1.0635,-0.9968,-0.9751,-0.9971,-1.14,-1.2543,-1.3421,-1.3477,-1.3193,0.0,0.0,-1.1065,-1.0915,-0.959,-0.9426,-0.9456,-0.8556,-0.7787,-0.7022,-0.6141,-0.6161,-0.5996,-0.4965,-0.4801,-0.5082,-0.5949,0.0,-0.6354,-0.6073,-0.6252,-0.5992,-0.5057,-0.4919,-0.486,-0.4809,-0.4882,-0.4196,-0.2452,-0.3637,-0.4515,-0.4508,-0.4444,-0.306,-0.0118,0.0,0.0,0.0,-0.2971,0.0,0.0,0.0,0.0,0.0,0.0,0.0,0.0,0.0,0.0,0.0,0.0,0.0,0.0,0.0,0.0,0.0,0.0,0.0,0.0,0.0,0.0,0.0,0.0,0.0,0.0,0.0,0.0,-0.6856,-0.6086,0.0,-0.691,-0.631,-0.6144,-0.6726,-0.618,-0.5899,-0.6198,-0.7135,-0.7295,-0.6536,-0.8238,-0.892,-0.8491,-0.9401,-0.9958,-1.0139,-1.0168,-1.0306,-1.0485,-1.0247,-1.0364,-1.0645,-1.0645,-1.0787,-1.0935,-1.0648,-1.037,-1.0074,-1.0074,-1.0182,-1.0404,-1.0128,-1.0074,-1.0016,-0.9795,-0.9962,-1.0572,-1.2078,-1.282,-1.3208,-1.3748,-1.3097,-1.2277,-1.2277,-1.1291,-1.0292,-1.0288,-0.999,-0.9621,-0.9321,-0.8243,-0.7233,-0.6878,-0.6101,-0.5357,-0.5037,-0.5398,-0.5906,-0.6216,-0.5819,-0.5726,-0.6599,-0.6063,-0.5477,-0.5282,-0.5226,-0.5228,-0.5165,-0.5177,-0.4483,-0.2663,-0.1964,-0.2457,-0.4347,-0.4484,-0.3164,-0.0121,0.0,0.0,0.0,-0.1972,-0.2864,0.0,0.0,0.0,0.0,0.0,0.0,0.0,0.0,0.0,0.0,0.0,0.0,0.0,0.0,0.0,0.0,0.0,0.0,0.0,0.0,0.0,0.0,0.0,0.0,0.0,-0.6249,-0.5784,-0.6631,-0.5808,-0.5555,-0.6297,-0.5739,-0.5561,-0.6202,-0.5522,-0.5395,-0.5988,-0.6884,-0.7282,-0.7099,-0.8866,-0.9805,-0.9706,-1.041,-1.0852,-1.1136,-1.1136,-1.1239,-1.1426,-1.1426,-1.1426,-1.1426,-1.1426,-1.1426,-1.1413,-1.1216,-1.0795,-1.0254,-1.0053,-0.998,-0.998,-0.998,-0.998,-0.998,-0.998,-1.0499,-1.1239,-1.2221,-1.2602,-1.284,-1.3345,-1.2731,-1.1894,-1.2185,-1.1271,-1.0224,-1.0563,-1.012,-0.949,-0.918,-0.8069,-0.7024,-0.6721,-0.5804,-0.5096,-0.5191,-0.5608,-0.5964,-0.6027,-0.5508,-0.5392,-0.64,-0.5747,-0.5265,-0.5376,-0.4846,-0.4712,-0.5333,-0.5408,-0.442,-0.1963,-0.0719,-0.0844,-0.2871,-0.2967,-0.2636,-0.1884,-0.1801,-0.1228,-0.0,0.0243,-0.0365,-0.178,0.0,0.0,0.0,0.0,0.0,0.0,0.0,0.0,0.0,0.0,0.0,0.0,0.0,0.0,0.0,0.0,0.0,0.0,0.0,0.0,0.0,0.0,0.0,-0.6593,-0.5934,-0.5839,-0.6719,-0.5552,-0.5045,-0.5918,-0.5338,-0.4921,-0.4926,-0.5584,-0.6005,-0.6011,-0.6917,-0.7894,-0.8693,-0.9087,-0.9805,-1.0933,-1.0939,-1.1152,-1.144,-1.144,-1.1443,-1.145,-1.145,-1.145,-1.145,-1.145,-1.145,-1.145,-1.1443,-1.144,-1.1383,-1.0808,-1.0648,-1.0648,-1.0641,-1.0631,-1.0624,-1.0624,-1.1104,-1.1772,-1.1768,-1.2048,-1.238,-1.2438,-1.2061,-1.1596,-1.0933,-1.0876,-1.088,-1.0242,-0.9712,-0.9075,-0.8221,-0.7307,-0.6461,-0.5622,-0.5427,-0.5428,-0.5428,-0.524,-0.5186,-0.5335,-0.5428,-0.5428,-0.543,-0.5372,0.0,-0.5243,-0.3686,-0.3354,-0.5204,-0.5413,-0.3912,-0.0337,0.0,0.0067,0.0135,0.0197,-0.1423,-0.4893,-0.5135,-0.3488,0.0,0.3501,0.3546,0.0061,0.0,0.0,0.0,0.0,0.0,0.0,0.0,0.0,0.0,0.0,0.0,0.0,0.0,0.0,0.0,0.0,0.0,0.0,0.0,0.0,0.0,-0.7318,-0.6027,-0.6034,-0.5358,-0.5027,-0.5318,-0.5035,-0.4996,-0.5292,-0.5046,-0.4962,-0.5065,-0.5257,-0.5432,-0.5553,-0.649,-0.718,-0.7442,-0.8253,-0.9155,-1.0191,-1.0191,-1.0748,-1.1747,-1.1747,-1.1857,-1.2061,-1.2061,-1.2061,-1.2061,-1.2061,-1.2061,-1.2044,-1.1834,-1.1747,-1.171,-1.1333,-1.1186,-1.1162,-1.0952,-1.0742,-1.0624,-1.0624,-1.0744,-1.1048,-1.1586,-1.1893,-1.2065,-1.2679,-1.2362,-1.1858,-1.2286,-1.1135,-0.9907,-1.0266,-0.9376,-0.8288,-0.8027,-0.7307,-0.6654,-0.6396,-0.5815,-0.5428,-0.5428,-0.5328,-0.5311,-0.542,-0.5369,-0.5377,-0.5386,-0.5396,-0.4449,-0.1815,-0.1076,-0.195,-0.507,-0.5413,-0.3907,-0.0335,0.0,0.1143,0.3724,0.3891,0.3464,0.2459,0.1183,0.0912,0.1941,0.252,0.2331,0.0,0.0,0.0,0.0,0.0,0.0,0.0,0.0,0.0,0.0,0.0,0.0,0.0,0.0,0.0,0.0,0.0,0.0,0.0,0.0,0.0,0.0,-0.6677,-0.5366,-0.5507,-0.5117,-0.4845,-0.4941,-0.4956,-0.5045,-0.5188,-0.5186,-0.5152,-0.5235,-0.5237,-0.5303,-0.5525,-0.608,-0.6569,-0.6986,-0.7577,-0.8379,-0.9461,-0.9893,-1.0527,-1.1455,-1.1903,-1.2141,-1.2301,-1.2301,-1.2301,-1.2301,-1.2301,-1.2301,-1.2288,-1.2121,-1.2051,-1.2007,0.0,0.0,0.0,0.0,-1.1069,-1.0925,-1.0925,-1.0925,-1.0899,-1.0941,-1.1156,-1.1386,-1.1038,-1.0815,-1.077,-1.0871,-0.9869,-0.8868,-0.9357,-0.846,-0.744,-0.744,-0.6789,-0.6139,-0.6139,-0.5751,-0.543,-0.5369,-0.5369,0.0,-0.5376,-0.5377,-0.5174,-0.4367,-0.4925,-0.466,-0.256,-0.0943,-0.0808,-0.2897,-0.4463,-0.4532,-0.2423,0.0537,0.0,0.0,0.0,0.4926,0.3962,0.385,0.0,0.0,0.0,0.3301,0.3273,0.2598,0.0,0.0,-0.1846,-0.3449,0.0,0.0,0.0,0.0,0.0,0.0,0.0,0.0,0.0,0.0,0.0,0.0,0.0,0.0,0.0,0.0,-0.6143,-0.4831,-0.5092,-0.5038,-0.5021,-0.5096,-0.4978,-0.4835,-0.4768,-0.4984,-0.5127,-0.5076,-0.5068,-0.5264,-0.5627,-0.564,0.0,0.0,0.0,-0.7573,-0.8685,-0.9645,-1.034,-1.0786,-1.1694,-1.2224,-1.2301,-1.2301,-1.2301,-1.2301,-1.2301,-1.2301,-1.2301,-1.2301,-1.2301,-1.2251,-1.1727,-1.1506,-1.1476,-1.1476,-1.1453,-1.1426,-1.1426,0.0,0.0,-1.0242,-1.0435,-1.0715,-0.8788,-0.8722,-0.9177,-0.8231,-0.7962,-0.7829,-0.7829,-0.7177,-0.6525,-0.6525,-0.5945,-0.5428,-0.5428,-0.543,-0.5434,-0.5377,-0.5243,-0.5178,-0.5394,-0.5389,-0.4838,-0.3216,-0.4038,-0.4797,-0.4797,-0.2021,0.0067,0.0269,-0.2565,0.0,-0.4751,0.1077,0.4879,0.5068,0.5272,0.4439,0.2266,0.4255,0.4381,0.2265,0.431,0.5375,0.5377,0.5377,0.5377,0.5307,0.0999,-0.1065,0.0,0.0,0.0,0.0,0.0,0.0,0.0,0.0,0.0,0.0,0.0,0.0,0.0,0.0,0.0,-0.8198,-0.6399,-0.5065,-0.5121,-0.5223,-0.5304,-0.5343,-0.406,-0.2594,-0.1205,-0.2344,-0.3246,-0.3252,-0.3256,-0.386,-0.5356,-0.5754,-0.6043,-0.6219,-0.6337,-0.6941,-0.7949,-0.8176,-0.917,-1.0786,-1.1013,0.0,-1.2301,-1.2301,-1.2301,-1.2301,-1.2301,-1.2301,-1.2301,-1.2301,-1.2301,-1.2291,-1.2178,-1.1991,-1.1784,-1.1784,-1.1633,-1.1426,-1.1426,-1.1426,-1.1344,-1.1152,-1.1203,-1.1083,-0.9786,-0.951,0.0,-0.8275,-0.7505,-0.6979,-0.6979,-0.6334,-0.562,-0.562,-0.5491,-0.5428,-0.5428,-0.5369,-0.5376,-0.5379,-0.4224,-0.3689,-0.5134,-0.5408,-0.5271,-0.4928,-0.2693,-0.1078,-0.1078,-0.0404,0.0538,0.2011,0.154,0.0535,-0.0934,0.0267,0.167,0.3151,0.4569,0.5173,0.4749,0.5134,0.52,0.4683,0.513,0.5403,0.5432,0.5432,0.5432,0.5364,0.4427,0.3214,0.0,0.0,0.0,0.0,0.0,0.0,0.0,0.0,0.0,0.0,0.0,-1.1044,-1.1028,0.0,-0.8034,-0.7947,-0.6311,-0.5157,-0.5235,-0.5326,-0.5046,-0.4164,-0.4033,-0.2955,-0.0269,-0.0806,-0.1358,-0.1327,-0.1327,-0.1775,-0.2663,-0.3748,-0.4936,-0.6091,-0.6235,-0.6576,-0.7032,-0.7557,-0.8311,-0.9286,-0.9814,-1.0343,-1.0798,-1.0798,-1.0798,-1.0798,-1.1319,-1.1245,-1.0875,-1.1319,-1.1245,-1.0872,-1.1319,-1.1761,-1.2084,-1.2084,-1.1994,-1.1864,-1.1864,-1.1864,-1.1769,-1.1195,-1.129,-1.1378,-0.9771,-0.9132,-0.881,-0.7831,-0.68,-0.6075,-0.6075,-0.5752,-0.543,-0.5369,-0.5371,-0.5372,-0.5377,-0.5384,-0.5389,-0.5394,-0.4647,-0.3156,-0.0469,0.0,0.0,0.0,0.1545,0.2356,0.1477,0.1343,0.1677,0.2611,0.3487,0.3688,0.2807,0.267,0.3072,0.4022,0.4897,0.5434,0.5428,0.5428,0.5428,0.5428,0.5428,0.5428,0.5428,0.5428,0.5428,0.5428,0.5374,0.4903,0.0,0.0,0.0,0.0,0.0,0.0,0.0,0.0,-1.143,-1.1074,-1.0872,-1.0637,-1.0358,-0.8992,-0.7767,-0.7401,-0.6123,-0.5223,-0.5347,-0.5384,-0.4576,-0.2408,-0.3496,-0.3235,-0.027,0.0,0.0,0.0,0.0,0.0,0.0,-0.1364,-0.3068,-0.5021,-0.5488,-0.5881,-0.6281,-0.7109,-0.7478,-0.7544,-0.8537,-0.9147,-0.9299,-0.9299,-0.9299,-0.9372,-1.019,-1.0043,-0.9372,-1.019,-1.0043,-0.9372,-1.019,-1.1019,-1.1774,-1.1922,-1.2147,-1.2301,-1.2073,-1.1999,-1.1813,-1.0709,-1.0785,-1.1022,-0.9106,-0.8419,-0.8059,-0.7102,-0.6171,-0.5399,-0.5439,-0.5432,-0.5369,-0.5379,-0.5108,-0.4903,-0.4846,-0.4574,-0.4371,-0.4378,-0.4039,-0.1944,0.3903,0.5135,0.5272,0.4928,0.5202,0.4856,0.342,0.3216,0.3216,0.3214,0.4503,0.5393,0.5389,0.5381,0.5376,0.5376,0.5434,0.5428,0.5428,0.5428,0.5428,0.5428,0.5428,0.5428,0.5428,0.5428,0.5428,0.5428,0.5428,0.5434,-1.6318,-1.5151,-1.3117,-1.0649,-1.0462,-1.0644,0.0,0.0,-1.0348,-0.9963,-0.9256,-0.8798,-0.9005,-0.7575,-0.6528,-0.6722,-0.5992,-0.5357,-0.5376,-0.5396,-0.4106,-0.0735,-0.047,-0.0472,-0.0067,0.0,0.0,0.0,0.0,0.0,0.0,-0.0154,-0.039,-0.0704,-0.25,-0.4382,-0.6293,-0.6435,-0.6484,-0.6444,-0.7462,-0.8466,-0.9299,-0.9299,-0.9299,-0.9299,-0.9448,-0.9372,-0.9299,-0.9448,-0.9372,-0.9299,-0.9448,-0.9523,-0.9747,-1.064,-1.1539,-1.215,-1.1313,-1.0938,-1.0783,-0.979,-0.9487,-0.9365,-0.8033,-0.7593,-0.7364,-0.6146,-0.5646,-0.5535,-0.5408,-0.5377,-0.5381,-0.5391,-0.4163,-0.3012,-0.3013,-0.1737,-0.0601,-0.0601,0.0668,0.2073,0.288,0.4303,0.4849,0.3218,0.437,0.5329,0.5121,0.5121,0.5117,0.5108,0.5311,0.5377,0.5434,0.5432,0.543,0.543,0.5428,0.5428,0.5428,0.5428,0.5428,0.5428,0.5428,0.5428,0.5428,0.5428,0.5428,0.5428,0.5428,0.5428,-1.51,-1.431,-1.3336,0.0,-1.1567,-1.1713,-1.1497,-1.1688,-1.185,-1.1483,-1.0297,-0.9421,-0.9761,-0.7988,-0.6563,-0.6706,-0.5954,-0.5379,-0.5379,-0.5399,-0.4039,-0.0401,0.1878,0.2288,0.0201,0.0939,0.1155,0.007,0.1148,0.125,0.0076,0.0,0.0,0.0,-0.0861,-0.172,-0.2662,-0.3832,-0.5079,-0.6326,-0.6721,-0.7182,-0.7557,-0.7557,-0.7859,-0.8389,-0.7783,-0.7859,-0.8463,-0.8463,-0.8084,-0.7631,-0.8161,-0.8463,-0.8539,-0.9593,-1.0196,-1.0499,-1.0043,-0.9892,-0.9892,-0.9445,-0.9299,-0.9203,-0.8733,-0.8026,-0.7394,-0.7116,-0.6369,-0.5589,-0.5463,-0.4623,-0.4093,-0.5129,-0.322,-0.0534,0.1539,0.1806,0.1871,0.2947,0.3757,0.4299,0.4293,0.4905,0.5306,0.5067,0.5228,0.5384,0.5377,0.5376,0.5374,0.5369,0.5369,0.5434,0.5428,0.5428,0.5428,0.5428,0.5428,0.5428,0.5428,0.5428,0.5428,0.5428,0.5428,0.5428,0.5428,0.5428,0.5428,0.5428,0.5428,0.5428,-1.437,-1.3884,0.0,-1.2647,-1.24,-1.2502,-1.2888,-1.2972,-1.2915,-1.2726,-1.1136,-0.9846,-1.0118,-0.8058,-0.6334,-0.6336,-0.5831,-0.5384,-0.5387,-0.2878,-0.04,0.1266,0.4352,0.5165,0.2263,0.2404,0.2365,0.1523,0.241,0.2617,0.1794,0.0612,0.0,0.0,0.0,0.0,0.0,-0.1485,-0.3598,-0.6291,-0.6286,-0.6278,-0.6271,-0.6271,-0.6729,-0.7338,-0.6653,-0.6729,-0.7415,-0.7415,-0.6957,-0.6347,-0.7109,-0.7415,-0.749,-0.8174,-0.8937,-0.9552,-0.9165,-0.9172,-0.9185,-0.8634,-0.8479,-0.8479,-0.8479,-0.7845,-0.721,-0.7482,-0.6326,-0.5067,-0.5359,-0.3654,-0.2026,-0.2352,-0.0803,0.1604,0.472,0.4371,0.3822,0.5116,0.5389,0.5449,0.5701,0.5763,0.6086,0.6918,0.6539,0.6024,0.5818,0.5556,0.5428,0.5428,0.5428,0.5428,0.5428,0.5428,0.5428,0.5428,0.5428,0.5428,0.5428,0.5428,0.5428,0.5428,0.5428,0.5428,0.5428,0.5428,0.5428,0.5428,0.5428,0.5428,-1.4666,-1.4302,-1.3912,-1.2458,-1.2133,-1.2174,-1.2551,-1.2634,-1.268,-1.2922,-1.1006,-0.9231,-0.924,-0.7154,-0.543,-0.544,-0.5387,-0.5399,-0.541,0.3546,0.8857,0.555,0.7274,0.8203,0.7024,0.4326,0.342,0.5129,0.3653,0.3682,0.6004,0.2237,0.0,0.0,0.0,0.0,0.0,-0.0078,-0.2195,-0.6327,-0.6305,-0.6295,-0.6293,-0.6293,-0.6293,-0.6371,-0.6293,-0.6293,-0.6371,-0.6371,-0.6295,-0.6293,-0.6371,-0.6371,-0.6371,-0.6371,-0.8066,-1.0071,-0.8751,-0.8781,-0.8971,-0.7,-0.6371,-0.6371,-0.6371,-0.6367,-0.6337,-0.6352,-0.4841,-0.3503,-0.499,-0.2724,0.076,0.4272,0.3831,0.3149,0.4984,0.5386,0.5311,0.5379,0.5371,0.5688,0.6527,0.6656,0.6983,0.7829,0.7962,0.7635,0.6785,0.5945,0.5428,0.5428,0.5428,0.5428,0.5428,0.5428,0.5428,0.5428,0.5428,0.5428,0.5428,0.5428,0.5428,0.5428,0.5428,0.5428,0.5428,0.5428,0.5428,0.5428,0.5428,0.5428,-1.5404,-1.4905,-1.466,-1.4045,-1.3886,-1.3993,-1.4399,-1.4487,-1.4466,-1.4542,-1.3034,-1.1464,-1.0988,-0.9082,-0.7332,-0.6636,-0.5863,-0.5408,-0.5413,0.5684,1.2956,1.0666,1.0772,1.0568,0.9424,0.745,0.6455,0.7093,0.6092,0.5628,0.5946,0.4835,0.3507,0.2108,0.2032,0.1408,0.0,0.0,-0.0705,-0.2117,-0.3522,-0.4147,-0.4147,-0.4147,-0.4147,-0.4147,-0.4147,-0.4147,-0.4147,-0.4147,-0.4147,-0.4147,-0.4147,-0.4147,-0.4147,-0.4147,-0.5643,-0.739,-0.547,-0.4996,-0.5079,-0.438,-0.4147,-0.4147,-0.4147,-0.4147,-0.3903,-0.2473,-0.1601,-0.0897,-0.0217,0.0847,0.2424,0.4815,0.5512,0.576,0.6378,0.6821,0.7125,0.7125,0.712,0.7249,0.7505,0.7567,0.7829,0.8745,0.8353,0.7894,0.7567,0.7312,0.7118,0.7118,0.6595,0.6266,0.6266,0.5752,0.5428,0.5428,0.5945,0.6266,0.6266,0.6791,0.7118,0.7118,0.7118,0.7118,0.7118,0.7118,0.6857,0.6266,0.6266,0.5945,-1.5851,-1.5387,-1.5275,-1.5066,-1.5005,-1.5078,-1.5347,-1.541,-1.5371,-1.522,-1.3978,-1.2599,-1.165,-0.9979,-0.8234,-0.6721,-0.5844,-0.4299,-0.119,0.6972,1.308,1.4137,1.3564,1.3078,1.2805,1.1835,1.0448,0.8603,0.8012,0.7471,0.6836,0.6836,0.6327,0.4968,0.5212,0.4669,0.3344,0.2563,0.1477,-0.0,-0.0623,-0.1248,-0.1955,-0.1954,-0.1954,-0.1955,-0.1955,-0.1955,-0.1955,-0.1955,-0.1094,0.0234,0.0234,-0.0234,-0.0857,-0.0857,-0.1795,-0.282,-0.2186,-0.1014,0.0156,-0.0623,-0.0857,-0.0857,-0.0857,-0.0857,-0.0623,0.0701,0.1697,0.265,0.432,0.4584,0.4763,0.6228,0.7032,0.7417,0.7417,0.7719,0.8027,0.8027,0.8027,0.8091,0.842,0.8982,0.9615,1.0514,1.0119,0.9482,0.8611,0.8223,0.8027,0.8027,0.7505,0.7174,0.7174,0.6662,0.634,0.634,0.6854,0.7174,0.7174,0.77,0.8027,0.8027,0.8027,0.8027,0.8027,0.8027,0.77,0.7174,0.7174,0.6724,-1.6081,-1.5719,-1.5673,-1.5476,-1.5468,-1.5468,-1.5522,-1.5449,-1.5321,-1.4919,-1.383,-1.2609,0.0,0.0,-0.8112,-0.5704,-0.4508,-0.099,0.734,0.844,1.0485,0.0,0.0,0.0,0.0,0.0,1.5225,1.0155,0.9523,0.9332,0.9048,0.8586,0.8356,0.8545,0.9142,0.9486,0.9349,0.7497,0.4464,0.0464,0.2333,0.2265,0.0471,0.0391,0.0313,0.0314,0.0314,0.0314,0.0314,0.0235,0.2512,0.6164,0.6247,0.5033,0.328,0.328,0.328,0.2966,0.1013,0.2973,0.6002,0.3915,0.328,0.328,0.328,0.3358,0.3435,0.3357,0.4854,0.6765,0.8065,0.7932,0.7656,0.8533,0.839,0.8091,0.8089,0.8151,0.8215,0.8277,0.828,0.8541,0.9329,1.0836,1.2143,1.2887,1.3009,1.2135,0.9773,0.8737,0.8215,0.8215,0.8089,0.8089,0.8089,0.8024,0.8027,0.8027,0.8027,0.8089,0.8089,0.8091,0.8153,0.8153,0.8153,0.8153,0.8153,0.8153,0.8091,0.8089,0.8089,0.7567,-1.6255,-1.5998,-1.6285,-1.6234,-1.6208,-1.6368,-1.6912,-1.6361,-1.5758,-1.5644,-1.4665,-1.3548,-1.2608,-1.2142,0.0,-0.5998,0.6828,0.0,1.923,1.8788,0.0,2.0334,0.0,1.9691,2.0048,2.0096,0.0,1.7311,1.4303,1.325,1.4766,1.3228,1.2154,1.1884,1.207,1.1427,1.0062,1.0498,0.9448,0.6893,0.5873,0.5956,0.684,0.5332,0.4628,0.4631,0.4631,0.4631,0.4479,0.2942,0.2948,0.4042,0.5651,0.5978,0.5495,0.5495,0.5495,0.5413,0.4851,0.5411,0.6224,0.5655,0.5495,0.5495,0.5495,0.6511,0.7604,0.7109,0.8119,0.9193,0.8643,0.8438,0.825,0.8217,0.8624,0.9125,0.9733,1.0365,1.1003,1.1622,1.1746,1.1811,1.2012,1.2385,1.2761,1.2948,1.3009,1.2757,1.2139,1.1322,1.0815,1.0815,0.9694,0.8944,0.8944,0.8353,0.8027,0.8027,0.8616,0.8944,0.8944,0.9585,0.991,0.991,0.991,0.991,0.991,0.991,0.9585,0.8944,0.8944,0.8484,-1.7048,-1.6774,-1.6978,-1.6978,-1.6978,-1.7031,-1.7201,-1.6769,-1.6191,-1.5717,-1.5284,-1.4612,-1.3599,-1.3465,-1.1482,0.0,0.0,0.0,1.9385,2.0643,2.2074,0.0,2.251,0.0,2.3281,2.3336,2.3178,2.2725,1.888,1.6964,1.7942,1.6919,1.6186,1.6099,1.6113,1.5613,1.4587,1.4841,1.3532,1.0636,1.0123,1.0114,1.0582,0.8803,0.8326,0.8865,0.8865,0.8865,0.8784,0.7613,0.6824,0.6348,0.7573,0.8117,0.823,0.823,0.8519,0.8876,0.8866,0.8871,0.873,0.7844,0.8141,0.8878,0.8878,0.9374,0.987,0.9455,0.9908,1.043,1.0064,1.0206,1.0347,1.0455,1.0718,1.1076,1.1494,1.2223,1.3059,1.3822,1.3451,1.3291,1.4323,1.3934,1.3786,1.4423,1.4255,1.4025,1.4025,1.3057,1.2205,1.183,1.0961,1.0278,0.9913,0.9393,0.9314,0.9676,1.0132,1.0588,1.0895,1.1034,1.1108,1.1108,1.0804,1.0624,1.0624,1.0624,1.0368,0.9849,0.9849,0.9396,-1.7892,-1.7682,-1.7737,-1.7737,-1.7692,-1.7577,-1.7323,-1.7117,-1.6717,-1.5839,-1.5819,-1.5637,-1.4405,-1.42,-1.1617,-0.3766,0.0,2.1908,1.5687,1.935,2.3038,2.3894,2.4471,2.5268,2.6422,2.6648,2.6748,2.6819,2.3596,2.1321,2.0577,2.0366,2.0358,2.0513,2.025,2.0065,1.9969,1.91,1.6857,1.3351,1.4634,1.4587,1.3315,1.2135,1.2231,1.3326,1.3326,1.3326,1.3326,1.317,1.2273,1.1058,1.0905,1.0855,1.0858,1.0858,1.142,1.2111,1.237,1.2576,1.2439,1.0302,1.081,1.2246,1.2246,1.1899,1.1414,1.1414,1.1563,1.1797,1.2389,1.2829,1.3235,1.3654,1.3553,1.3283,1.3291,1.3967,1.4732,1.5382,1.4468,1.4214,1.6208,1.5496,1.508,1.6312,1.5984,1.5526,1.541,1.4089,1.2879,1.2197,1.2012,1.1652,1.0989,1.093,1.1233,1.1896,1.1954,1.2262,1.2948,1.2201,1.183,1.183,1.0986,1.0624,1.0624,1.0624,1.0624,1.0624,1.0624,1.0171,-1.7975,-1.8064,-1.8501,-1.8501,-1.8178,-1.8211,-1.9469,-1.8682,0.0,-1.7471,-1.671,-1.5762,-1.4793,-1.4591,-1.076,0.1036,1.6288,2.6102,2.453,2.5829,2.7022,0.0,2.7673,2.8088,2.8324,2.9008,0.0,2.9444,2.9555,2.8781,2.6917,2.526,2.3991,2.3179,2.1586,2.0474,2.0025,1.9811,1.9375,1.868,1.8929,1.8882,1.8676,1.8433,1.8438,1.8591,1.8671,1.8676,1.8601,1.768,1.6432,1.4909,1.4087,1.298,1.1836,1.1836,1.1979,1.2305,1.3599,1.5159,1.599,1.2706,1.2284,1.3159,1.3159,1.4131,1.5244,1.5244,1.5846,1.6442,1.6398,1.6075,1.5619,1.4843,1.4726,1.4825,1.4887,1.5996,1.7036,1.7147,1.6986,1.6935,1.7335,1.7169,1.6901,1.6544,1.6374,1.6093,1.5468,1.4569,1.397,1.3781,1.3183,1.2761,1.2581,1.2581,1.2638,1.2761,1.2761,1.2822,1.3005,1.2201,1.183,1.183,1.0986,1.0624,1.0624,1.0624,1.0624,1.0624,1.0624,1.0495,-1.8933,-1.8986,-1.9199,-1.893,-1.9039,-1.9162,-1.8898,0.0,0.0,-1.7342,-1.6718,-1.6151,-1.5699,-1.5652,-1.2719,-0.3717,1.4648,2.7794,2.7642,2.7852,0.0,2.8291,2.8902,2.9269,2.913,2.9623,3.0161,3.0642,3.112,3.0916,2.9825,2.8739,2.7929,2.7426,2.6481,2.5758,2.5232,2.518,2.445,2.2892,2.3093,2.2218,2.0491,2.0653,2.0442,1.9952,1.9969,1.9969,1.9963,1.9421,1.8969,1.848,1.8022,1.7669,1.7421,1.7772,1.777,1.7825,1.8922,1.9715,1.9978,1.8252,1.7693,1.7681,1.7283,1.7446,1.7846,1.8238,1.8666,1.912,1.9356,1.921,1.8817,1.8298,1.7548,1.7016,1.7043,1.7374,1.7846,1.8608,1.8406,1.8377,1.9153,1.8889,1.8578,1.8637,1.802,1.7346,1.6573,1.5871,1.5085,1.4268,1.3846,1.3425,1.307,1.3009,1.3187,1.361,1.361,1.3786,1.4209,1.3053,1.2451,1.2451,1.1233,1.0624,1.0624,1.0624,1.0624,1.0624,1.0624,1.0624,-1.9635,-1.9756,-1.983,-1.9409,-1.9847,-1.9931,-1.8341,-1.8499,0.0,-1.7516,-1.7118,-1.6942,-1.715,-1.6779,-1.4148,-0.7036,1.1487,2.5829,2.8123,2.8396,2.8502,0.0,2.9542,0.0,2.9531,2.9872,3.0406,3.1137,3.1513,3.1605,3.1389,3.1328,3.1211,3.0948,3.0986,3.0784,3.0294,3.0177,2.8997,2.6713,2.6947,2.5639,2.299,2.326,2.2976,2.228,2.228,2.228,2.228,2.228,2.2293,2.2343,2.2343,2.2514,2.2832,2.3345,2.3395,2.327,2.399,2.3874,2.3534,2.3586,2.2987,2.214,2.1522,2.0974,2.0619,2.1237,2.1398,2.1509,2.212,2.1983,2.1645,2.1395,2.0154,1.9114,1.9291,1.8879,1.882,1.9965,1.9685,1.9635,2.0805,2.0403,2.012,2.0555,1.9604,1.859,1.7824,1.7142,1.6296,1.507,1.4787,1.4487,1.4054,1.3994,1.4182,1.4674,1.4674,1.4918,1.5352,1.3846,1.307,1.3247,1.1663,1.0867,1.0867,1.1052,1.1052,1.0867,1.1052,1.1052,-1.9046,-1.9699,-2.0326,-2.0271,-2.026,-2.0178,-1.9991,0.0,-1.945,-1.989,-1.9035,-1.8448,-1.9178,-1.7781,-1.2422,0.003,0.8945,1.7595,2.7004,2.8974,2.9648,3.0174,0.0,0.0,2.9892,3.0588,3.1101,3.1195,3.2553,3.3135,3.2577,3.3063,3.2832,3.1735,3.1939,3.1774,3.1184,3.0831,3.0494,3.0212,3.0254,3.0116,2.9822,2.9814,2.9814,2.9732,2.9732,2.9732,2.9732,2.9732,2.8677,2.7083,2.7083,2.5979,2.4422,2.4462,2.4442,2.4565,2.5551,2.5862,2.5859,2.6055,2.5121,2.3864,2.3806,2.4255,2.4827,2.4883,2.4939,2.4946,2.4995,2.4237,2.3074,2.1924,2.1024,2.0624,2.1287,2.1349,2.1342,2.1506,2.1445,2.1445,2.1609,2.154,2.1267,2.0715,2.0016,1.9319,1.8584,1.7898,1.7462,1.7285,1.6692,1.6528,1.7119,1.7169,1.6901,1.6312,1.6312,1.6031,1.541,1.3846,1.3368,1.4089,1.2504,1.1714,1.171,1.2393,1.2393,1.171,1.2455,1.2389,-1.8649,-1.9212,-1.9833,-1.9521,-1.9841,-2.0198,-2.0242,0.0,-1.9925,-1.99,-1.9475,-1.8859,-1.791,-1.0091,0.0721,1.4454,1.9472,2.3319,2.8164,2.8895,2.923,3.0007,3.0027,0.0,0.0,3.0442,3.1268,3.2323,3.3478,3.4246,3.4486,3.4389,3.4125,3.3675,3.3771,3.3601,3.3101,3.2958,3.2724,3.2447,3.2089,3.1912,3.1892,3.1313,3.1055,3.1064,3.0971,3.0868,3.0713,3.1034,3.0833,3.0311,3.048,2.978,2.8753,2.9098,2.8478,2.7618,2.8366,2.8381,2.8088,2.8211,2.7818,2.6973,2.5384,2.5134,2.5508,2.5953,2.6068,2.6269,2.7071,2.6287,2.4833,2.2776,2.2079,2.1817,2.1744,2.1697,2.1697,2.1697,2.2053,2.23,2.23,2.2613,2.2727,2.245,2.1904,2.1226,2.0499,1.9813,1.9424,1.9424,1.8061,1.7302,1.7578,1.7578,1.7468,1.7196,1.6765,1.6374,1.6088,1.4555,1.3846,1.4209,1.3122,1.2512,1.2512,1.2826,1.2826,1.2516,1.2822,1.2822,-1.8545,-1.8864,-1.9261,-1.8879,-1.938,-2.0005,0.0,0.0,-2.036,-2.0468,-1.8259,-1.5306,-1.219,0.0698,1.4094,2.4084,2.6368,2.737,2.8742,2.8564,2.8692,0.0,0.0,2.971,2.9681,3.0076,3.0936,3.2416,3.3393,3.4302,3.5115,3.5077,3.5066,3.513,3.5059,3.4878,3.4597,3.452,3.4311,3.3985,3.3544,3.3353,3.3324,3.2668,3.2364,3.2337,3.1957,3.1718,3.1564,3.1636,3.177,3.1933,3.2338,3.2139,3.1676,3.2358,3.1673,3.0465,3.0729,3.0482,3.0018,2.984,2.9797,2.9444,2.7561,2.6806,2.6717,2.7217,2.7246,2.7266,2.7937,2.7307,2.5962,2.3936,2.3325,2.3062,2.2608,2.2381,2.2271,2.2271,2.2665,2.2972,2.2972,2.3326,2.3602,2.3602,2.3106,2.2529,2.1983,2.1329,2.0937,2.0937,1.9513,1.8531,1.8531,1.8376,1.8172,1.7955,1.7413,1.7034,1.6816,1.5525,1.4939,1.5177,1.4173,1.37,1.37,1.3721,1.361,1.3368,1.361,1.361,-1.8789,-1.8789,-1.8824,-1.8817,-1.9097,-1.9564,0.0,-2.0294,-2.0739,-2.2345,-1.5057,-0.671,-0.1178,1.3875,2.5524,2.5683,2.5712,2.6318,2.8058,2.8018,2.8325,0.0,0.0,2.97,2.9435,2.9589,3.0053,3.0856,3.1986,3.3005,3.3872,3.4986,3.562,3.5691,3.543,3.5289,3.5289,3.5029,3.4887,3.4887,3.4878,3.4878,3.4878,3.4864,3.4855,3.4802,3.3882,3.3509,3.3489,3.2493,3.1891,3.1673,3.2406,3.2453,3.2188,3.2991,3.3112,3.2769,3.2186,3.1801,3.1493,3.087,3.0691,3.0691,3.0644,3.0029,2.9361,2.9361,2.8958,2.8288,2.7516,2.6851,2.6196,2.5354,2.4784,2.4389,2.4382,2.3948,2.3595,2.3595,2.3595,2.3595,2.3595,2.3602,2.3602,2.3602,2.3106,2.2701,2.2701,2.21,2.1697,2.1697,2.1161,2.0752,2.0752,2.015,1.9475,1.8709,1.8661,1.8334,1.7633,1.6791,1.673,1.7572,1.6053,1.5298,1.5298,1.5318,1.4991,1.4213,1.4991,1.4932,-1.9236,-1.9212,-1.9212,-1.9212,-1.9604,-2.0057,-2.0242,-2.1145,-2.2447,-2.4383,-2.2333,-1.2482,1.2903,2.2017,2.5714,2.5709,2.5693,2.6225,2.7748,0.0,0.0,2.9015,2.9277,2.9525,3.0037,3.0137,3.0532,3.1384,3.1774,3.2349,3.317,3.3557,3.4351,3.5664,3.5617,3.5568,3.5568,3.5576,3.5576,3.5585,3.5627,3.565,3.5616,3.4802,3.4418,3.437,3.3436,3.2929,3.2778,3.2831,3.2634,3.2325,3.2747,3.2863,3.2801,3.3075,3.3163,3.3122,3.2748,3.255,3.2446,3.2063,3.1926,3.1926,3.1926,3.0946,2.9745,2.9464,2.954,2.9455,2.8324,2.7848,2.7349,2.6214,2.5456,2.4863,2.4471,2.4274,2.4032,2.3673,2.3602,2.3602,2.3602,2.3602,2.3602,2.3602,2.3421,2.3334,2.3334,2.3128,2.298,2.298,2.2445,2.1752,2.0845,2.0201,1.9689,1.9475,1.8986,1.8608,1.8334,1.7605,1.733,1.7578,1.662,1.6115,1.6115,1.5628,1.5294,1.505,1.5289,1.523,0.0,-1.8785,-1.8151,-1.8715,-1.8877,-1.9077,-1.9856,-2.0791,-2.0457,-1.6767,-1.6024,-0.7471,2.0553,2.5694,2.5694,2.5696,2.5622,2.6001,2.7277,0.0,0.0,2.8989,0.0,2.9573,3.0186,3.0333,3.0641,3.1169,3.1516,3.192,3.242,3.2737,3.3441,3.4603,3.4986,3.5331,3.5661,3.5827,3.5873,3.5831,3.5921,3.5785,3.5455,3.4689,3.4193,3.3847,3.2905,3.2433,0.0,3.2219,3.2054,3.1892,3.2335,3.2541,3.2645,3.3279,3.3506,3.3505,3.367,3.3582,3.336,3.3196,3.3073,3.2965,3.2809,3.182,3.066,3.0394,3.0294,3.0086,2.9255,2.8582,2.7946,2.7082,2.6173,2.5411,2.5059,2.4712,2.4315,2.3956,2.3759,2.3602,2.3602,2.3602,2.3602,2.3602,2.3602,2.3602,2.3602,2.3602,2.3602,2.3602,2.3061,2.2367,2.1561,2.0917,2.0514,2.0514,1.9851,1.9496,1.9496,1.8815,1.8447,1.8447,1.7682,1.7196,1.6922,1.5916,1.5522,1.5811,1.5526,1.541,0.0,-1.7661,-1.6134,-1.7574,-1.7307,-1.7149,-1.8951,-1.9238,0.0,-0.2344,0.1128,0.673,2.2758,2.5698,2.5701,2.5704,2.5469,2.5667,2.6721,2.7123,0.0,0.0,2.9651,2.9737,2.9984,3.0232,3.0376,3.0398,3.115,3.1612,3.1612,3.2324,3.2747,3.2814,3.3659,3.4536,3.5407,3.5603,3.5641,3.5521,3.5651,3.5285,3.4501,3.4446,3.4019,3.3252,3.2323,3.1993,3.203,3.0966,3.0559,3.0665,3.1351,3.1643,3.1891,3.3449,3.3935,3.3939,3.4723,3.4669,3.4256,3.42,3.4028,3.3734,3.337,3.2666,3.1985,3.187,3.1172,3.0426,3.0251,2.9264,2.8229,2.7963,2.6994,2.6107,2.6021,2.5182,2.443,2.4389,2.3956,2.3602,2.3602,2.3602,2.3602,2.3602,2.3602,2.3602,2.3602,2.3602,2.3602,2.3602,2.3106,2.274,2.274,2.21,2.1697,2.1697,2.1113,2.0802,2.0802,2.015,1.9805,1.9805,1.9097,1.8334,1.7578,1.6244,1.5921,1.6539,1.5864,1.558,-1.6378,0.0,-1.6855,-1.7205,-1.7781,-1.8071,0.0,-1.5805,-1.1055,0.1045,1.2135,2.0898,2.4953,2.5698,2.5701,2.5704,2.5469,2.559,2.6404,0.0,0.0,2.8886,2.9006,2.9266,2.9935,3.0061,3.0173,3.0388,3.0581,3.0717,3.0717,3.0881,3.1295,3.1958,3.2196,3.2702,3.353,3.3683,3.3743,3.3709,3.3853,3.3782,3.3507,3.3002,3.2602,3.2292,3.1504,3.1181,3.1181,3.092,3.0719,3.0619,3.0787,3.1197,3.1756,3.2141,3.3058,3.4107,3.412,3.4455,3.4813,3.4338,3.4028,3.3771,3.368,3.3302,3.2827,3.2442,3.2161,3.1899,3.1509,3.0743,2.9872,2.8937,2.8041,2.7132,2.6201,2.5494,2.4902,2.4471,2.3956,2.3602,2.3602,2.3602,2.3602,2.3602,2.3602,2.3602,2.3602,2.3602,2.3602,2.3602,2.3465,2.3377,2.3377,2.237,2.1697,2.1697,2.1113,2.0802,2.0802,2.015,1.9805,1.9805,1.9097,1.8334,1.7578,1.7241,1.7191,1.7357,1.7185,1.7074,-1.4146,-1.5028,-1.5884,-1.6609,-1.7029,-1.5401,-0.8407,-0.5786,-0.1229,0.0,0.0,2.561,2.5379,2.5332,2.5318,2.5285,2.4862,2.501,0.0,0.0,2.7677,2.9044,2.9214,2.9352,2.9695,2.9893,3.0052,3.0218,3.0333,3.0398,3.0398,3.0398,3.0621,3.1093,3.1102,3.1679,3.2891,3.3034,3.3074,3.3012,3.3143,3.2979,3.2553,3.2205,3.1818,3.1382,3.1052,3.0898,3.0898,3.0827,3.074,3.0643,3.0607,3.0828,3.1204,3.1599,3.2297,3.3138,3.3772,3.4471,3.495,3.4111,3.3728,3.3533,3.3152,3.2862,3.2632,3.234,3.2124,3.18,3.1173,3.035,2.9488,2.8862,2.7989,2.7121,2.645,2.5908,2.5494,2.5174,2.4704,2.4348,2.4348,2.4348,2.4233,2.3991,2.3956,2.3879,2.3638,2.3602,2.3602,2.3602,2.3602,2.3602,2.3602,2.298,2.2553,2.2553,2.2021,2.1657,2.1657,2.1008,2.0657,2.0657,1.9946,1.9434,1.9055,1.8395,1.8078,1.8118,1.7743,1.7578,-1.2335,-1.2212,-1.2722,-1.529,-1.4412,-0.9825,0.1929,0.0,0.0,0.0,0.0,0.0,2.4996,2.4966,0.0,2.4821,2.4242,2.453,2.6497,2.6804,2.7512,2.9363,2.9588,2.9542,2.9403,2.9713,2.9924,2.9945,3.0196,3.0333,3.0333,3.0376,3.0398,3.0398,3.0398,3.1083,3.2497,3.2636,3.2636,3.2516,3.2638,3.2309,3.1584,3.1671,3.1324,3.0687,3.0824,3.0879,3.0889,3.078,3.0718,3.069,3.0638,3.0568,3.0586,3.1331,3.164,3.192,3.3468,3.4304,3.4546,3.3573,3.3232,3.3061,3.2307,3.209,3.2064,3.1861,3.16,3.1212,3.0397,2.9505,2.8714,2.8473,2.7703,2.6985,2.675,2.6385,2.6052,2.6005,2.5577,2.5221,2.5221,2.5221,2.5059,2.4584,2.4504,2.4348,2.3914,2.3829,2.3829,2.3829,2.3752,2.3716,2.3716,2.3645,2.3602,2.3602,2.3009,2.2649,2.2543,2.2,2.1697,2.1697,2.1102,2.0824,2.093,1.957,1.8954,1.9026,1.8274,1.7961,-1.1328,-0.7326,-0.4772,-1.2025,-0.7601,-0.037,0.3672,0.0,0.0,0.0,0.0,0.0,0.0,2.5226,2.5337,0.0,0.0,2.5278,2.6455,2.6773,2.7435,2.8922,2.9125,2.9172,2.9383,2.9454,2.9551,2.9738,2.9939,3.0052,3.0052,3.0276,3.0398,3.0398,3.0398,3.0513,3.0785,3.0799,3.0799,3.0785,3.0859,3.0801,3.0617,3.0739,3.0728,3.0618,3.0697,3.0803,3.0898,3.0879,3.0805,3.0703,3.0687,3.0607,3.0518,3.0644,3.1119,3.1833,3.2766,3.301,3.2877,3.2695,3.2474,3.226,3.2137,3.209,3.1919,3.1074,3.1242,3.1556,3.0875,3.0569,3.0098,2.8723,2.8533,2.8285,2.6977,2.6565,2.6344,2.606,2.5577,2.5221,2.5221,2.5221,2.5174,2.5097,2.5059,2.5059,2.4981,2.4942,2.4942,2.4942,2.4552,2.4274,2.4274,2.3879,2.3602,2.3602,2.3009,2.2452,2.1899,2.1751,2.1697,2.1697,2.1588,2.154,2.1568,2.0799,2.0471,2.044,1.9779,1.9475,-0.6461,-0.2449,0.0759,-0.0315,0.0785,0.4522,1.3649,0.0,0.0,0.0,0.0,0.0,0.0,0.0,2.4774,2.4048,2.4261,2.4972,2.6348,2.6637,2.7307,2.9,2.9212,2.9212,2.9191,2.93,2.9474,2.9669,2.9893,3.0052,3.0209,3.0333,3.0398,3.0398,3.0398,3.0398,3.0398,3.0398,3.0398,3.0398,3.0429,3.0439,3.04,3.0498,3.0552,3.055,3.0661,3.0733,3.0803,3.0868,3.0858,3.0814,3.0814,3.0729,3.0596,3.0529,3.1003,3.1756,3.2122,3.2465,3.2642,3.2211,3.1976,3.1806,3.1314,3.1171,3.1023,3.033,3.0615,3.0962,3.007,2.9672,2.9323,2.8577,2.8402,2.8197,2.7487,2.7304,2.7155,2.6781,2.6497,2.6283,2.6043,2.6008,2.5936,2.5689,2.5615,2.5532,2.5259,2.5221,2.5097,2.4784,2.4552,2.4266,2.3991,2.3759,2.3602,2.3602,2.3326,2.3046,2.2741,2.2741,2.2741,2.2741,2.2741,2.256,2.2246,2.1974,2.1465,2.0802,2.0497,2.0156,-0.1855,0.2463,0.6876,1.1143,0.0,0.0,0.0,0.0,0.0,0.0,0.0,0.0,0.0,2.4502,0.0,2.3712,2.3902,2.4709,2.636,2.656,2.7216,2.9084,2.9372,2.933,2.9112,2.9312,2.9523,2.9696,2.9893,3.0089,3.0299,3.0376,3.0398,3.0398,3.0398,3.0398,3.0398,3.0398,3.0398,3.0398,3.0398,3.0398,3.04,3.0442,3.0491,3.0516,3.0623,3.0687,3.0709,3.0838,3.0898,3.0898,3.0898,3.0813,3.066,3.0542,3.0877,3.14,3.14,3.1804,3.2208,3.1602,3.14,3.1275,3.059,3.0398,3.0299,2.9832,3.0039,3.0167,2.9246,2.8773,2.8515,2.842,2.8273,2.812,2.7926,2.7973,2.788,2.7378,2.7295,2.7178,2.6783,2.6691,2.6581,2.6227,2.6148,2.6033,2.559,2.5553,2.5395,2.4965,2.4855,2.4544,2.4032,2.3991,2.3991,2.3991,2.3759,2.3602,2.3602,2.3602,2.3602,2.3602,2.3602,2.337,2.2927,2.2792,2.2175,2.123,2.1077,2.064,0.0084,0.7429,1.5652,1.7373,1.8496,0.0,2.294,2.3873,0.0,2.5055,0.0,0.0,0.0,2.4483,2.4432,2.4805,2.4635,2.5036,2.6637,2.6702,2.719,2.8838,2.9255,2.9383,2.9362,2.9561,2.9678,2.9696,2.9893,3.0013,3.0037,3.0267,3.0398,3.0398,3.0398,3.0398,3.0398,3.0398,3.0398,3.0398,3.0398,3.0398,3.0398,3.039,3.0441,3.0497,3.0575,3.0643,3.0709,3.0838,3.0898,3.0898,3.0898,3.0782,3.06,3.0531,3.0501,3.0484,3.0484,3.0523,3.0561,3.0504,3.0484,3.0475,3.0417,3.0398,3.0299,2.9832,2.9734,2.9654,2.9125,2.8984,2.8863,2.848,2.8658,2.8734,2.8037,2.8148,2.8139,2.7439,2.7295,2.7178,2.6783,2.6691,2.6691,2.6649,2.6657,2.6624,2.6615,2.6581,2.6581,2.6539,2.6139,2.566,2.5144,2.5097,2.5097,2.5097,2.415,2.3602,2.3602,2.3602,2.3602,2.3602,2.3602,2.3595,2.3551,2.2972,2.2649,2.2558,2.1913,2.1293,0.6802,1.1787,1.6037,1.723,1.9444,0.0,0.0,2.3807,2.4252,2.4993,2.5199,2.519,2.4994,0.0,2.468,2.485,2.4771,2.5195,2.6684,2.6831,2.7341,2.8815,2.9234,2.9412,2.9412,2.9589,2.9755,2.9877,2.9954,3.0066,3.0232,3.0345,3.0398,3.0398,3.0398,3.0398,3.0398,3.0398,3.0398,3.0398,3.0398,3.0398,3.0398,3.0398,3.044,3.0497,3.0568,3.0638,3.0709,3.0838,3.0898,3.0898,3.0898,3.0782,3.06,3.0568,3.049,3.0398,3.0398,3.0398,3.0398,3.0398,3.0398,3.0398,3.0398,3.0398,3.0299,2.9832,2.9696,2.9588,2.9115,2.8994,2.8961,2.8806,2.8896,2.8929,2.8651,2.8489,2.8255,2.7765,2.7478,2.7178,2.6783,2.6691,2.6691,2.6691,2.6691,2.6691,2.6691,2.6691,2.659,2.6297,2.5799,2.5419,2.5221,2.5221,2.5221,2.5221,2.4824,2.443,2.4116,2.4116,2.3956,2.3602,2.3602,2.3602,2.3602,2.337,2.3061,2.2701,2.2445,2.1967,1.1615,1.4493,1.6176,1.7001,0.0,0.0,2.3056,2.39,2.4594,2.4995,2.512,2.5159,2.5159,2.5003,2.4873,2.4945,2.4865,2.525,2.6531,2.6865,2.7438,2.8663,2.9277,2.9589,2.9589,2.9791,2.9983,3.0122,3.0136,3.0218,3.0388,3.0398,3.0398,3.0398,3.0398,3.0398,3.0398,3.0398,3.0398,3.0398,3.0398,3.0398,3.0398,3.0398,3.0437,3.0463,3.0545,3.0611,3.0677,3.079,3.0858,3.0898,3.0898,3.0782,3.0606,3.0606,3.0524,3.0398,3.0398,3.0398,3.0398,3.0398,3.0398,3.0398,3.0398,3.0398,3.0299,2.9832,2.9696,2.9588,2.9115,2.8994,2.8994,2.8994,2.8994,2.8994,2.8994,2.8773,2.848,2.8129,2.7842,2.7521,2.7138,2.6963,2.6906,2.6906,2.6783,2.6691,2.6691,2.6691,2.6581,2.6262,2.59,2.5672,2.5672,2.5672,2.5672,2.5672,2.5524,2.5144,2.443,2.4389,2.4158,2.3602,2.3602,2.3602,2.3602,2.3602,2.3377,2.2965,2.2965,2.2634,1.3526,1.5319,1.7108,1.75,0.0,0.0,2.2457,2.4103,2.5399,2.5064,2.5163,2.5293,2.5293,2.5141,2.5067,2.5264,2.5022,2.5154,2.6167,2.6811,2.7497,2.8291,2.9336,2.9989,2.9989,3.0244,3.0398,3.0398,3.0398,3.0398,3.0398,3.0398,3.0398,3.0398,3.0398,3.0398,3.0398,3.0398,3.0398,3.0398,3.0398,3.0398,3.0398,3.0398,3.0398,3.04,3.0472,3.0545,3.0611,3.0667,3.078,3.0898,3.0898,3.0782,3.0606,3.0606,3.0524,3.04,3.0398,3.0398,3.0398,3.0398,3.0398,3.0398,3.0398,3.0398,3.0299,2.9832,2.9696,2.9588,2.9115,2.8994,2.8994,2.8994,2.8994,2.8994,2.8994,2.8994,2.8872,2.848,2.8394,2.8281,2.7945,2.7568,2.7303,2.7303,2.6963,2.6691,2.6691,2.6691,2.6691,2.6691,2.6691,2.6691,2.6691,2.6691,2.6691,2.6691,2.6262,2.5532,2.4471,2.4389,2.4158,2.3602,2.3602,2.3602,2.3602,2.3602,2.3602,2.3602,2.3602,2.3282,1.4645,1.6305,0.0,1.8518,0.0,0.0,0.0,2.3923,0.0,2.5197,2.5264,2.5293,2.5293,2.5244,2.5234,2.5293,2.5222,2.5401,2.6127,2.6378,2.6759,2.7464,2.8501,2.9165,2.9165,2.9909,3.0398,3.0398,3.0398,3.0398,3.0398,3.0398,3.0398,3.0398,3.0398,3.0398,3.0398,3.0398,3.0398,3.0398,3.0398,3.0398,3.0398,3.0398,3.0428,3.0463,3.049,3.0545,3.0611,3.0667,3.078,3.0898,3.0898,3.0813,3.066,3.0623,3.0542,3.0463,3.0425,3.0398,3.0398,3.0398,3.0398,3.0398,3.0398,3.0398,3.0299,2.9832,2.9696,2.9588,2.9115,2.8994,2.8994,2.8994,2.8994,2.8994,2.8994,2.8773,2.8531,2.8411,2.821,2.8029,2.7926,2.7803,2.7716,2.7716,2.7387,2.7027,2.6725,2.6691,2.6691,2.6691,2.6691,2.6691,2.6691,2.6691,2.6691,2.6691,2.659,2.6016,2.5028,2.4584,2.4158,2.3602,2.3602,2.3602,2.3602,2.3602,2.3602,2.3602,2.3602,2.3508,1.613,1.7672,0.0,1.9525,2.1305,2.3037,2.3553,0.0,0.0,0.0,2.5293,2.5293,2.5293,2.5293,2.5293,2.5293,2.5293,2.5426,2.5788,2.614,2.6514,2.6901,2.7838,2.8575,2.889,2.9495,3.0035,3.0369,3.0398,3.0398,3.0398,3.0398,3.0398,3.0398,3.0398,3.0398,3.0398,3.0398,3.0398,3.0398,3.0398,3.0398,3.0398,3.0398,3.0417,3.0463,3.0514,3.0554,3.0611,3.0732,3.0826,3.0898,3.0898,3.0816,3.0703,3.0651,3.0581,3.049,3.0452,3.0417,3.0398,3.0398,3.0398,3.0398,3.0398,3.0398,3.0299,2.9832,2.9696,2.9588,2.9115,2.9067,2.9125,2.904,2.8994,2.8994,2.8994,2.8806,2.8633,2.8633,2.8473,2.8343,2.8343,2.8192,2.8102,2.8102,2.764,2.7138,2.6758,2.6691,2.6691,2.6691,2.6691,2.6691,2.6691,2.6691,2.6691,2.6691,2.6513,2.6139,2.5532,2.502,2.4471,2.3914,2.3716,2.3602,2.3602,2.3602,2.3602,2.3602,2.3602,2.3602,1.7639,1.9143,2.0297,2.0363,2.1499,0.0,2.4885,2.5293,2.5293,2.5293,2.5293,2.5293,2.5293,2.5293,2.5293,2.5293,2.5293,2.5293,2.5293,2.5986,2.6486,2.6486,2.7246,2.8092,2.8909,2.9054,2.9458,3.0321,3.0398,3.0398,3.0398,3.0398,3.0398,3.0398,3.0398,3.0398,3.0398,3.0398,3.0398,3.0398,3.0398,3.0398,3.0398,3.0398,3.0398,3.0412,3.0547,3.059,3.0607,3.08,3.0889,3.0898,3.0898,3.0826,3.0718,3.0703,3.0613,3.0516,3.0499,3.0452,3.0398,3.0398,3.0398,3.0398,3.0398,3.0398,3.0308,2.9838,2.9704,2.9607,2.9163,2.9225,2.933,2.9089,2.903,2.903,2.9017,2.8994,2.8994,2.8994,2.8994,2.8994,2.8994,2.8691,2.842,2.8359,2.7767,2.721,2.6758,2.6691,2.6691,2.6691,2.6691,2.6691,2.6691,2.6691,2.6691,2.6691,2.6297,2.6077,2.6077,2.5494,2.4981,2.4471,2.3991,2.3759,2.3759,2.3759,2.3716,2.3673,2.3673,2.3645,1.7657,1.9248,0.0,0.0,2.1465,2.3199,2.4909,2.5293,2.5293,2.5293,2.5293,2.5293,2.5293,2.5293,2.5293,2.5293,2.5293,2.5293,2.5293,2.5457,2.5572,2.5572,2.6351,2.7217,2.8063,2.8727,2.9458,3.0321,3.0398,3.0398,3.0398,3.0398,3.0398,3.0398,3.0398,3.0398,3.0398,3.0398,3.0398,3.0398,3.0398,3.0398,3.0398,3.0398,3.0398,3.04,3.0491,3.055,3.0611,3.0697,3.0814,3.0898,3.0898,3.0879,3.0836,3.0675,3.0596,3.0554,3.0462,3.0414,3.0398,3.0398,3.0398,3.0398,3.0398,3.0398,3.0343,3.0023,2.9813,2.9678,2.957,2.9474,2.9392,2.933,2.931,2.9255,2.9053,2.8994,2.8994,2.8994,2.8994,2.8994,2.8994,2.8929,2.8667,2.8075,2.786,2.7508,2.6783,2.6691,2.6691,2.6691,2.6691,2.6691,2.6691,2.6691,2.6691,2.6691,2.6624,2.6547,2.6547,2.5672,2.5136,2.502,2.4894,2.4863,2.4863,2.4863,2.4624,2.4233,2.4233,2.3991,1.8614,0.0,0.0,2.1248,0.0,2.3745,2.5014,2.5293,2.5293,2.5293,2.5293,2.5293,2.5293,2.5293,2.5293,2.5293,2.5293,2.5293,2.5293,2.5293,2.5293,2.5293,2.5697,2.6322,2.7188,2.8025,2.8871,2.9708,3.0169,3.0398,3.0398,3.0398,3.0398,3.0398,3.0398,3.0398,3.0398,3.0398,3.0398,3.0398,3.0398,3.0398,3.0398,3.0398,3.0398,3.04,3.0472,3.0545,3.0582,3.0254,3.0195,3.0244,2.9824,2.9658,2.9687,3.0011,3.0062,3.0033,3.0379,3.0452,3.0398,3.0398,3.0398,3.0398,3.0398,3.0398,3.0345,3.0075,2.9914,2.9813,2.9731,2.9687,2.9661,2.958,2.9464,2.933,2.9053,2.8994,2.8994,2.8994,2.8994,2.8994,2.8994,2.8994,2.8791,2.8219,2.8129,2.7927,2.7348,2.7264,2.7264,2.7264,2.7264,2.721,2.6987,2.7004,2.6906,2.6725,2.6691,2.6691,2.6691,2.6202,2.5819,2.5577,2.5335,2.5221,2.5221,2.5221,2.5067,2.4784,2.4784,2.4511,1.9483,0.0,2.0965,2.2497,2.3506,0.0,2.512,2.5293,2.5293,2.5293,2.5293,2.5293,2.5293,2.5293,2.5293,2.5293,2.5293,2.5293,2.5293,2.5293,2.5293,2.5293,2.5293,2.5639,2.6524,2.739,2.8227,2.9034,2.991,3.0398,3.0398,3.0398,3.0398,3.0398,3.0398,3.0398,3.0398,3.0398,3.0398,3.0398,3.0414,3.0414,3.04,3.0417,3.0426,3.04,3.0472,3.0451,3.0312,2.9743,2.9441,2.9286,2.8584,2.8301,2.8389,2.9101,2.9249,2.9223,3.0084,3.0301,3.0213,3.0381,3.0428,3.0415,3.0415,3.0402,3.0345,3.0127,3.0037,2.9969,2.9855,2.9918,2.9969,2.978,2.9607,2.9373,2.9125,2.903,2.8994,2.8994,2.8994,2.8994,2.8994,2.8994,2.8863,2.8446,2.8385,2.8281,2.7945,2.7897,2.7897,2.7897,2.7897,2.7783,2.7418,2.7326,2.7147,2.6808,2.6758,2.6691,2.6691,2.6691,2.6513,2.612,2.5681,2.5441,2.5441,2.5441,2.5411,2.5335,2.5335,2.5012,1.8802,0.0,2.1662,0.0,2.3465,2.4312,0.0,0.0,2.5293,2.5293,2.5293,2.5293,2.5293,2.5293,2.5293,2.5293,2.5293,2.5293,2.5293,2.5293,2.5293,2.5293,2.5293,2.5639,2.6524,2.739,2.8227,2.9034,2.991,3.0398,3.0398,3.0398,3.0398,3.0398,3.0398,3.0398,3.0398,3.0398,3.0398,3.041,3.0462,3.0462,3.04,3.0523,3.0507,3.04,3.0472,3.0081,2.9387,2.9468,2.906,2.8385,2.8319,2.8301,2.831,2.8366,2.8326,2.8382,2.9184,2.9417,2.9492,3.0314,3.0537,3.0481,3.0481,3.0451,3.0388,3.0355,3.0173,3.0052,3.0254,3.015,2.9989,2.9969,2.9806,2.9598,2.9394,2.9169,2.8994,2.8994,2.8994,2.8994,2.8994,2.8994,2.8863,2.8446,2.8385,2.8281,2.7945,2.7897,2.7897,2.7897,2.7897,2.7869,2.7831,2.7508,2.7272,2.7232,2.6898,2.6691,2.6691,2.6691,2.6657,2.6615,2.6539,2.6505,2.6505,2.6505,2.6289,2.5888,2.5888,2.5371,2.0002,2.1365,2.2516,0.0,2.4159,2.487,2.5216,2.5293,2.5293,2.5293,2.5293,2.5293,2.5293,2.5293,2.5293,2.5293,2.5293,2.5293,2.5293,2.5293,2.5293,2.5293,2.5293,2.5447,2.5832,2.6659,2.7515,2.8352,2.9198,2.9881,3.0369,3.0398,3.0398,3.0398,3.044,3.0462,3.0462,3.049,3.0506,3.0506,3.0535,3.0545,3.0506,3.0568,3.0552,3.0433,3.0009,2.9651,2.9299,2.8411,2.7844,2.7476,2.7021,2.6836,2.6904,2.736,2.7488,2.7544,2.8392,2.8646,2.8725,2.9596,2.9831,2.986,3.0353,3.0442,3.0398,3.0398,3.0321,3.0254,3.0367,3.0311,3.0222,3.0222,3.0032,2.9813,2.9616,2.927,2.8994,2.8994,2.8994,2.8994,2.8994,2.8994,2.8929,2.8773,2.8749,2.8691,2.8542,2.8516,2.8516,2.8516,2.8516,2.843,2.821,2.8029,2.7747,2.7326,2.7138,2.6939,2.6725,2.6691,2.6691,2.6691,2.6691,2.6691,2.6691,2.6691,2.6581,2.6401,2.6401,2.6005,0.0,0.0,2.3091,2.3905,2.4721,2.5322,0.0,2.5293,2.5293,2.5293,2.5293,2.5293,2.5293,2.5293,2.5293,2.5293,2.5293,2.5293,2.5293,2.5293,2.5293,2.5293,2.5293,2.5293,2.5293,2.6092,2.6957,2.7823,2.865,2.9477,3.034,3.0425,3.0437,3.0437,3.049,3.0531,3.0531,3.0584,3.0606,3.0606,3.0623,3.0623,3.0596,3.0653,3.0525,3.021,2.958,2.9119,2.8707,2.7426,2.6802,2.6581,2.5947,2.5703,2.5781,2.6426,2.6626,2.67,2.7588,2.7846,2.7926,2.8773,2.9151,2.939,3.0007,3.0298,3.0417,3.039,3.0398,3.0398,3.0398,3.0398,3.0398,3.0398,3.0169,2.9877,2.967,2.9303,2.8994,2.8994,2.8994,2.8994,2.8994,2.8994,2.8994,2.8994,2.8994,2.8994,2.8994,2.8994,2.8994,2.8994,2.8994,2.8872,2.8565,2.8446,2.8139,2.75,2.7356,2.7115,2.6733,2.6691,2.6691,2.6691,2.6691,2.6691,2.6691,2.6691,2.6691,2.6691,2.6691,2.6444,0.0,2.2191,0.0,2.3897,2.4748,2.5376,0.0,2.5293,2.5293,2.5293,2.5293,2.5293,2.5293,2.5293,2.5293,2.5293,2.5293,2.5293,2.5293,2.5293,2.5293,2.5293,2.5293,2.5293,2.5293,2.6092,2.6957,2.7823,2.865,2.9477,3.034,3.0462,3.049,3.049,3.0564,3.059,3.059,3.06,3.0606,3.0606,3.066,3.066,3.0611,3.0796,3.0404,2.9543,2.9372,2.8396,2.6938,2.6916,2.6418,2.5666,2.5692,2.5703,2.5713,2.5752,2.5728,2.58,2.6737,2.7016,2.7118,2.8054,2.8867,2.9468,2.9385,2.9885,3.0472,3.0415,3.0398,3.0398,3.0398,3.0398,3.0398,3.0398,3.0046,2.9661,2.9454,2.9191,2.8994,2.8994,2.8994,2.8994,2.8994,2.8994,2.8994,2.8994,2.8994,2.8994,2.8994,2.8994,2.8994,2.8994,2.8994,2.8984,2.8961,2.8624,2.8255,2.7888,2.7508,2.7115,2.6733,2.6691,2.6691,2.6691,2.6691,2.6691,2.6691,2.6691,2.6691,2.6691,2.6691,2.6455,0.0,0.0,0.0,2.4586,2.5167,2.5391,2.5369,2.533,2.5293,2.5293,2.5293,2.5293,2.5293,2.5293,2.5293,2.5293,2.5293,2.5293,2.5293,2.5293,2.5293,2.5293,2.5293,2.5293,2.5293,2.5619,2.6418,2.7804,2.8248,2.9045,3.0385,3.0531,3.0561,3.0561,3.0628,3.0713,3.0786,3.0786,3.0786,3.0786,3.0824,3.0823,3.0786,3.0868,3.0107,2.8726,2.868,2.8003,2.689,2.6351,2.5953,2.5671,2.5693,2.5703,2.5703,2.5703,2.5683,2.5711,2.6054,2.6152,2.6277,2.7168,2.76,2.7965,2.8985,2.9447,2.9717,3.0248,3.0398,3.0398,3.0398,3.0398,3.0355,3.0186,2.9927,2.9643,2.9434,2.9191,2.8994,2.8994,2.8994,2.8994,2.8994,2.8994,2.8994,2.8994,2.8994,2.8994,2.8994,2.8994,2.8994,2.8994,2.8994,2.8994,2.8994,2.8872,2.8624,2.8228,2.7871,2.75,2.7083,2.6849,2.6691,2.6691,2.6691,2.6691,2.6691,2.6691,2.6691,2.6691,2.6691,2.6623,2.2101,0.0,0.0,0.0,2.5424,2.5429,2.5408,2.5371,2.5331,2.5293,2.5293,2.5293,2.5293,2.5293,2.5293,2.5293,2.5293,2.5293,2.5293,2.5293,2.5293,2.5293,2.5322,2.5321,2.5303,2.5385,2.6006,2.7393,2.7869,2.868,3.0025,3.0434,3.0652,3.0699,3.0738,3.0814,3.0898,3.0898,3.0898,3.0898,3.0898,3.0898,3.0898,3.0898,2.9951,2.8301,2.8301,2.7637,2.6523,2.5937,2.5703,2.5703,2.5703,2.5703,2.5703,2.5703,2.5703,2.5703,2.5703,2.5703,2.5801,2.6377,2.6698,2.7071,2.8135,2.8793,2.9274,2.9807,3.0179,3.0398,3.0398,3.0398,3.0321,2.9979,2.9806,2.9643,2.9434,2.9191,2.8994,2.8994,2.8994,2.8994,2.8994,2.8994,2.8994,2.8994,2.8994,2.8994,2.8994,2.8994,2.8994,2.8994,2.8994,2.8994,2.8994,2.8994,2.8839,2.842,2.8084,2.7716,2.7326,2.6898,2.6691,2.6691,2.6691,2.6691,2.6691,2.6691,2.6691,2.6691,2.6691,2.6691,0.0,0.0,0.0,0.0,2.5452,2.5482,2.5424,2.5403,2.5374,2.5322,2.5303,2.5293,2.5293,2.5293,2.5293,2.5293,2.5293,2.5293,2.5293,2.5293,2.5293,2.5293,2.5363,2.5377,2.5313,2.5415,2.5826,2.6645,2.7563,2.8456,2.9257,3.0201,3.0769,3.0898,3.0898,3.0898,3.0898,3.0898,3.0898,3.0898,3.0898,3.0898,3.0898,3.0898,2.9951,2.8301,2.8301,2.7314,2.5703,2.5703,2.5703,2.5703,2.5703,2.5703,2.5703,2.5703,2.5703,2.5703,2.5703,2.5703,2.5703,2.5703,2.6269,2.6941,2.683,2.7923,2.9204,2.9119,2.9708,3.0369,3.0388,3.0398,3.0286,2.9815,2.9713,2.9643,2.9454,2.9203,2.903,2.903,2.903,2.9007,2.9007,2.9007,2.9017,2.8994,2.8994,2.8994,2.8994,2.8994,2.8994,2.8994,2.8994,2.8994,2.8994,2.8994,2.883,2.8446,2.8102,2.7745,2.7356,2.6963,2.6725,2.6725,2.6725,2.6725,2.6725,2.67,2.6691,2.6691,2.6691,2.6691,2.2997,0.0,0.0,0.0,0.0,0.0,2.547,2.5397,2.5343,2.5372,2.533,2.5293,2.5293,2.5293,2.5293,2.5293,2.5293,2.5293,2.5293,2.5293,2.5293,2.5293,2.5322,2.5322,2.5303,2.5415,2.5826,2.6645,2.7655,2.8596,2.9396,3.033,3.0858,3.0898,3.0898,3.0898,3.0898,3.0898,3.0898,3.0898,3.0898,3.0898,3.0898,3.0898,2.9951,2.8301,2.8301,2.7314,2.5703,2.5703,2.5703,2.5703,2.5703,2.5703,2.5703,2.5703,2.5703,2.5703,2.5703,2.5703,2.5703,2.5703,2.5828,2.6093,2.6632,2.709,2.765,2.878,2.9265,2.9602,3.0246,3.0398,3.0321,2.9994,2.9924,2.9861,2.9661,2.9561,2.9504,2.9504,2.9504,2.9456,2.9321,2.9289,2.9225,2.903,2.8994,2.8994,2.8994,2.8994,2.8994,2.8994,2.8994,2.8994,2.8994,2.8994,2.8952,2.8839,2.8464,2.8192,2.8103,2.7756,2.7568,2.7568,2.7568,2.7409,2.7138,2.6849,2.6691,2.6691,2.6691,2.6691,0.0,0.0,0.0,2.5248,0.0,0.0,2.5449,2.5405,2.5342,2.5364,2.5331,2.5293,2.5293,2.5293,2.5293,2.5293,2.5293,2.5293,2.5293,2.5293,2.5293,2.5293,2.5321,2.5338,2.5348,2.5461,2.5735,2.6207,2.7522,2.8817,3.0021,3.0604,3.0898,3.0898,3.0898,3.0898,3.0898,3.0898,3.0898,3.0898,3.0898,3.0898,3.0898,3.0898,2.9951,2.8301,2.8301,2.7314,2.5703,2.5703,2.5703,2.5703,2.5703,2.5703,2.5703,2.5703,2.5703,2.5703,2.5703,2.5703,2.5703,2.5703,2.5672,2.5719,2.6135,2.6481,2.6929,2.7807,2.8554,2.9294,3.0179,3.0398,3.0333,3.0052,2.9999,2.9969,2.9845,2.9838,2.9796,2.9713,2.9634,2.9542,2.9423,2.931,2.9191,2.903,2.8994,2.8994,2.8994,2.8994,2.8994,2.8994,2.8994,2.8994,2.8994,2.8994,2.8994,2.8994,2.8624,2.8385,2.8385,2.8075,2.7897,2.7897,2.7897,2.7774,2.7538,2.7147,2.6873,2.6691,2.6691,2.6691,2.3611,2.4306,0.0,2.5324,2.5391,0.0,2.54,2.5392,2.5385,2.5327,2.532,2.5311,2.5322,2.5322,2.5322,2.5322,2.5322,2.5313,2.5303,2.5293,2.5293,2.5293,2.5354,2.5391,2.5393,2.5508,2.5625,2.5732,2.7418,2.916,3.081,3.0898,3.0898,3.0898,3.0898,3.0898,3.0898,3.0898,3.0898,3.0898,3.0898,3.0898,3.0898,3.0898,2.9951,2.8301,2.8301,2.7314,2.5703,2.5703,2.5703,2.5703,2.5703,2.5703,2.5703,2.5703,2.5703,2.5703,2.5703,2.5703,2.5703,2.5703,2.5693,2.5671,2.5543,2.6043,2.6638,2.6603,2.7803,2.9275,3.0054,3.0321,3.0333,3.0099,3.0052,3.0052,3.0052,3.0052,2.9994,2.9806,2.9626,2.9484,2.9434,2.9246,2.9067,2.9017,2.8994,2.8994,2.8994,2.8994,2.8994,2.8994,2.8994,2.8994,2.8994,2.8994,2.8994,2.8994,2.8658,2.848,2.848,2.8192,2.8029,2.8029,2.7982,2.7954,2.7945,2.7569,2.7169,2.6775,2.6775,2.6725,2.4535,2.4767,2.5044,2.5264,2.5312,0.0,2.5391,2.5361,2.5347,2.5443,2.5424,2.5404,2.5447,2.5455,2.5455,2.5455,2.5424,2.5361,2.5313,2.5293,2.5293,2.5293,2.5313,2.5312,2.5322,2.5441,2.5813,2.6509,2.8291,2.9805,3.084,3.0898,3.0898,3.0898,3.0898,3.0898,3.0898,3.0898,3.0898,3.0898,3.0898,3.0898,3.0898,3.0898,2.9951,2.8301,2.8301,2.7314,2.5703,2.5703,2.5703,2.5703,2.5703,2.5703,2.5703,2.5703,2.5703,2.5703,2.5703,2.5703,2.5703,2.5703,2.5661,2.5603,2.5521,2.5582,2.5795,2.6429,2.7803,2.9131,2.9304,2.9871,3.0388,3.0333,3.0311,3.0311,3.0311,3.0311,3.0311,3.0264,3.0238,3.0085,2.9705,2.9598,2.9436,2.9067,2.8994,2.8994,2.8994,2.8994,2.8994,2.8994,2.8994,2.8994,2.8994,2.8994,2.8994,2.8994,2.8929,2.8887,2.8887,2.8815,2.8801,2.8801,2.8464,2.8307,2.8307,2.7936,2.7562,2.719,2.719,2.6995,0.0,2.4946,2.5053,2.5253,2.5293,0.0,0.0,2.5322,2.5319,2.5389,2.537,2.5362,2.5388,2.5396,2.541,2.5437,2.5386,2.5363,2.5403,2.5338,2.5293,2.5293,2.5293,2.5331,2.5391,2.5455,2.6075,2.7437,2.8815,2.998,3.085,3.0898,3.0898,3.0898,3.0898,3.0898,3.0898,3.0898,3.0898,3.0898,3.0898,3.0898,3.0898,3.0898,3.0185,2.8916,2.8486,2.7559,2.6309,2.5879,2.5703,2.5703,2.5703,2.5703,2.5703,2.5703,2.5703,2.5703,2.5703,2.5703,2.5703,2.5703,2.5649,2.5586,2.5521,2.5428,2.5522,2.6362,2.7207,2.8044,2.8871,2.9419,2.9862,3.0304,3.0398,3.0398,3.0398,3.0398,3.0398,3.0398,3.0398,3.0276,2.9918,2.9678,2.9474,2.9225,2.9098,2.8994,2.8994,2.8994,2.8994,2.8994,2.8994,2.8994,2.8994,2.8994,2.8994,2.8994,2.8994,2.8994,2.8994,2.8994,2.8994,2.8994,2.8806,2.8691,2.8691,2.8533,2.8153,2.7599,2.7585,2.7377,0.0,0.0,2.5055,2.5244,0.0,2.5302,0.0,0.0,0.0,2.5315,2.5323,2.5315,2.5338,2.5338,2.5311,2.5202,2.5274,2.5323,2.5262,2.5302,2.533,2.5322,2.5313,2.5347,2.5467,2.5659,2.6474,2.8173,2.9111,2.998,3.085,3.0898,3.0898,3.0898,3.0898,3.0898,3.0898,3.0898,3.0898,3.0898,3.0898,3.0898,3.0898,3.0898,3.042,2.956,2.8857,2.7959,2.6953,2.624,2.585,2.5703,2.5703,2.5703,2.5703,2.5703,2.5703,2.5703,2.5703,2.5703,2.5703,2.5683,2.5631,2.5551,2.5483,2.5393,2.5447,2.6149,2.6476,2.6948,2.8467,2.8977,2.9313,3.0198,3.0398,3.0398,3.0398,3.0398,3.0398,3.0398,3.0398,3.0299,2.9994,2.9678,2.9434,2.933,2.9134,2.8994,2.8994,2.8994,2.8994,2.8994,2.8994,2.8994,2.8994,2.8994,2.8994,2.8994,2.8994,2.8994,2.8994,2.8994,2.8994,2.8994,2.8994,2.8994,2.8994,2.8994,2.8648,2.8004,2.7936,2.7679,0.0,0.0,0.0,0.0,2.5293,2.5303,2.5303,0.0,2.5319,2.5376,0.0,2.5411,2.5473,0.0,0.0,2.4543,2.5022,2.5215,2.4448,2.5,2.5465,2.5406,2.5339,2.5331,2.5396,2.6222,2.7173,2.8223,2.9111,2.998,3.085,3.0898,3.0898,3.0898,3.0898,3.0898,3.0898,3.0898,3.0898,3.0898,3.0898,3.0898,3.0898,3.0898,3.042,2.959,2.9502,2.8516,2.6992,2.6894,2.6396,2.5703,2.5703,2.5703,2.5703,2.5703,2.5703,2.5703,2.5703,2.5703,2.5693,2.5633,2.5531,2.5413,2.5338,2.5313,2.5312,2.5418,2.6005,2.6822,2.7784,2.8563,2.9313,3.0198,3.0398,3.0398,3.0398,3.0398,3.0398,3.0398,3.0398,3.0251,2.9806,2.9696,2.9523,2.9102,2.9017,2.8994,2.8994,2.8994,2.8994,2.8994,2.8994,2.8994,2.8994,2.8994,2.8994,2.8994,2.8994,2.8994,2.8994,2.8994,2.8994,2.8994,2.8994,2.8994,2.8994,2.8994,2.8773,2.8345,2.8049,2.7671,0.0,0.0,2.5194,2.5283,2.5293,2.5293,2.5293,2.5293,2.5313,2.5339,0.0,0.0,0.0,0.0,0.0,0.0,2.519,2.5275,2.4985,2.52,2.5373,2.5344,2.539,2.5641,2.6213,2.6686,2.7537,2.8945,2.9394,2.998,3.085,3.0898,3.0898,3.0898,3.0898,3.0898,3.0898,3.0898,3.0898,3.0898,3.0898,3.0898,3.0898,3.0898,3.0703,3.0332,2.9824,2.918,2.8428,2.7422,2.6777,2.6396,2.5898,2.5703,2.5703,2.5703,2.5703,2.5703,2.5703,2.5703,2.5683,2.558,2.5503,2.5434,2.533,2.5293,2.5293,2.5293,2.5553,2.6159,2.7534,2.815,2.8736,3.0083,3.0398,3.0398,3.0398,3.0398,3.0398,3.0398,3.0398,3.0296,2.9924,2.9784,2.9633,2.9436,2.9163,2.8994,2.8994,2.8994,2.8994,2.8994,2.8994,2.8994,2.8994,2.8994,2.8994,2.8994,2.8994,2.8994,2.8994,2.8994,2.8994,2.8994,2.8994,2.8994,2.8994,2.8994,2.8911,2.8741,2.859,2.8327,2.5857,2.5916,2.5995,2.5914,2.5954,2.5985,2.5914,2.5772,2.5658,2.5658,2.5466,0.0,0.0,0.0,2.5245,2.507,0.0,2.5277,2.5133,2.5253,2.535,2.5325,2.5411,2.574,2.6419,2.6572,2.7342,2.909,2.9228,2.9726,3.084,3.0898,3.0898,3.0898,3.0898,3.0898,3.0898,3.0898,3.0898,3.0898,3.0898,3.0898,3.0898,3.0898,3.0898,3.0859,3.0234,2.9824,2.9502,2.8232,2.7432,2.6943,2.6299,2.5908,2.5703,2.5703,2.5703,2.5703,2.5703,2.5693,2.5648,2.5517,2.5472,2.5453,2.534,2.5293,2.5293,2.5293,2.5466,2.6005,2.7505,2.8053,2.8602,3.0054,3.0398,3.0398,3.0398,3.0398,3.0398,3.0398,3.0398,3.033,3.0142,2.9934,2.9742,2.9626,2.932,2.9081,2.9003,2.8994,2.8994,2.8994,2.8994,2.8994,2.8994,2.8994,2.8994,2.8994,2.8994,2.8994,2.8994,2.8994,2.8994,2.8994,2.8994,2.8994,2.8994,2.8994,2.8994,2.8994,2.8893,2.8628,2.7904,2.7856,2.7752,2.7498,2.7623,2.7752,2.7485,2.6981,2.6563,2.6563,2.589,2.5293,2.5293,2.5293,2.5053,2.4264,2.4851,0.0,0.0,2.492,2.5472,2.5403,2.54,2.542,2.5449,2.5574,2.6364,2.8115,2.8307,2.9092,3.081,3.0898,3.0898,3.0898,3.0898,3.0898,3.0898,3.0898,3.0898,3.0898,3.0898,3.0898,3.0898,3.0898,3.0898,3.0898,3.0869,3.0381,2.96,2.9541,2.8516,2.7002,2.6973,2.6435,2.5703,2.5703,2.5703,2.5703,2.5703,2.566,2.5583,2.5453,2.5403,2.5393,2.5312,2.5293,2.5293,2.5293,2.5918,2.6774,2.7669,2.8477,2.9284,3.0198,3.0398,3.0398,3.0398,3.0398,3.0398,3.0398,3.0398,3.0398,3.0398,3.0166,2.9853,2.9474,2.9402,2.9297,2.9044,2.8994,2.8994,2.8994,2.8994,2.8994,2.8994,2.8994,2.8994,2.8994,2.8994,2.8994,2.8994,2.8994,2.8994,2.8994,2.8994,2.8994,2.8994,2.8994,2.8994,2.8984,2.859,2.8251,2.7908,2.7947,2.7998,2.7865,2.7903,2.7885,2.7568,2.7489,2.7406,2.7223,2.7102,2.7024,2.7024,2.6553,2.6072,2.5803,2.5515,2.5235,0.0,2.5174,2.5358,2.534,2.5373,2.5659,2.633,2.6432,2.7202,2.8992,2.915,2.9668,3.084,3.0898,3.0898,3.0898,3.0898,3.0898,3.0898,3.0898,3.0898,3.0898,3.0898,3.0898,3.0898,3.0898,3.0898,3.0898,3.0898,3.0732,3.042,2.9844,2.9248,2.8613,2.7451,2.6816,2.6494,2.5908,2.5703,2.5703,2.5703,2.5659,2.5593,2.5498,2.5434,2.5393,2.5312,2.5697,2.6159,2.6159,2.6794,2.765,2.8477,2.889,2.9313,3.0198,3.0398,3.0398,3.0398,3.0398,3.0398,3.0398,3.0398,3.0398,3.0398,3.033,3.0107,2.9671,2.9481,2.9306,2.9044,2.8994,2.8994,2.8994,2.8994,2.8994,2.8994,2.8994,2.8994,2.8994,2.8994,2.8994,2.8994,2.8994,2.8994,2.8994,2.8994,2.8994,2.8994,2.8994,2.8994,2.8994,2.8865,2.8741,2.887,2.8909,2.8956,2.8846,2.8873,2.8841,2.8531,2.8416,2.8308,2.8144,2.8001,2.7902,2.796,2.747,2.7074,2.7094,2.6603,2.612,0.0,2.5495,2.5418,2.5736,2.5531,2.5749,2.6728,2.6854,2.762,2.943,2.9589,2.998,3.085,3.0898,3.0898,3.0898,3.0898,3.0898,3.0898,3.0898,3.0898,3.0898,3.0898,3.0898,3.0898,3.0898,3.0898,3.0898,3.0898,3.0898,3.0859,3.0293,2.9883,2.9492,2.8359,2.7744,2.7324,2.6143,2.5703,2.5703,2.5672,2.5644,2.5593,2.5484,2.5434,2.5451,2.5697,2.6149,2.6659,2.6976,2.7669,2.8448,2.8967,2.9323,2.9698,3.0275,3.0398,3.0398,3.0398,3.0398,3.0398,3.0398,3.0398,3.0398,3.0398,3.0398,3.0244,2.9771,2.9597,2.937,2.9053,2.8994,2.8994,2.8994,2.8994,2.9053,2.9127,2.9136,2.9136,2.9136,2.9136,2.9099,2.8994,2.8994,2.9127,2.9407,2.9145,2.9136,2.9439,2.9136,2.8994,2.8994,2.8994,2.8994]}]]